[[{"header":{"parameterUnit":"m.s-1","parameterCategory":1,"la1":31.0,"la2":29.5877,"lo1":-88.7671,"lo2":-86.6584,"dy":0.0162,"dx":0.0185,"nx":115,"ny":88,"refTime":"2024-09-14T12:00:00:Z","depth":0,"parameterNumber":2,"parameterNumberName":"U-component_of_WINDS"},"data":[0.0,0.0,0.0,0.0,0.0,0.0,0.0,0.0,0.0,0.0,0.0,0.0,0.0,0.0,0.0,0.0,0.0,0.0,0.0,0.0,0.0,0.0,0.0,0.0,0.0,0.0,0.0,0.0,0.0,0.0,0.0,0.0,0.0,0.0,0.0,0.0,0.0,0.0,0.0,0.0,0.0,0.0,0.0,0.0,0.0,0.0,0.0,0.0,0.0,0.0,0.0,0.0,0.0,0.0,0.0,0.0,0.0,0.0,0.0,0.0,0.0,0.0,0.0,0.0,0.0,0.0,0.0,0.0,0.0,0.0,0.0,0.0,0.0,0.0,0.0,0.0,0.0,0.0,0.0,0.0,0.0,0.0,0.0,0.0,0.0,0.0,0.0,0.0,0.0,0.0,0.0,0.0,0.0,0.0,0.0,0.0,0.0,0.0,0.0,0.0,0.0,0.0,0.0,0.0,0.0,0.0,0.0,0.0,0.0,0.0,0.0,0.0,0.0,0.0,0.0,0.0,0.0,0.0,0.0,0.0,0.0,0.0,0.0,0.0,0.0,0.0,0.0,0.0,0.0,0.0,0.0,0.0,0.0,0.0,0.0,0.0,0.0,0.0,0.0,0.0,0.0,0.0,0.0,0.0,0.0,0.0,0.0,0.0,0.0,0.0,0.0,0.0,0.0,0.0,0.0,0.0,0.0,0.0,0.0,0.0,0.0,0.0,0.0,0.0,0.0,0.0,0.0,0.0,0.0,0.0,0.0,0.0,0.0,0.0,0.0,0.0,0.0,0.0,0.0,0.0,0.0,0.0,0.0,0.0,0.0,0.0,0.0,0.0,0.0,0.0,0.0,0.0,0.0,0.0,0.0,0.0,0.0,0.0,0.0,0.0,0.0,0.0,0.0,0.0,0.0,0.0,0.0,0.0,0.0,0.0,0.0,0.0,0.0,0.0,0.0,0.0,0.0,0.0,0.0,0.0,0.0,0.0,0.0,0.0,0.0,0.0,0.0,0.0,0.0,0.0,0.0,0.0,0.0,0.0,0.0,0.0,0.0,0.0,0.0,0.0,0.0,0.0,0.0,0.0,0.0,0.0,0.0,0.0,0.0,0.0,0.0,0.0,0.0,0.0,0.0,0.0,0.0,0.0,0.0,0.0,0.0,0.0,0.0,0.0,0.0,0.0,0.0,0.0,0.0,0.0,0.0,0.0,0.0,0.0,0.0,0.0,0.0,0.0,0.0,0.0,0.0,0.0,0.0,0.0,0.0,0.0,0.0,0.0,0.0,0.0,0.0,0.0,0.0,0.0,0.0,0.0,0.0,0.0,0.0,0.0,0.0,0.0,0.0,0.0,0.0,0.0,0.0,0.0,0.0,0.0,0.0,0.0,0.0,0.0,0.0,0.0,0.0,0.0,0.0,0.0,0.0,0.0,0.0,0.0,0.0,0.0,0.0,0.0,0.0,0.0,0.0,0.0,0.0,0.0,0.0,0.0,0.0,0.0,0.0,0.0,0.0,0.0,0.0,0.0,0.0,0.0,0.0,0.0,0.0,0.0,0.0,0.0,0.0,0.0,0.0,0.0,0.0,0.0,0.0,0.0,0.0,0.0,0.0,0.0,0.0,0.0,0.0,0.0,0.0,0.0,0.0,0.0,0.0,0.0,0.0,0.0,0.0,0.0,0.0,0.0,0.0,0.0,0.0,0.0,0.0,0.0,0.0,0.0,0.0,0.0,0.0,0.0,0.0,0.0,0.0,0.0,0.0,0.0,0.0,0.0,0.0,0.0,0.0,0.0,0.0,0.0,0.0,0.0,0.0,0.0,0.0,0.0,0.0,0.0,0.0,0.0,0.0,0.0,0.0,0.0,0.0,0.0,0.0,0.0,0.0,0.0,0.0,0.0,0.0,0.0,0.0,0.0,0.0,0.0,0.0,0.0,0.0,0.0,0.0,0.0,0.0,0.0,0.0,0.0,0.0,0.0,0.0,0.0,0.0,0.0,0.0,0.0,0.0,0.0,0.0,0.0,0.0,0.0,0.0,0.0,0.0,0.0,0.0,0.0,0.0,0.0,0.0,0.0,0.0,0.0,0.0,0.0,0.0,0.0,0.0,0.0,0.0,0.0,0.0,0.0,0.0,0.0,0.0,0.0,0.0,0.0,0.0,0.0,0.0,0.0,0.0,0.0,0.0,0.0,0.0,0.0,0.0,0.0,0.0,0.0,0.0,0.0,0.0,0.0,0.0,0.0,0.0,0.0,0.0,0.0,0.0,0.0,0.0,0.0,0.0,0.0,0.0,0.0,0.0,0.0,0.0,0.0,0.0,0.0,0.0,0.0,0.0,0.0,0.0,0.0,0.0,0.0,0.0,0.0,0.0,0.0,0.0,0.0,0.0,0.0,0.0,0.0,0.0,0.0,0.0,0.0,0.0,0.0,0.0,0.0,0.0,0.0,0.0,0.0,0.0,0.0,0.0,0.0,0.0,0.0,0.0,0.0,0.0,0.0,0.0,0.0,0.0,0.0,0.0,0.0,0.0,0.0,0.0,0.0,0.0,0.0,0.0,0.0,0.0,0.0,0.0,0.0,0.0,0.0,0.0,0.0,0.0,0.0,0.0,0.0,0.0,0.0,0.0,0.0,0.0,0.0,0.0,0.0,0.0,0.0,0.0,0.0,0.0,0.0,0.0,0.0,0.0,0.0,0.0,0.0,0.0,0.0,0.0,0.0,0.0,0.0,0.0,0.0,0.0,0.0,0.0,0.0,0.0,0.0,0.0,0.0,0.0,0.0,0.0,0.0,0.0,0.0,0.0,0.0,0.0,0.0,0.0,0.0,0.0,0.0,0.0,0.0,0.0,0.0,0.0,0.0,0.0,0.0,0.0,0.0,0.0,0.0,0.0,0.0,0.0,0.0,0.0,0.0,0.0,0.0,0.0,0.0,0.0,0.0,0.0,0.0,0.0,0.0,0.0,0.0,0.0,0.0,0.0,0.0,0.0,0.0,0.0,0.0,0.0,0.0,0.0,0.0,0.0,0.0,0.0,0.0,0.0,0.0,0.0,0.0,0.0,0.0,0.0,0.0,0.0,0.0,0.0,0.0,0.0,0.0,0.0,0.0,0.0,0.0,0.0,0.0,0.0,0.0,0.0,0.0,0.0,0.0,0.0,0.0,0.0,0.0,0.0,0.0,0.0,0.0,0.0,0.0,0.0,0.0,0.0,0.0,0.0,0.0,0.0,0.0,0.0,0.0,0.0,0.0,0.0,0.0,0.0,0.0,0.0,0.0,0.0,0.0,0.0,0.0,0.0,0.0,0.0,0.0,0.0,0.0,0.0,0.0,0.0,0.0,0.0,0.0,0.0,0.0,0.0,0.0,0.0,0.0,0.0,0.0,0.0,0.0,0.0,0.0,0.0,0.0,0.0,0.0,0.0,0.0,0.0,0.0,0.0,0.0,0.0,0.0,0.0,0.0,0.0,0.0,0.0,0.0,0.0,0.0,0.0,0.0,0.0,0.0,0.0,0.0,0.0,0.0,0.0,0.0,0.0,0.0,0.0,0.0,0.0,0.0,0.0,0.0,0.0,0.0,0.0,0.0,0.0,0.0,0.0,0.0,0.0,0.0,0.0,0.0,0.0,0.0,0.0,0.0,0.0,0.0,0.0,0.0,0.0,0.0,0.0,0.0,0.0,0.0,0.0,0.0,0.0,0.0,0.0,0.0,0.0,0.0,0.0,0.0,0.0,0.0,0.0,0.0,0.0,0.0,0.0,0.0,0.0,0.0,0.0,0.0,0.0,0.0,0.0,0.0,0.0,0.0,0.0,0.0,0.0,0.0,0.0,0.0,0.0,0.0,0.0,0.0,0.0,0.0,0.0,0.0,0.0,0.0,0.0,0.0,0.0,0.0,0.0,0.0,0.0,0.0,0.0,0.0,0.0,0.0,0.0,0.0,0.0,0.0,0.0,0.0,0.0,0.0,0.0,0.0,0.0,0.0,0.0,0.0,0.0,0.0,0.0,0.0,0.0,0.0,0.0,0.0,0.0,0.0,0.0,0.0,0.0,0.0,0.0,0.0,0.0,0.0,0.0,0.0,0.0,0.0,0.0,0.0,0.0,0.0,0.0,0.0,0.0,0.0,0.0,0.0,0.0,0.0,0.0,0.0,0.0,0.0,0.0,0.0,0.0,0.0,0.0,0.0,0.0,0.0,0.0,0.0,0.0,0.0,0.0,0.0,0.0,0.0,0.0,0.0,0.0,0.0,0.0,0.0,0.0,0.0,0.0,0.0,0.446,0.0,0.0,0.0,0.0,0.0,0.0,0.0,0.0,0.0,0.0,0.0,0.0,0.0,0.0,0.0,0.0,0.0,0.0,0.0,0.0,0.0,0.0,0.0,0.0,0.0,0.0,0.0,0.0,0.0,0.0,0.0,0.0,0.0,0.0,0.0,0.0,0.0,0.0,0.0,0.0,0.0,0.0,0.0,0.0,0.0,0.0,0.0,0.0,0.0,0.0,0.0,0.0,0.0,0.0,0.0,0.0,0.0,0.0,0.0,0.0,0.0,0.0,0.0,0.0,0.0,0.0,0.0,0.0,0.0,0.0,0.0,0.0,0.0,0.0,0.0,0.0,0.0,0.0,0.0,0.0,0.0,0.0,0.0,0.0,0.0,0.0,0.0,0.0,0.0,0.0,0.0,0.0,0.0,0.0,0.0,0.0,0.0,0.0,0.0,0.0,0.0,0.0,0.0,0.0,0.0,0.0,0.0,0.0,0.0,0.0,0.4463,0.4463,0.4463,0.4463,0.446,0.0,0.0,0.0,0.0,0.0,0.0,0.0,0.0,0.0,0.0,0.0,0.0,0.0,0.0,0.0,0.0,0.0,0.0,0.0,0.0,0.0,0.0,0.0,0.0,0.0,0.0,0.0,0.0,0.0,0.0,0.0,0.0,0.0,0.0,0.0,0.0,0.0,0.0,0.0,0.0,0.0,0.0,0.0,0.0,0.0,0.0,0.0,0.0,0.0,0.0,0.0,0.0,0.0,0.0,0.0,0.0,0.0,0.0,0.0,0.0,0.0,0.0,0.0,0.0,0.0,0.0,0.0,0.0,0.0,0.0,0.0,0.0,0.0,0.0,0.0,0.0,0.0,0.0,0.0,0.0,0.0,0.0,0.0,0.0,0.0,0.0,0.0,0.0,0.0,0.0,0.0,0.0,0.0,0.0,0.0,0.0,0.0,0.0,0.0,0.0,0.0,0.0,0.0,0.0,0.0,0.0,0.0,0.0,0.0,0.0,0.0,0.0,0.4625,0.4565,0.4565,0.0,0.0,0.0,0.0,0.0,0.0,0.0,0.0,0.0,0.0,0.0,0.0,0.0,0.0,0.0,0.0,0.0,0.0,0.0,0.0,0.0,0.0,0.0,0.0,0.0,0.0,0.0,0.0,0.0,0.0,0.0,0.0,0.0,0.0,0.0,0.0,0.0,0.0,0.0,0.0,0.0,0.0,0.0,0.0,0.0,0.0,0.0,0.0,0.0,0.0,0.0,0.0,0.0,0.0,0.0,0.0,0.0,0.0,0.0,0.0,0.0,0.0,0.0,0.0,0.0,0.0,0.0,0.0,0.0,0.0,0.0,0.0,0.0,0.0,0.0,0.0,0.0,0.0,0.0,0.0,0.0,0.0,0.0,0.0,0.0,0.0,0.0,0.0,0.0,0.0,0.0,0.0,0.0,0.0,0.0,0.0,0.0,0.0,0.0,0.0,0.0,0.0,0.0,0.0,0.0,0.0,0.0,0.0,0.0,0.0,0.4596,0.4867,0.4874,0.0,0.4877,0.0,0.0,0.0,0.0,0.0,0.0,0.0,0.0,0.0,0.0,0.0,0.0,0.0,0.0,0.0,0.0,0.0,0.0,0.0,0.0,0.0,0.0,0.0,0.0,0.0,0.0,0.0,0.0,0.0,0.0,0.0,0.0,0.0,0.0,0.0,0.0,0.0,0.0,0.0,0.0,0.0,0.0,0.0,0.0,0.0,0.0,0.0,0.0,0.0,0.0,0.0,0.0,0.0,0.0,0.0,0.0,0.0,0.0,0.0,0.0,0.0,0.0,0.0,0.0,0.0,0.0,0.0,0.0,0.0,0.0,0.0,0.0,0.0,0.0,0.0,0.0,0.0,0.0,0.0,0.0,0.0,0.0,0.0,0.0,0.0,0.0,0.0,0.0,0.0,0.0,0.0,0.0,0.0,0.0,0.0,0.0,0.0,0.0,0.0,0.0,0.0,0.0,0.0,0.0,0.0,0.0,0.0,0.0,0.0,0.0,0.4701,0.4914,0.4833,0.4785,0.0,0.0,0.0,0.0,0.0,0.0,0.0,0.0,0.0,0.0,0.0,0.0,0.0,0.0,0.0,0.0,0.0,0.0,0.0,0.0,0.0,0.0,0.0,0.0,0.0,0.0,0.0,0.0,0.0,0.0,0.0,0.0,0.0,0.0,0.0,0.0,0.0,0.0,0.0,0.0,0.0,0.0,0.0,0.0,0.0,0.0,0.0,0.0,0.0,0.0,0.0,0.0,0.0,0.0,0.0,0.0,0.0,0.0,0.0,0.0,0.0,0.0,0.0,0.0,0.0,0.0,0.0,0.0,0.0,0.0,0.0,0.0,0.0,0.0,0.0,0.0,0.0,0.0,0.0,0.0,0.0,0.0,0.0,0.0,0.0,0.0,0.0,0.0,0.0,0.0,0.0,0.0,0.0,0.0,0.0,0.0,0.0,0.0,0.0,0.0,0.0,0.0,0.0,0.0,0.0,0.0,0.0,0.0,0.0,0.0,0.4623,0.0,0.4958,0.487,0.4755,0.4629,0.0,0.0,0.0,0.0,0.0,0.0,0.0,0.0,0.0,0.0,0.0,0.0,0.0,0.0,0.0,0.0,0.0,0.0,0.0,0.0,0.0,0.0,0.0,0.0,0.0,0.0,0.0,0.0,0.0,0.0,0.0,0.0,0.0,0.0,0.0,0.0,0.0,0.0,0.0,0.0,0.0,0.0,0.0,0.0,0.0,0.0,0.0,0.0,0.0,0.0,0.0,0.0,0.0,0.0,0.0,0.0,0.0,0.0,0.0,0.0,0.0,0.0,0.0,0.0,0.0,0.0,0.0,0.0,0.0,0.0,0.0,0.0,0.0,0.0,0.0,0.0,0.0,0.0,0.0,0.0,0.0,0.0,0.0,0.0,0.0,0.0,0.0,0.0,0.0,0.0,0.0,0.0,0.0,0.0,0.0,0.0,0.0,0.0,0.0,0.0,0.0,0.0,0.0,0.0,0.0,0.0,0.0,0.0,0.0,0.4819,0.4826,0.5111,0.5111,0.4908,0.0,0.0,0.0,0.0,0.0,0.0,0.0,0.0,0.0,0.0,0.0,0.0,0.0,0.0,0.0,0.0,0.0,0.0,0.0,0.0,0.0,0.0,0.0,0.0,0.0,0.0,0.0,0.0,0.0,0.0,0.0,0.0,0.0,0.0,0.0,0.0,0.0,0.0,0.0,0.0,0.0,0.0,0.0,0.0,0.0,0.0,0.0,0.0,0.0,0.0,0.0,0.0,0.0,0.0,0.0,0.0,0.0,0.0,0.0,0.0,0.0,0.0,0.0,0.0,0.0,0.0,0.0,0.0,0.0,0.0,0.0,0.0,0.0,0.0,0.0,0.0,0.0,0.0,0.0,0.0,0.0,0.0,0.0,0.0,0.0,0.0,0.0,0.0,0.0,0.0,0.0,0.0,0.0,0.0,0.0,0.0,0.0,0.0,0.0,0.0,0.0,0.0,0.0,0.0,0.0,0.0,0.0,0.0,0.0,0.4267,0.445,0.4826,0.5376,0.487,0.4565,0.0,0.0,0.0,0.0,0.0,0.0,0.0,0.0,0.0,0.0,0.0,0.0,0.0,0.0,0.0,0.0,0.0,0.0,0.0,0.0,0.0,0.0,0.0,0.0,0.0,0.0,0.0,0.0,0.0,0.0,0.0,0.0,0.0,0.0,0.0,0.0,0.0,0.0,0.0,0.0,0.0,0.0,0.0,0.0,0.0,0.0,0.0,0.0,0.0,0.0,0.0,0.0,0.0,0.0,0.0,0.0,0.0,0.0,0.0,0.0,0.0,0.0,0.0,0.0,0.0,0.0,0.0,0.0,0.0,0.0,0.0,0.0,0.0,0.0,0.0,0.0,0.0,0.0,0.0,0.0,0.0,0.0,0.0,0.0,0.0,0.0,0.0,0.0,0.0,0.0,0.0,0.0,0.0,0.0,0.0,0.0,0.0,0.0,0.0,0.0,0.0,0.0,0.0,0.0,0.0,0.0,0.0,0.0,0.0,0.4103,0.0,0.4944,0.0,0.4785,0.4473,0.0,0.0,0.0,0.0,0.0,0.0,0.0,0.0,0.0,0.0,0.0,0.0,0.0,0.0,0.0,0.0,0.0,0.0,0.0,0.0,0.0,0.0,0.0,0.0,0.0,0.0,0.0,0.0,0.0,0.0,0.0,0.0,0.0,0.0,0.0,0.0,0.0,0.0,0.0,0.0,0.0,0.0,0.0,0.0,0.0,0.0,0.0,0.0,0.0,0.0,0.0,0.0,0.0,0.0,0.0,0.0,0.0,0.0,0.0,0.0,0.0,0.0,0.0,0.0,0.0,0.0,0.0,0.0,0.0,0.0,0.0,0.0,0.0,0.0,0.0,0.0,0.0,0.0,0.0,0.0,0.0,0.0,0.0,0.0,0.0,0.0,0.0,0.0,0.0,0.0,0.0,0.0,0.0,0.0,0.0,0.0,0.0,0.0,0.0,0.0,0.0,0.0,0.0,0.0,0.0,0.0,0.0,0.0,0.382,0.4616,0.5042,0.5134,0.4952,0.4908,0.4497,0.0,0.0,0.0,0.0,0.0,0.0,0.0,0.0,0.0,0.0,0.0,0.0,0.0,0.0,0.0,0.0,0.0,0.0,0.0,0.0,0.0,0.0,0.0,0.0,0.0,0.0,0.0,0.0,0.0,0.0,0.0,0.0,0.0,0.0,0.0,0.0,0.0,0.0,0.0,0.0,0.0,0.0,0.0,0.0,0.0,0.0,0.0,0.0,0.0,0.0,0.0,0.0,0.0,0.0,0.0,0.0,0.0,0.0,0.0,0.0,0.0,0.0,0.0,0.0,0.0,0.0,0.0,0.0,0.0,0.0,0.0,0.0,0.0,0.0,0.0,0.0,0.0,0.0,0.0,0.0,0.0,0.0,0.0,0.0,0.0,0.0,0.0,0.0,0.0,0.0,0.0,0.0,0.0,0.0,0.0,0.0,0.0,0.0,0.0,0.0,0.0,0.0,0.0,0.0,0.0,0.0,0.0,0.0,0.0,0.4064,0.4486,0.4951,0.5484,0.477,0.4568,0.0,0.0,0.0,0.0,0.0,0.0,0.0,0.0,0.0,0.0,0.0,0.0,0.0,0.0,0.0,0.0,0.0,0.0,0.0,0.0,0.0,0.0,0.0,0.0,0.0,0.0,0.0,0.0,0.0,0.0,0.0,0.0,0.0,0.0,0.0,0.0,0.0,0.0,0.0,0.0,0.0,0.0,0.0,0.0,0.0,0.0,0.0,0.0,0.0,0.0,0.0,0.0,0.0,0.0,0.0,0.0,0.0,0.0,0.0,0.0,0.0,0.0,0.0,0.0,0.0,0.0,0.0,0.0,0.0,0.0,0.0,0.0,0.0,0.0,0.0,0.0,0.0,0.0,0.0,0.0,0.0,0.0,0.0,0.0,0.0,0.0,0.0,0.0,0.0,0.0,0.0,0.0,0.0,0.0,0.0,0.0,0.0,0.0,0.0,0.0,0.0,0.0,0.0,0.0,0.0,0.0,0.0,0.0,0.0,0.4246,0.4717,0.5219,0.5796,0.506,0.4748,0.4918,0.0,0.0,0.0,0.0,0.0,0.0,0.0,0.0,0.0,0.0,0.0,0.0,0.0,0.0,0.0,0.0,0.0,0.0,0.0,0.0,0.0,0.0,0.0,0.0,0.0,0.0,0.0,0.0,0.0,0.0,0.0,0.0,0.0,0.0,0.0,0.0,0.0,0.0,0.0,0.0,0.0,0.0,0.0,0.0,0.0,0.0,0.0,0.0,0.0,0.0,0.0,0.0,0.0,0.0,0.0,0.0,0.0,0.0,0.0,0.0,0.0,0.0,0.0,0.0,0.0,0.0,0.0,0.0,0.0,0.0,0.0,0.0,0.0,0.0,0.0,0.0,0.0,0.0,0.0,0.0,0.0,0.0,0.0,0.0,0.0,0.0,0.0,0.0,0.0,0.0,0.0,0.0,0.0,0.0,0.0,0.0,0.0,0.0,0.0,0.0,0.0,0.0,0.0,0.0,0.0,0.0,0.0,0.0,0.4893,0.5581,0.5918,0.5884,0.5545,0.5043,0.0,0.0,0.0,0.0,0.0,0.0,0.0,0.0,0.0,0.0,0.0,0.0,0.0,0.0,0.0,0.0,0.0,0.0,0.0,0.0,0.0,0.0,0.0,0.0,0.0,0.0,0.0,0.0,0.0,0.0,0.0,0.0,0.0,0.0,0.0,0.0,0.0,0.0,0.0,0.0,0.0,0.0,0.0,0.0,0.0,0.0,0.0,0.0,0.0,0.0,0.0,0.0,0.0,0.0,0.0,0.0,0.0,0.0,0.0,0.0,0.0,0.0,0.0,0.0,0.0,0.0,0.0,0.0,0.0,0.0,0.0,0.0,0.0,0.0,0.0,0.0,0.0,0.0,0.0,0.0,0.0,0.0,0.0,0.0,0.0,0.0,0.0,0.0,0.0,0.0,0.0,0.0,0.0,0.0,0.0,0.0,0.0,0.0,0.0,0.0,0.0,0.0,0.0,0.0,0.0,0.0,0.0,0.0,0.0,0.5302,0.603,0.6452,0.6296,0.5842,0.544,0.0,0.0,0.0,0.0,0.0,0.0,0.0,0.0,0.0,0.0,0.0,0.0,0.0,0.0,0.0,0.0,0.0,0.0,0.0,0.0,0.0,0.0,0.0,0.0,0.0,0.0,0.0,0.0,0.0,0.0,0.0,0.0,0.0,0.0,0.0,0.0,0.0,0.0,0.0,0.0,0.0,0.0,0.0,0.0,0.0,0.0,0.0,0.0,0.0,0.0,0.0,0.0,0.0,0.0,0.0,0.0,0.0,0.0,0.0,0.0,0.0,0.0,0.0,0.0,0.0,0.0,0.0,0.0,0.0,0.0,0.0,0.0,0.0,0.0,0.0,0.0,0.0,0.0,0.0,0.0,0.0,0.0,0.0,0.0,0.0,0.0,0.0,0.0,0.0,0.0,0.0,0.0,0.0,0.0,0.0,0.0,0.0,0.0,0.0,0.0,0.0,0.0,0.0,0.0,0.0,0.0,0.0,0.0,0.5199,0.5395,0.6397,0.6793,0.6668,0.6361,0.5942,0.0,0.0,0.0,0.0,0.0,0.0,0.0,0.0,0.0,0.0,0.0,0.0,0.0,0.0,0.0,0.0,0.0,0.0,0.0,0.0,0.0,0.0,0.0,0.0,0.0,0.0,0.0,0.0,0.0,0.0,0.0,0.0,0.0,0.0,0.0,0.0,0.0,0.0,0.0,0.0,0.0,0.0,0.0,0.0,0.0,0.0,0.0,0.0,0.0,0.0,0.0,0.0,0.0,0.0,0.0,0.0,0.0,0.0,0.0,0.0,0.0,0.0,0.0,0.0,0.0,0.0,0.0,0.0,0.0,0.0,0.0,0.0,0.0,0.0,0.0,0.0,0.0,0.0,0.0,0.0,0.0,0.0,0.0,0.0,0.0,0.0,0.0,0.0,0.0,0.0,0.0,0.0,0.0,0.0,0.0,0.0,0.0,0.0,0.0,0.0,0.0,0.0,0.0,0.0,0.0,0.0,0.0,0.0,0.5398,0.5523,0.6485,0.6994,0.6859,0.6887,0.6437,0.0,0.0,0.0,0.0,0.0,0.0,0.0,0.0,0.0,0.0,0.0,0.0,0.0,0.0,0.0,0.0,0.0,0.0,0.0,0.0,0.0,0.0,0.0,0.0,0.0,0.0,0.0,0.0,0.0,0.0,0.0,0.0,0.0,0.0,0.0,0.0,0.0,0.0,0.0,0.0,0.0,0.0,0.0,0.0,0.0,0.0,0.0,0.0,0.0,0.0,0.0,0.0,0.0,0.0,0.0,0.0,0.0,0.0,0.0,0.0,0.0,0.0,0.0,0.0,0.0,0.0,0.0,0.0,0.0,0.0,0.0,0.0,0.0,0.0,0.0,0.0,0.0,0.0,0.0,0.0,0.0,0.0,0.0,0.0,0.0,0.0,0.0,0.0,0.0,0.0,0.0,0.0,0.0,0.0,0.0,0.0,0.0,0.0,0.0,0.0,0.0,0.0,0.0,0.0,0.0,0.0,0.0,0.0,0.537,0.5412,0.6341,0.6941,0.6909,0.6845,0.6424,0.0,0.0,0.0,0.0,0.0,0.0,0.0,0.0,0.0,0.0,0.0,0.0,0.0,0.0,0.0,0.0,0.0,0.0,0.0,0.0,0.0,0.0,0.0,0.0,0.0,0.0,0.0,0.0,0.0,0.0,0.0,0.0,0.0,0.0,0.0,0.0,0.0,0.0,0.0,0.0,0.0,0.0,0.0,0.0,0.0,0.0,0.0,0.0,0.4945,0.0,0.0,0.0,0.0,0.0,0.0,0.0,0.0,0.0,0.0,0.0,0.0,0.0,0.0,0.0,0.0,0.0,0.0,0.0,0.0,0.0,0.0,0.0,0.0,0.0,0.0,0.0,0.0,0.0,0.0,0.0,0.0,0.0,0.0,0.0,0.0,0.0,0.0,0.0,0.0,0.0,0.0,0.0,0.0,0.0,0.0,0.0,0.0,0.0,0.0,0.0,0.0,0.0,0.0,0.0,0.0,0.0,0.0,0.0,0.5493,0.5621,0.6348,0.6883,0.7033,0.678,0.643,0.0,0.0,0.0,0.0,0.0,0.0,0.0,0.0,0.0,0.0,0.0,0.0,0.0,0.0,0.0,0.0,0.0,0.0,0.0,0.0,0.0,0.0,0.0,0.0,0.0,0.0,0.0,0.0,0.0,0.0,0.0,0.0,0.0,0.0,0.0,0.0,0.0,0.0,0.0,0.0,0.0,0.0,0.0,0.0,0.0,0.0,0.0,0.0,0.0,0.0,0.0,0.0,0.0,0.0,0.0,0.0,0.0,0.0,0.0,0.0,0.0,0.0,0.0,0.0,0.0,0.0,0.0,0.0,0.0,0.0,0.0,0.0,0.0,0.0,0.0,0.0,0.0,0.0,0.0,0.0,0.0,0.0,0.0,0.0,0.0,0.0,0.0,0.0,0.0,0.0,0.0,0.0,0.0,0.0,0.0,0.0,0.0,0.0,0.0,0.0,0.0,0.0,0.0,0.0,0.0,0.0,0.0,0.522,0.5588,0.589,0.6435,0.6755,0.6918,0.669,0.6402,0.5949,0.0,0.0,0.0,0.0,0.0,0.0,0.0,0.0,0.0,0.0,0.0,0.0,0.0,0.0,0.0,0.0,0.0,0.0,0.0,0.0,0.0,0.0,0.0,0.0,0.0,0.0,0.0,0.0,0.0,0.0,0.0,0.0,0.0,0.0,0.0,0.0,0.0,0.0,0.4619,0.4938,0.0,0.0,0.0,0.0,0.0,0.0,0.0,0.0,0.524,0.0,0.0,0.0,0.0,0.0,0.0,0.0,0.0,0.0,0.0,0.0,0.0,0.0,0.0,0.0,0.0,0.0,0.0,0.0,0.0,0.0,0.0,0.0,0.0,0.0,0.0,0.0,0.0,0.0,0.0,0.0,0.0,0.0,0.0,0.0,0.0,0.0,0.0,0.0,0.0,0.0,0.0,0.0,0.0,0.0,0.0,0.0,0.0,0.0,0.0,0.0,0.0,0.0,0.0,0.0,0.0,0.5017,0.5584,0.584,0.5893,0.6258,0.6429,0.6579,0.6192,0.5916,0.5574,0.0,0.0,0.0,0.0,0.0,0.0,0.0,0.0,0.0,0.0,0.0,0.0,0.0,0.0,0.0,0.0,0.0,0.0,0.0,0.0,0.0,0.0,0.0,0.0,0.0,0.0,0.0,0.0,0.0,0.0,0.0,0.0,0.0,0.0,0.0,0.0,0.0,0.0,0.0,0.5874,0.6146,0.0,0.0,0.0,0.0,0.0,0.0,0.0,0.0,0.5386,0.0,0.0,0.0,0.0,0.0,0.0,0.0,0.0,0.0,0.0,0.0,0.0,0.0,0.0,0.0,0.0,0.0,0.0,0.0,0.0,0.0,0.0,0.0,0.0,0.0,0.0,0.0,0.0,0.0,0.0,0.0,0.0,0.0,0.0,0.0,0.0,0.0,0.0,0.0,0.0,0.0,0.0,0.0,0.0,0.0,0.0,0.0,0.0,0.0,0.0,0.0,0.0,0.0,0.0,0.0,0.4888,0.5622,0.5892,0.5803,0.6048,0.6275,0.6259,0.5855,0.5573,0.0,0.0,0.0,0.0,0.0,0.0,0.0,0.0,0.0,0.0,0.0,0.0,0.0,0.0,0.0,0.0,0.0,0.0,0.0,0.0,0.0,0.0,0.0,0.0,0.0,0.0,0.0,0.0,0.0,0.0,0.0,0.0,0.0,0.0,0.0,0.0,0.0,0.0,0.0,0.0,0.5969,0.6274,0.6363,0.0,0.0,0.0,0.0,0.0,0.0,0.5715,0.5576,0.0,0.0,0.0,0.0,0.0,0.0,0.0,0.0,0.0,0.0,0.0,0.0,0.0,0.0,0.0,0.0,0.0,0.0,0.0,0.0,0.0,0.0,0.0,0.0,0.0,0.0,0.0,0.0,0.0,0.0,0.0,0.0,0.0,0.0,0.0,0.0,0.0,0.0,0.0,0.0,0.0,0.0,0.0,0.0,0.0,0.0,0.0,0.0,0.0,0.0,0.0,0.0,0.0,0.0,0.0,0.4867,0.5657,0.5961,0.5857,0.5971,0.5968,0.592,0.5618,0.5264,0.0,0.0,0.0,0.0,0.0,0.0,0.0,0.0,0.0,0.0,0.0,0.0,0.0,0.0,0.0,0.0,0.0,0.0,0.0,0.0,0.0,0.0,0.0,0.0,0.0,0.0,0.0,0.0,0.0,0.0,0.0,0.0,0.0,0.0,0.0,0.0,0.0,0.0,0.0,0.0,0.0,0.6354,0.6331,0.6235,0.0,0.0,0.0,0.0,0.6101,0.6118,0.0,0.0,0.0,0.0,0.0,0.0,0.0,0.0,0.0,0.0,0.0,0.0,0.0,0.0,0.0,0.0,0.0,0.0,0.0,0.0,0.0,0.0,0.0,0.0,0.0,0.0,0.0,0.0,0.0,0.0,0.0,0.0,0.0,0.0,0.0,0.0,0.0,0.0,0.0,0.0,0.0,0.0,0.0,0.0,0.0,0.0,0.0,0.0,0.0,0.0,0.0,0.0,0.0,0.0,0.0,0.0,0.5336,0.5908,0.6359,0.6398,0.5857,0.5548,0.5493,0.528,0.4982,0.0,0.0,0.0,0.0,0.0,0.0,0.0,0.0,0.0,0.0,0.0,0.0,0.0,0.0,0.0,0.0,0.0,0.0,0.0,0.0,0.0,0.0,0.0,0.0,0.0,0.0,0.0,0.0,0.0,0.0,0.0,0.0,0.0,0.0,0.0,0.0,0.0,0.0,0.0,0.0,0.0,0.6882,0.5501,0.6074,0.6334,0.0,0.0,0.6583,0.7109,0.719,0.0,0.0,0.0,0.0,0.0,0.0,0.0,0.0,0.0,0.0,0.0,0.0,0.0,0.0,0.0,0.0,0.0,0.0,0.0,0.0,0.0,0.0,0.0,0.0,0.0,0.0,0.0,0.0,0.0,0.0,0.0,0.0,0.0,0.0,0.0,0.0,0.0,0.0,0.0,0.0,0.0,0.0,0.0,0.0,0.0,0.0,0.0,0.0,0.0,0.0,0.0,0.0,0.0,0.0,0.0,0.5085,0.5289,0.6331,0.6692,0.6321,0.6077,0.5687,0.5173,0.4966,0.4674,0.0,0.0,0.0,0.0,0.0,0.0,0.0,0.0,0.0,0.0,0.0,0.0,0.0,0.0,0.0,0.0,0.0,0.0,0.0,0.0,0.0,0.0,0.0,0.0,0.0,0.0,0.0,0.0,0.0,0.0,0.0,0.0,0.0,0.0,0.0,0.0,0.0,0.0,0.0,0.0,0.0,0.0,0.5759,0.5871,0.0,0.0,0.0,0.6101,0.6321,0.0,0.0,0.0,0.0,0.0,0.0,0.0,0.0,0.0,0.0,0.0,0.0,0.0,0.0,0.0,0.0,0.0,0.0,0.0,0.0,0.0,0.0,0.0,0.0,0.0,0.0,0.0,0.0,0.0,0.0,0.0,0.0,0.0,0.0,0.0,0.0,0.0,0.0,0.0,0.0,0.0,0.0,0.0,0.0,0.0,0.0,0.0,0.0,0.0,0.0,0.0,0.0,0.0,0.0,0.0,0.0,0.0,0.5545,0.6659,0.6942,0.6331,0.6199,0.5817,0.4972,0.4823,0.0,0.0,0.0,0.0,0.0,0.0,0.0,0.0,0.0,0.0,0.0,0.0,0.0,0.0,0.0,0.0,0.0,0.0,0.0,0.0,0.0,0.0,0.0,0.0,0.0,0.0,0.0,0.4132,0.0,0.0,0.0,0.0,0.0,0.0,0.0,0.0,0.0,0.0,0.0,0.0,0.0,0.0,0.502,0.5279,0.5256,0.4953,0.0,0.0,0.5354,0.5405,0.5531,0.5522,0.0,0.0,0.0,0.0,0.0,0.0,0.0,0.0,0.0,0.0,0.0,0.0,0.0,0.0,0.0,0.0,0.0,0.0,0.0,0.0,0.0,0.0,0.0,0.0,0.0,0.0,0.0,0.0,0.0,0.0,0.0,0.0,0.0,0.0,0.0,0.0,0.0,0.0,0.0,0.0,0.0,0.0,0.0,0.0,0.0,0.0,0.0,0.0,0.0,0.0,0.0,0.0,0.0,0.0,0.0,0.6387,0.6958,0.7062,0.6868,0.6193,0.5588,0.4849,0.4713,0.4495,0.0,0.0,0.0,0.0,0.0,0.0,0.0,0.0,0.0,0.0,0.0,0.0,0.0,0.0,0.0,0.0,0.0,0.0,0.0,0.0,0.0,0.0,0.0,0.0,0.0,0.0,0.0,0.0,0.0,0.0,0.0,0.0,0.0,0.0,0.0,0.0,0.0,0.0,0.0,0.0,0.0,0.3984,0.2939,0.3763,0.4168,0.0,0.0,0.4736,0.4898,0.5095,0.5018,0.4293,0.0,0.0,0.0,0.0,0.0,0.0,0.0,0.0,0.0,0.0,0.0,0.0,0.0,0.0,0.0,0.0,0.0,0.0,0.0,0.0,0.0,0.0,0.0,0.0,0.0,0.0,0.0,0.0,0.0,0.0,0.0,0.0,0.0,0.0,0.0,0.0,0.0,0.0,0.0,0.0,0.0,0.0,0.0,0.0,0.0,0.0,0.0,0.0,0.0,0.0,0.0,0.0,0.0,0.4923,0.5969,0.6819,0.7066,0.6708,0.6486,0.5888,0.4724,0.4673,0.4361,0.0,0.0,0.0,0.0,0.0,0.0,0.0,0.0,0.0,0.0,0.0,0.0,0.0,0.0,0.0,0.0,0.0,0.0,0.0,0.0,0.0,0.0,0.0,0.0,0.0,0.0,0.0,0.0,0.5226,0.5076,0.451,0.0,0.0,0.0,0.0,0.0,0.0,0.0,0.0,0.0,0.0,0.2841,0.249,0.2797,0.0,0.0,0.2771,0.3516,0.3814,0.3846,0.3948,0.4008,0.4186,0.0,0.0,0.0,0.0,0.0,0.0,0.0,0.0,0.0,0.0,0.0,0.0,0.0,0.0,0.0,0.0,0.0,0.0,0.0,0.0,0.0,0.0,0.0,0.0,0.0,0.0,0.0,0.0,0.0,0.0,0.0,0.0,0.0,0.0,0.0,0.0,0.0,0.0,0.0,0.0,0.0,0.0,0.0,0.0,0.0,0.0,0.0,0.0,0.0,0.0,0.0,0.0,0.457,0.5627,0.653,0.6738,0.6324,0.6324,0.5808,0.4673,0.4515,0.4328,0.0,0.0,0.0,0.0,0.0,0.0,0.0,0.0,0.0,0.0,0.0,0.0,0.0,0.0,0.0,0.0,0.0,0.0,0.0,0.0,0.0,0.0,0.0,0.0,0.0,0.0,0.0,0.0,0.5007,0.4755,0.4175,0.0,0.0,0.0,0.0,0.0,0.0,0.0,0.0,0.0,0.0,0.1751,0.1952,0.1844,0.1645,0.1275,0.1646,0.2213,0.2563,0.2487,0.2559,0.3011,0.0,0.0,0.0,0.0,0.0,0.0,0.0,0.0,0.0,0.0,0.0,0.0,0.0,0.0,0.0,0.0,0.0,0.0,0.0,0.0,0.0,0.0,0.0,0.0,0.0,0.0,0.0,0.0,0.0,0.0,0.4717,0.0,0.0,0.0,0.0,0.0,0.0,0.0,0.0,0.0,0.0,0.0,0.0,0.0,0.0,0.0,0.0,0.0,0.0,0.0,0.0,0.0,0.0,0.4471,0.5378,0.5943,0.6003,0.5649,0.5656,0.5306,0.4552,0.4471,0.4364,0.4061,0.0,0.0,0.0,0.0,0.0,0.0,0.0,0.0,0.0,0.0,0.0,0.0,0.0,0.0,0.0,0.0,0.0,0.0,0.0,0.0,0.0,0.0,0.0,0.0,0.0,0.0,0.4372,0.4017,0.3701,0.0,0.0,0.0,0.0,0.0,0.0,0.0,0.0,0.0,0.0,0.1101,0.078,0.0927,0.0935,0.0941,0.0851,0.0918,0.0891,0.101,0.0908,0.0787,0.0,0.0,0.0,0.0,0.0,0.0,0.0,0.0,0.0,0.0,0.0,0.0,0.0,0.0,0.0,0.0,0.0,0.0,0.0,0.0,0.0,0.0,0.0,0.0,0.0,0.0,0.0,0.7697,0.6924,0.0,0.0,0.0,0.0,0.0,0.0,0.0,0.0,0.0,0.0,0.0,0.778,0.7153,0.0,0.0,0.0,0.0,0.0,0.0,0.0,0.0,0.0,0.0,0.0,0.0,0.4037,0.4821,0.5367,0.5603,0.544,0.5444,0.5142,0.4541,0.4395,0.4251,0.4005,0.0,0.0,0.0,0.0,0.0,0.0,0.0,0.0,0.0,0.0,0.0,0.0,0.0,0.0,0.0,0.0,0.0,0.0,0.0,0.0,0.0,0.0,0.0,0.0,0.0,0.3965,0.0,0.0,0.0,0.0,0.0,0.0,0.0,0.0,0.0,0.0,0.0,0.1348,0.0809,0.058,0.0407,0.0311,0.0315,0.0318,0.0,0.0,0.0,0.0,0.0,0.0,0.0,0.0,0.0,0.0,0.0,0.0,0.0,0.0,0.2468,0.3019,0.3296,0.3527,0.3744,0.0,0.0,0.0,0.0,0.0,0.0,0.0,0.0,0.0,0.0,0.0,0.0,0.0,0.0,0.9376,0.0,0.8546,0.0,0.0,0.0,0.0,0.0,0.0,0.0,0.0,0.8237,0.8632,0.8677,0.7838,0.7405,0.0,0.5785,0.4612,0.0,0.0,0.0,0.0,0.0,0.0,0.0,0.0,0.3772,0.4423,0.4823,0.503,0.4959,0.503,0.4822,0.4409,0.4341,0.417,0.401,0.3896,0.3742,0.0,0.0,0.0,0.0,0.0,0.0,0.0,0.0,0.0,0.0,0.0,0.0,0.0,0.0,0.0,0.0,0.0,0.0,0.0,0.0,0.0,0.0,0.0,0.2607,0.0,0.0,0.0,0.0,0.0,0.0,0.0,0.0,0.0,0.1069,0.0921,0.0544,0.0,0.0,0.0103,-0.0104,0.0,0.0,0.0,0.0,0.0,0.0,0.0,0.0507,0.0417,0.0407,0.0398,0.05,0.0835,0.1392,0.2204,0.0,0.0,0.2502,0.2872,0.3151,0.3255,0.3425,0.3603,0.371,0.3931,0.4014,0.0,0.0,0.0,0.0,0.0,0.0,0.0,0.0,1.0714,1.0653,0.0,0.9999,0.0,0.0,0.0,0.0,0.0,0.7949,0.0,0.0,0.9419,0.9657,0.9098,0.8225,0.7617,0.7191,0.6009,0.5138,0.4687,0.3999,0.0,0.0,0.0,0.0,0.0,0.0,0.3767,0.4105,0.424,0.4303,0.4306,0.4303,0.4303,0.4303,0.4303,0.4177,0.4062,0.4061,0.3896,0.3489,0.3595,0.0,0.0,0.0,0.0,0.0,0.0,0.0,0.0,0.0,0.0,0.0,0.0,0.0,0.0,0.0,0.0,0.0,0.0,0.0,0.0,0.0676,0.0,0.0,0.0,0.0,0.0,0.0,0.0,0.0,0.0,0.0,-0.0085,-0.0179,-0.0573,-0.0822,0.0,0.0,0.0,0.0,0.0,0.0,0.0,0.0,0.0,0.0,0.0,0.0,0.0,0.0,0.0315,0.066,0.1017,0.1186,0.1353,0.1515,0.1803,0.239,0.3,0.3056,0.299,0.3045,0.3218,0.3442,0.3305,1.2583,0.0,0.0,0.0,0.0,1.228,1.2726,1.3347,1.338,1.2985,1.2171,1.1728,0.0,0.0,0.0,0.0,0.0,0.0,0.8918,0.9244,0.9777,1.0013,0.9922,0.862,0.7993,0.7747,0.6212,0.5356,0.5127,0.4801,0.4248,0.3591,0.0,0.0,0.0,0.0,0.3928,0.4113,0.4238,0.4303,0.4303,0.4303,0.4303,0.4303,0.3758,0.3471,0.3445,0.3354,0.3235,0.3137,0.3385,0.0,0.0,0.0,0.0,0.0,0.0,0.0,0.0,0.0,0.0,0.0,0.0,0.0,0.0,0.0,0.0,0.0,0.0,0.0,-0.0237,-0.0536,-0.0956,0.0,0.0,0.0,0.0,0.0,0.0,0.0,0.0,0.0,-0.3711,-0.2043,-0.0799,0.0,0.0,-0.0629,-0.0416,-0.0318,-0.0217,0.0,0.0,0.0,0.0,0.0,0.0,0.0,0.0,0.0114,0.0336,0.045,0.0677,0.1012,0.1257,0.139,0.151,0.1847,0.2197,0.2371,0.2257,0.2277,0.2477,0.2506,0.2389,1.4179,1.2793,1.3041,1.3437,1.3825,1.4124,1.4543,1.508,1.5071,1.4629,1.3827,1.3191,1.1999,1.047,0.9769,0.0,0.0,0.0,0.9697,1.002,1.0251,1.0134,0.977,0.8725,0.8013,0.7584,0.6162,0.5474,0.539,0.5115,0.4734,0.4314,0.0,0.0,0.3806,0.3901,0.4069,0.4189,0.4262,0.4167,0.3894,0.3558,0.3422,0.3355,0.295,0.2681,0.2546,0.2507,0.2388,0.2379,0.2604,0.2597,0.0,0.0,0.0,0.0,0.0,0.0,0.0,0.0,0.0,0.0,0.0,0.0928,0.082,0.0,0.0,0.0,-0.1418,-0.1922,-0.2223,-0.2629,0.0,0.0,0.0,0.0,0.0,0.0,0.0,-0.5609,-0.5376,-0.5203,-0.541,-0.3932,-0.2829,-0.2666,-0.256,-0.2444,-0.2224,0.0,-0.1973,-0.166,-0.1137,-0.0812,-0.0696,-0.0343,0.0,0.0,0.0,0.0,0.0228,0.0227,0.0341,0.0689,0.093,0.1058,0.1187,0.1554,0.1806,0.1954,0.1974,0.2003,0.2055,0.2068,0.2078,1.5353,1.5467,1.5167,1.5112,1.5311,1.5785,1.6001,1.6113,1.6011,1.5726,1.5349,1.4444,1.3331,1.2115,1.0975,0.0,1.043,1.039,1.0387,1.0571,1.0706,1.0116,0.9053,0.8679,0.7947,0.6921,0.5916,0.5482,0.5485,0.5122,0.4913,0.4993,0.4553,0.4296,0.4148,0.4153,0.4145,0.4244,0.4247,0.3835,0.3082,0.2414,0.2012,0.1811,0.1743,0.1607,0.1403,0.1403,0.1318,0.1215,0.1331,0.1366,0.1171,0.0,0.0,0.0,0.0,0.0,0.0,0.0,0.0,0.0,0.0,0.0,0.0,0.0,0.0,0.0,-0.3499,0.0,-0.4813,-0.5284,0.0,0.0,0.0,-0.6166,-0.6298,-0.6599,-0.6706,-0.6489,0.0,0.0,-0.6147,-0.6046,-0.6037,-0.5795,-0.5218,-0.4931,-0.4895,-0.4582,-0.4368,-0.3946,-0.3077,-0.223,-0.1995,-0.1056,0.0,0.0,0.0,0.0,0.0,0.0,0.0,0.0345,0.0471,0.0601,0.0964,0.1218,0.1473,0.1819,0.2001,0.2059,0.2069,0.2107,0.2141,1.703,1.712,1.7054,1.668,1.6177,1.6283,1.6457,1.6562,1.6519,1.6116,1.533,1.4556,1.3324,1.1772,1.0764,1.0543,1.0892,1.0411,1.0136,1.0056,1.0674,1.0153,0.8618,0.844,0.7912,0.6901,0.5838,0.5307,0.5307,0.5081,0.4944,0.4828,0.4764,0.4643,0.4537,0.4549,0.4211,0.3599,0.3599,0.315,0.2214,0.2012,0.1607,0.0868,0.0334,-0.0133,-0.0647,-0.0259,-0.0192,-0.0557,0.0298,0.0574,0.0055,-0.0189,0.0,0.0,0.0,0.0,0.0,0.0,0.0,0.0,0.0,-0.0378,-0.1017,0.0,-0.22,0.0,-0.5192,-0.6165,-0.625,-0.7555,0.0,0.0,-0.8904,-0.8946,-0.9647,-0.8448,-0.8005,-0.8886,-0.8473,-0.8269,-0.8941,-0.8665,-0.8553,-0.8478,-0.6654,-0.5172,-0.4916,-0.4847,-0.4684,-0.4516,-0.4038,-0.3756,-0.3523,-0.2469,-0.117,0.0,0.0,0.0,0.0,0.0,0.0,0.0115,0.0347,0.0469,0.06,0.0847,0.1096,0.1227,0.1626,0.2044,0.2088,0.2111,0.2127,1.7657,1.7852,1.7852,1.7581,1.7164,1.7174,1.7229,1.7229,1.6958,1.6269,1.5382,1.3998,1.2846,1.1832,1.0765,1.0479,1.0736,0.9946,0.949,0.9342,0.9761,0.9135,0.7846,0.7774,0.7242,0.6328,0.5631,0.5323,0.5323,0.5093,0.4825,0.4373,0.4373,0.4162,0.3756,0.4014,0.3896,0.3416,0.2742,0.1863,0.0939,0.0603,0.0,-0.092,-0.1659,-0.2031,-0.2015,-0.2035,-0.202,-0.1902,-0.1249,-0.0986,-0.1306,-0.1467,-0.163,0.0,0.0,0.0,0.0,0.0,0.0,0.0,0.0,0.0,0.0,0.0,-0.3712,-0.5676,-0.7194,-0.8279,-0.8846,-1.0084,-1.1016,-1.1324,-1.1149,-1.1038,-1.0905,-0.9992,-0.9462,-0.9839,-0.9526,-0.9489,-0.9968,-0.9926,-0.971,-0.9489,-0.8146,-0.7008,-0.6738,-0.6664,-0.6606,-0.6327,-0.5737,-0.5004,-0.4336,-0.3546,-0.2836,-0.1863,-0.1277,-0.0924,-0.0909,-0.034,0.0,0.0,0.0114,0.0232,0.0238,0.0601,0.0728,0.0861,0.1242,0.1638,0.1802,0.1829,0.1983,1.791,1.8008,1.8008,1.8008,1.8008,1.8008,1.8008,1.794,1.7226,1.6306,1.5163,1.317,1.2209,1.206,1.0815,1.0352,1.0409,0.9296,0.8694,0.8546,0.8385,0.7851,0.6934,0.6857,0.6402,0.5559,0.5323,0.5243,0.5243,0.5093,0.4621,0.3832,0.3832,0.3363,0.2577,0.2926,0.3147,0.3125,0.1625,0.0413,-0.0469,-0.1205,-0.2052,-0.2978,-0.3811,-0.3952,-0.3388,-0.389,-0.3952,-0.336,-0.3161,-0.3114,-0.3038,-0.3021,-0.3064,0.0,-0.3219,0.0,0.0,0.0,0.0,0.0,0.0,0.0,0.0,-0.4362,-0.5542,-0.7812,-0.9234,-1.0589,-1.1924,-1.2711,-1.3082,-1.3041,-1.3014,-1.2609,-1.1492,-1.126,-1.0959,-1.0163,-1.0129,-1.0092,-1.0075,-1.0237,-1.0006,-0.9592,-0.9379,-0.904,-0.8933,-0.8823,-0.8605,-0.8598,-0.7696,-0.645,-0.5033,-0.4639,-0.4538,-0.3889,-0.3061,-0.2345,-0.2193,-0.1382,0.0,0.0,-0.0342,-0.0231,0.0,0.0238,0.0483,0.049,0.0617,0.0994,0.1388,0.1544,0.1572,1.8241,1.8008,1.8008,1.8008,1.8008,1.8008,1.8008,1.794,1.7226,1.5956,1.4258,1.3194,1.259,1.2145,1.0502,1.0077,1.0409,0.8604,0.7693,0.7472,0.7927,0.7238,0.578,0.6314,0.6086,0.5171,0.5093,0.5093,0.5093,0.5018,0.4621,0.3832,0.3832,0.3363,0.2503,0.0,0.0,0.0,0.0139,-0.0877,-0.1341,-0.2604,-0.3723,-0.476,-0.5321,0.0,-0.5996,-0.5699,-0.564,-0.5827,-0.5616,0.0,0.0,0.0,0.0,0.0,0.0,0.0,0.0,0.0,0.0,0.0,-0.5963,-0.6104,-0.5506,-0.6864,-0.8349,-0.9803,-1.132,-1.2629,-1.3538,-1.4823,-1.542,-1.5219,-1.4709,-1.4106,-1.364,-1.2221,-1.1157,-1.1162,-1.042,-1.0063,-1.0257,-1.0138,-1.0097,-1.0116,-0.9926,-0.9599,-0.9379,-0.9047,-0.8937,-0.8833,-0.8492,-0.7712,-0.6201,-0.618,-0.5848,-0.4604,-0.4158,-0.3804,-0.3636,-0.3389,-0.2675,-0.1834,-0.1604,-0.1264,-0.0347,0.0,0.0,0.0121,0.0122,0.0372,0.1007,0.1142,0.1278,1.8828,0.0,1.8408,1.832,0.0,1.8096,1.7725,1.7276,1.6585,1.5242,1.347,1.2893,1.2526,1.2224,1.0271,0.9588,0.9658,0.7613,0.6626,0.6402,0.6626,0.6244,0.5318,0.5628,0.5476,0.5018,0.5018,0.4781,0.4384,0.4384,0.3756,0.2582,0.2582,0.1955,0.0625,-0.0155,-0.0378,0.0073,-0.077,-0.1834,-0.3141,-0.3934,-0.496,-0.6189,0.0,0.0,0.0,0.0,0.0,0.0,0.0,0.0,0.0,0.0,0.0,-0.737,-0.7645,-0.7626,-0.7412,-0.7756,-0.7945,-0.7887,-0.8636,-0.869,-0.7464,-0.895,-1.0418,-1.1548,-1.3021,-1.4379,-1.5383,-1.6253,-1.6636,-1.6271,-1.5826,-1.5337,-1.4388,-1.3414,-1.2386,-1.142,-1.0929,-1.0569,-1.024,-1.0225,-1.013,-1.0116,-1.0093,-0.9926,-0.9596,-0.9379,-0.9161,-0.8944,-0.8947,-0.8606,-0.7758,-0.7638,-0.7493,-0.6532,-0.5856,-0.5504,-0.5347,-0.4866,-0.4136,-0.3377,-0.3115,-0.2758,-0.2087,-0.1861,-0.1752,-0.1779,-0.1798,-0.1695,-0.1352,-0.025,0.0886,1.9355,1.9258,1.8906,1.864,1.8533,1.8123,1.7292,1.621,0.0,0.0,0.0,1.2526,1.2298,1.2077,1.0201,0.9216,0.8903,0.6934,0.5867,0.5556,0.5476,0.5318,0.5243,0.5093,0.494,0.4779,0.4781,0.4384,0.3597,0.3597,0.2817,0.141,0.1332,0.047,-0.1251,-0.2214,-0.239,-0.1757,-0.1844,-0.2884,-0.4935,-0.5522,-0.6379,-0.7568,-0.846,-0.8538,-0.7784,-0.8321,-0.8276,-0.7665,-0.7607,-0.7638,-0.7804,-0.8115,-0.8451,-0.8798,-0.9103,-0.9417,-0.9595,-0.9907,-1.0104,-1.0233,-1.1004,-1.0947,-0.9596,-1.0808,-1.2089,-1.3261,-1.4469,-1.5661,-1.6839,-1.7165,-1.7145,-1.6676,-1.6581,-1.6015,-1.4873,-1.4394,-1.3522,-1.1873,-1.1425,-1.1052,-1.0103,-1.014,-1.0261,-1.0107,-1.0225,-1.0229,-0.9919,-0.9599,-0.9375,-0.9168,-0.9143,-0.911,-0.8907,-0.8784,-0.892,-0.841,-0.7644,-0.7204,-0.7083,-0.6375,-0.551,-0.4963,-0.4777,-0.442,-0.3982,-0.3609,-0.359,-0.3635,-0.3644,-0.3656,-0.3588,-0.1961,-0.025,1.9619,1.9277,1.9219,1.8975,1.8562,1.7859,1.6554,1.4887,1.4466,1.3608,1.268,1.2599,1.2378,1.1935,1.0126,0.9221,0.8922,0.7249,0.6177,0.5637,0.5712,0.5553,0.5015,0.5018,0.4623,0.399,0.3988,0.3519,0.2737,0.2659,0.2192,0.141,0.1332,0.0392,-0.1251,-0.2819,-0.3751,-0.4259,-0.4275,-0.4727,-0.5727,-0.7608,-0.8762,-0.9174,-1.0179,-1.071,-1.0492,-1.006,-0.9879,-0.9913,-0.9824,-0.9728,-0.9717,-1.0145,-1.0478,-1.0507,-1.0731,-1.0798,-1.0575,-1.076,-1.1194,-1.1762,-1.2206,-1.2356,-1.1934,-1.2504,-1.3561,-1.4878,-1.5436,-1.6139,-1.7123,-1.7296,-1.7239,-1.6972,-1.6683,-1.64,-1.5838,-1.4968,-1.3902,-1.2533,-1.1678,-1.0902,-1.0054,-0.9941,-1.0207,-1.0241,-1.0345,-1.0313,-1.0221,-0.9926,-0.9706,-0.9706,-0.9503,-0.9411,-0.922,-0.9202,-0.9081,-0.8755,-0.8731,-0.8494,-0.8269,-0.8231,-0.7643,-0.6715,-0.6312,-0.5696,-0.4715,-0.3991,-0.41,-0.4114,-0.3993,-0.388,-0.3894,-0.3356,-0.2675,2.0156,1.9961,1.9727,1.9512,1.9141,1.7442,1.6096,1.4974,1.3897,1.3178,1.2746,1.268,1.2378,1.1929,1.0571,0.9669,0.9074,0.7859,0.6942,0.6328,0.6018,0.555,0.4851,0.4538,0.391,0.3127,0.3127,0.2659,0.1879,0.1879,0.141,0.0628,-0.0313,-0.1407,-0.2653,-0.4315,-0.5992,-0.7449,-0.6183,-0.6252,-0.7712,-0.8781,-0.9742,-1.0564,-1.1117,-1.1297,-1.1297,-1.1052,-1.1076,-1.1505,-1.103,-1.0863,-1.1293,-1.1292,-1.1325,-1.1427,-1.1673,-1.1742,-1.1728,-1.223,-1.2769,-1.3391,-1.3734,-1.3917,-1.4027,-1.4216,-1.4694,-1.5397,-1.6085,-1.6786,-1.7217,-1.7333,-1.7145,-1.6784,-1.6683,-1.64,-1.6021,-1.554,-1.4484,-1.3022,-1.2834,-1.2098,-1.0033,-1.0327,-1.0531,-1.0231,-1.0286,-1.0385,-1.0554,-1.0363,-1.0143,-0.9816,-0.9702,-0.9599,-0.9493,-0.9321,-0.9174,-0.9024,-0.9036,-0.9149,-0.8994,-0.9129,-0.8938,-0.8298,-0.792,-0.766,-0.6773,-0.6373,-0.6113,-0.61,-0.5822,-0.57,-0.5625,-0.5198,-0.4305,2.0712,2.0827,2.05,2.0151,1.9749,1.7604,1.6216,1.5392,1.4084,1.3323,1.298,1.2673,1.2372,1.1855,1.0938,1.004,0.9221,0.8389,0.7553,0.6707,0.6325,0.5544,0.453,0.3828,0.3047,0.2268,0.2034,0.1643,0.1097,0.1019,0.0627,-0.0157,-0.1722,-0.2968,-0.382,-0.606,-0.8054,-0.9717,-0.8589,-0.8544,-0.9808,-1.0135,-1.0764,-1.164,-1.1888,-1.1981,-1.2056,-1.1939,-1.2168,-1.2687,-1.2123,-1.1949,-1.2387,-1.222,-1.2036,-1.2056,-1.2244,-1.2479,-1.279,-1.345,-1.4016,-1.456,-1.4851,-1.5167,-1.5347,-1.5511,-1.5506,-1.5714,-1.667,-1.7318,-1.7333,-1.7333,-1.7145,-1.677,-1.6683,-1.6494,-1.6015,-1.5927,-1.5153,-1.3505,-1.3811,-1.3227,-1.1212,-1.0924,-1.0934,-1.0132,-1.0172,-1.0432,-1.0595,-1.0635,-1.0425,-1.0135,-0.9923,-0.9816,-0.9599,-0.9493,-0.9321,-0.9205,-0.9253,-0.9218,-0.9327,-0.9456,-0.9449,-0.9107,-0.9123,-0.89,-0.8794,-0.8352,-0.8046,-0.7911,-0.7481,-0.7314,-0.7309,-0.6624,-0.5576,2.1011,2.1603,2.1628,2.0984,1.9889,1.8722,1.7267,1.5683,1.5389,1.4471,1.3127,1.2746,1.2231,1.1632,1.0864,1.0115,0.9296,0.8851,0.7778,0.6472,0.663,0.5774,0.3908,0.2966,0.2188,0.133,0.0625,0.0235,0.0078,0.0157,0.0,-0.0471,-0.1958,-0.3279,-0.4513,-0.7339,-0.9461,-1.0496,-1.207,-1.2473,-1.1645,-1.2372,-1.2649,-1.2389,-1.3017,-1.349,-1.3765,-1.3259,-1.3292,-1.3901,-1.3596,-1.3224,-1.302,-1.3164,-1.2976,-1.2325,-1.2439,-1.2783,-1.3216,-1.3838,-1.4238,-1.4581,-1.5039,-1.5379,-1.5438,-1.5675,-1.5995,-1.6389,-1.6945,-1.7289,-1.7333,-1.7333,-1.7239,-1.7145,-1.6864,-1.6588,-1.6494,-1.6116,-1.535,-1.4292,-1.4298,-1.3811,-1.2446,-1.1697,-1.0897,-1.007,-1.005,-1.0253,-1.042,-1.0456,-1.0505,-1.0518,-1.0355,-1.0253,-1.0147,-0.9706,-0.9503,-0.9418,-0.9293,-0.925,-0.9312,-0.9415,-0.9432,-0.9379,-0.9344,-0.9139,-0.9099,-0.8966,-0.8631,-0.8613,-0.8304,-0.7886,-0.7765,-0.7541,-0.6812,2.2209,2.2499,2.251,2.185,2.0757,1.9389,1.7915,1.6401,1.5806,1.4421,1.2599,1.2224,1.1929,1.1706,1.1323,1.0657,0.9685,0.9463,0.8623,0.7165,0.6388,0.4825,0.2882,0.1482,0.0234,-0.086,-0.0939,-0.094,-0.0863,-0.0549,-0.0393,-0.0706,-0.2578,-0.4126,-0.5274,-0.8472,-1.0965,-1.257,-1.3915,-1.4676,-1.4744,-1.4534,-1.4545,-1.4738,-1.48,-1.4953,-1.5051,-1.4611,-1.4655,-1.5216,-1.4697,-1.425,-1.3955,-1.3678,-1.3171,-1.2526,-1.2746,-1.3107,-1.3499,-1.4043,-1.4525,-1.4757,-1.5158,-1.5431,-1.5445,-1.5723,-1.629,-1.7216,-1.7229,-1.7113,-1.7296,-1.7333,-1.7246,-1.7153,-1.6972,-1.6784,-1.6588,-1.6305,-1.5642,-1.4765,-1.4962,-1.4573,-1.3022,-1.1853,-1.0874,-1.0142,-0.9961,-1.0067,-1.0237,-1.0274,-1.0302,-1.0371,-1.0357,-1.0369,-1.0335,-1.0147,-0.982,-0.961,-0.9429,-0.936,-0.9276,-0.9264,-0.9273,-0.9337,-0.9298,-0.9284,-0.9417,-0.9184,-0.8897,-0.8926,-0.8659,-0.8334,-0.7954,-0.7828,-0.7442,2.3243,2.3401,2.3243,2.2665,2.1839,2.0371,1.8761,1.7251,1.6456,1.4638,1.2137,1.1848,1.1477,1.1099,1.1025,1.0351,0.9382,0.9226,0.8537,0.7242,0.5761,0.4046,0.1945,0.0156,-0.1328,-0.2347,-0.2425,-0.227,-0.2035,-0.1568,-0.1333,-0.1722,-0.3812,-0.5496,-0.6714,-0.9952,-1.2708,-1.4585,-1.5826,-1.6825,-1.7358,-1.7019,-1.6674,-1.6446,-1.6192,-1.6066,-1.6049,-1.5798,-1.5858,-1.6179,-1.5634,-1.5255,-1.4942,-1.425,-1.3462,-1.282,-1.3185,-1.3557,-1.3802,-1.4429,-1.4982,-1.5225,-1.5799,-1.6072,-1.6035,-1.6293,-1.7032,-1.8124,-1.7969,-1.7838,-1.7995,-1.7785,-1.7613,-1.7535,-1.7347,-1.7059,-1.6958,-1.6588,-1.6015,-1.5432,-1.5724,-1.5343,-1.3601,-1.2441,-1.1428,-1.0567,-1.0008,-0.988,-1.0038,-1.0087,-1.0103,-1.0152,-1.0282,-1.0313,-1.0369,-1.0233,-1.0135,-1.0036,-0.9717,-0.9503,-0.9379,-0.9266,-0.9246,-0.9332,-0.9273,-0.9367,-0.9396,-0.9318,-0.9158,-0.9258,-0.9001,-0.8662,-0.8158,-0.8104,-0.798,2.3745,2.448,2.3818,2.343,2.3261,2.1845,2.0019,1.7777,1.7528,1.5544,1.2452,1.1768,1.0801,0.9442,0.921,0.868,0.8008,0.777,0.708,0.6012,0.5076,0.3509,0.1325,-0.0623,-0.2029,-0.3129,-0.3826,-0.3824,-0.3124,-0.3044,-0.3124,-0.3511,-0.594,-0.753,-0.8881,-1.2276,-1.4844,-1.6321,-1.8016,-1.9069,-1.9257,-1.9857,-1.8998,-1.7133,-1.6762,-1.6796,-1.6713,-1.6703,-1.6691,-1.6558,-1.648,-1.6228,-1.5692,-1.4966,-1.4042,-1.3185,-1.3775,-1.4217,-1.4276,-1.5118,-1.5825,-1.6237,-1.7152,-1.7674,-1.7277,-1.7716,-1.8266,-1.876,-1.929,-1.954,-1.9726,-1.9055,-1.8635,-1.855,-1.8071,-1.7692,-1.7598,-1.7044,-1.6683,-1.6487,-1.6487,-1.5906,-1.4663,-1.3692,-1.2441,-1.1301,-1.0229,-0.9709,-0.9851,-0.9896,-0.9961,-1.0075,-1.016,-1.0237,-1.0305,-1.0341,-1.0327,-1.0233,-0.9998,-0.9706,-0.9489,-0.94,-0.9367,-0.9314,-0.9246,-0.9339,-0.9364,-0.9382,-0.939,-0.9359,-0.9287,-0.8998,-0.8612,-0.8444,-0.8308,2.5158,2.5312,2.4036,2.3672,2.3722,2.1988,2.0093,1.8267,1.7369,1.4975,1.2009,1.0938,0.9593,0.794,0.7625,0.7625,0.7783,0.7617,0.6619,0.5076,0.3583,0.1476,-0.1164,-0.3188,-0.4518,-0.5151,-0.53,-0.4982,-0.4511,-0.5334,-0.6076,-0.6881,-0.9374,-1.0919,-1.1814,-1.4907,-1.7088,-1.761,-1.9138,-1.9987,-2.0074,-2.002,-1.9447,-1.8653,-1.8092,-1.7711,-1.7224,-1.702,-1.6812,-1.6821,-1.683,-1.6482,-1.5833,-1.5267,-1.4903,-1.4705,-1.525,-1.5691,-1.5904,-1.6486,-1.6991,-1.7342,-1.7823,-1.8221,-1.806,-1.831,-1.8914,-1.9889,-2.0171,-2.0562,-2.1277,-2.0462,-1.9271,-1.8819,-1.8542,-1.845,-1.835,-1.7971,-1.7598,-1.7326,-1.6951,-1.6103,-1.5229,-1.4184,-1.3022,-1.1663,-1.0694,-1.0151,-0.9797,-0.9721,-0.9762,-0.9819,-0.9916,-1.001,-1.0059,-1.0245,-1.0317,-1.0349,-1.0155,-1.0112,-0.9919,-0.9706,-0.9661,-0.9561,-0.9478,-0.9321,-0.9471,-0.9364,-0.9396,-0.9513,-0.9447,-0.9239,-0.9079,-0.8812,-0.8584,2.6176,2.5886,2.4552,2.3944,2.3856,2.188,2.0002,1.8218,1.6718,1.4344,1.1545,0.9954,0.8533,0.7176,0.6247,0.6163,0.6696,0.6217,0.5129,0.3509,0.1711,-0.0466,-0.2868,-0.5041,-0.6521,-0.7375,-0.758,-0.7335,-0.7167,-0.8468,-0.9326,-0.9889,-1.2904,-1.4343,-1.4678,-1.7494,-1.9219,-1.9348,-2.0062,-2.0696,-2.0782,-2.0139,-1.9573,-1.9187,-1.8643,-1.8104,-1.7657,-1.7382,-1.7107,-1.6978,-1.6908,-1.6551,-1.5912,-1.5903,-1.5762,-1.5638,-1.6191,-1.6645,-1.6966,-1.7497,-1.8002,-1.8497,-1.8957,-1.9186,-1.9107,-1.9335,-2.0103,-2.0813,-2.1318,-2.1845,-2.2272,-2.172,-2.0701,-1.982,-1.9463,-1.9279,-1.9096,-1.8727,-1.835,-1.8071,-1.752,-1.6763,-1.5988,-1.5038,-1.3884,-1.2533,-1.1575,-1.0792,-1.0015,-0.9821,-0.9727,-0.9636,-0.973,-0.9791,-0.9855,-1.0067,-1.018,-1.0237,-1.0373,-1.0357,-1.0206,-1.0002,-0.9919,-0.9812,-0.9625,-0.9464,-0.9448,-0.9346,-0.9476,-0.95,-0.9419,-0.9321,-0.9161,-0.8988,-0.8751,2.6658,2.6427,2.5205,2.4402,2.3793,2.1645,1.9647,1.7747,1.5934,1.3726,1.123,0.912,0.777,0.6788,0.5079,0.4375,0.4288,0.3186,0.2175,0.1246,-0.0467,-0.2251,-0.4103,-0.6249,-0.8005,-0.9386,-1.0421,-1.0929,-1.0905,-1.213,-1.2878,-1.362,-1.6358,-1.7688,-1.7207,-1.9854,-2.1214,-2.1221,-2.1215,-2.1302,-2.1428,-2.0537,-1.9497,-1.8633,-1.8162,-1.7901,-1.791,-1.7901,-1.7501,-1.6968,-1.6908,-1.6621,-1.6324,-1.6821,-1.6899,-1.6035,-1.6482,-1.6857,-1.7112,-1.797,-1.8844,-1.9453,-2.0537,-2.0799,-2.0557,-2.0954,-2.1336,-2.155,-2.2251,-2.2982,-2.2918,-2.308,-2.2648,-2.1535,-2.0727,-2.0275,-1.9646,-1.9096,-1.8827,-1.8727,-1.8357,-1.7986,-1.7404,-1.6358,-1.5032,-1.3986,-1.292,-1.1955,-1.0988,-1.06,-1.0216,-0.992,-0.9751,-0.9685,-0.9721,-0.9778,-0.9953,-1.0115,-1.0302,-1.0333,-1.0297,-1.012,-1.0096,-1.0006,-0.9812,-0.9654,-0.9367,-0.9373,-0.9332,-0.9439,-0.9351,-0.9288,-0.9255,-0.9087,-0.8753,2.6726,2.6526,2.4879,2.4224,2.3826,2.1047,1.9021,1.775,1.5314,1.2966,1.084,0.8666,0.7003,0.569,0.4133,0.2649,0.1322,-0.0696,-0.1313,-0.0853,-0.2551,-0.4783,-0.6931,-0.8985,-1.0638,-1.1819,-1.2601,-1.3287,-1.3892,-1.5236,-1.651,-1.7965,-1.9819,-2.0904,-2.109,-2.2492,-2.3085,-2.2651,-2.2372,-2.1951,-2.1393,-2.0246,-1.9212,-1.823,-1.7569,-1.7245,-1.7235,-1.7235,-1.7176,-1.6908,-1.6908,-1.6908,-1.7107,-1.7451,-1.751,-1.7332,-1.7716,-1.8136,-1.8381,-1.9072,-1.9785,-2.0269,-2.0928,-2.1328,-2.1272,-2.1502,-2.1717,-2.1737,-2.236,-2.2814,-2.3104,-2.3472,-2.3071,-2.1587,-2.1266,-2.0898,-2.0102,-1.9637,-1.9371,-1.9279,-1.8912,-1.845,-1.7986,-1.6936,-1.6075,-1.5032,-1.4166,-1.3301,-1.2624,-1.176,-1.1277,-1.0984,-1.0404,-0.9817,-0.9958,-1.0082,-1.0171,-1.0234,-1.0203,-1.0257,-1.0237,-1.023,-1.0217,-1.0202,-1.001,-0.9835,-0.9443,-0.9381,-0.9339,-0.9277,-0.9325,-0.9283,-0.9248,-0.9059,-0.8851,2.6803,2.6438,2.5173,2.4309,2.3589,2.0934,1.9032,1.7446,1.4768,1.243,1.0215,0.7584,0.5752,0.4358,0.2413,0.0699,-0.1007,-0.3844,-0.4828,-0.4447,-0.5825,-0.7819,-0.9878,-1.2297,-1.4253,-1.5303,-1.5843,-1.6282,-1.6966,-1.8446,-1.9823,-2.1175,-2.2742,-2.3599,-2.3787,-2.4226,-2.4195,-2.3526,-2.275,-2.1951,-2.0951,-1.9792,-1.8757,-1.8027,-1.7304,-1.6908,-1.6908,-1.6978,-1.7047,-1.7038,-1.7047,-1.7254,-1.752,-1.7638,-1.7784,-1.7988,-1.8311,-1.8586,-1.8943,-1.963,-2.0296,-2.0626,-2.1237,-2.1568,-2.1655,-2.1807,-2.1959,-2.1869,-2.2397,-2.2772,-2.2946,-2.3536,-2.3203,-2.207,-2.1887,-2.1338,-2.0555,-2.0019,-1.992,-1.9729,-1.9371,-1.892,-1.8357,-1.7792,-1.6929,-1.5886,-1.5317,-1.4651,-1.3974,-1.3102,-1.2721,-1.2334,-1.1853,-1.1272,-1.0498,-1.0408,-1.031,-1.0245,-1.0196,-1.0133,-1.014,-1.0152,-1.0257,-1.0205,-1.0058,-1.0025,-0.9747,-0.9629,-0.9557,-0.9489,-0.9311,-0.9222,-0.9167,-0.9141,-0.8948,2.6972,2.6375,2.5919,2.4676,2.3103,2.1515,1.9557,1.7129,1.4514,1.2025,0.9425,0.6176,0.3956,0.2482,-0.0155,-0.1939,-0.3076,-0.6249,-0.8579,-0.9622,-1.076,-1.182,-1.2927,-1.5601,-1.7639,-1.8955,-1.9424,-1.991,-2.0396,-2.1443,-2.2648,-2.3392,-2.4786,-2.5646,-2.5217,-2.5231,-2.4724,-2.3846,-2.2677,-2.1616,-2.0707,-1.9354,-1.8365,-1.8037,-1.7295,-1.6908,-1.6968,-1.7245,-1.7304,-1.7235,-1.7382,-1.7529,-1.7647,-1.7716,-1.7852,-1.8076,-1.8212,-1.8487,-1.9004,-1.9717,-2.0359,-2.0706,-2.1326,-2.1807,-2.1883,-2.2035,-2.2101,-2.198,-2.2468,-2.2829,-2.2745,-2.3267,-2.3347,-2.2938,-2.2485,-2.1765,-2.0736,-2.0473,-2.0374,-2.0283,-1.992,-1.9371,-1.8827,-1.8265,-1.7512,-1.6662,-1.619,-1.571,-1.5032,-1.4453,-1.4166,-1.368,-1.3199,-1.2522,-1.1755,-1.157,-1.1473,-1.1325,-1.116,-1.0965,-1.0604,-1.0634,-1.0682,-1.0527,-1.0325,-1.0194,-1.0036,-0.9926,-0.9706,-0.9525,-0.9421,-0.9275,-0.9106,-0.91,-0.9037,2.6972,2.6492,2.5631,2.4728,2.3604,2.1655,1.9977,1.8265,1.492,1.1774,0.8575,0.4909,0.1697,-0.1002,-0.3245,-0.5313,-0.7463,-1.0121,-1.226,-1.4002,-1.604,-1.6701,-1.7109,-1.8644,-2.0059,-2.0877,-2.1675,-2.2468,-2.2971,-2.3385,-2.4165,-2.5301,-2.5755,-2.6068,-2.5946,-2.5563,-2.5077,-2.4408,-2.2992,-2.1951,-2.1141,-1.9738,-1.8566,-1.7969,-1.7373,-1.7038,-1.7235,-1.7969,-1.8046,-1.7451,-1.7579,-1.7638,-1.7842,-1.8046,-1.8259,-1.8269,-1.8405,-1.8569,-1.8968,-1.9666,-2.0268,-2.0514,-2.1298,-2.1949,-2.2176,-2.2035,-2.2101,-2.2122,-2.2248,-2.2293,-2.249,-2.3029,-2.3267,-2.3302,-2.2863,-2.2306,-2.1774,-2.1436,-2.1087,-2.0997,-2.0275,-1.9455,-1.8912,-1.8365,-1.7807,-1.7145,-1.6951,-1.6857,-1.6089,-1.5602,-1.5121,-1.4638,-1.4154,-1.3578,-1.3006,-1.2823,-1.2635,-1.2543,-1.2428,-1.2314,-1.2003,-1.1782,-1.1671,-1.1553,-1.0881,-1.0538,-1.0307,-1.0253,-0.9923,-0.9706,-0.9599,-0.9489,-0.9268,-0.922,-0.9011,2.7781,2.6881,2.6243,2.5189,2.3735,2.2223,2.0617,1.8624,1.5428,1.1533,0.752,0.3581,-0.0306,-0.4144,-0.6572,-0.8886,-1.1247,-1.3689,-1.567,-1.7389,-1.9812,-2.0642,-2.0665,-2.1304,-2.2055,-2.2912,-2.3586,-2.4249,-2.4799,-2.4968,-2.5604,-2.6308,-2.6563,-2.663,-2.6669,-2.5906,-2.5287,-2.4711,-2.3518,-2.2384,-2.1255,-2.0375,-1.9475,-1.869,-1.8162,-1.8094,-1.8355,-1.888,-1.8957,-1.8633,-1.869,-1.8757,-1.8824,-1.91,-1.911,-1.8921,-1.8998,-1.9008,-1.8971,-1.9715,-2.0257,-2.0514,-2.128,-2.1941,-2.2327,-2.2338,-2.2402,-2.2338,-2.2327,-2.2237,-2.232,-2.2791,-2.331,-2.3568,-2.3451,-2.3008,-2.2482,-2.205,-2.1882,-2.1526,-2.0808,-1.982,-1.9271,-1.8635,-1.7893,-1.7426,-1.7239,-1.7239,-1.7044,-1.656,-1.6075,-1.569,-1.5501,-1.5019,-1.4536,-1.4166,-1.389,-1.3794,-1.3817,-1.3699,-1.304,-1.2661,-1.2501,-1.2166,-1.148,-1.0975,-1.0845,-1.0619,-1.0363,-1.0147,-0.9926,-0.971,-0.9489,-0.9268,-0.9158,2.8711,2.7273,2.7204,2.577,2.37,2.3002,2.146,1.8868,1.5885,1.1514,0.6489,0.2037,-0.272,-0.7159,-1.0204,-1.2628,-1.4665,-1.6929,-1.8702,-2.0551,-2.2383,-2.3306,-2.3141,-2.3272,-2.3942,-2.4896,-2.5273,-2.5714,-2.6108,-2.6269,-2.6616,-2.7011,-2.7115,-2.7181,-2.6945,-2.6108,-2.5481,-2.4966,-2.3989,-2.2798,-2.1756,-2.1244,-2.0673,-1.9792,-1.9344,-1.952,-1.9846,-2.0106,-2.0171,-2.0353,-2.0322,-2.0128,-2.0204,-2.0462,-2.0268,-1.9879,-1.9835,-1.9649,-1.9266,-2.0031,-2.0492,-2.0709,-2.1354,-2.209,-2.2553,-2.2777,-2.2777,-2.2703,-2.2777,-2.2477,-2.223,-2.2677,-2.3298,-2.3669,-2.4091,-2.372,-2.3008,-2.257,-2.2482,-2.2394,-2.1427,-2.0619,-1.9894,-1.898,-1.8071,-1.7878,-1.7606,-1.7333,-1.7333,-1.7044,-1.685,-1.685,-1.6749,-1.6648,-1.6075,-1.5501,-1.5229,-1.4956,-1.5153,-1.5006,-1.396,-1.3532,-1.3336,-1.2989,-1.2372,-1.1921,-1.1636,-1.1224,-1.0812,-1.0335,-1.01,-0.9904,-0.971,-0.9599,-0.9379,2.7878,2.7284,2.6704,2.5855,2.4738,2.3813,2.2188,1.9814,1.6301,1.143,0.5672,-0.0295,-0.5918,-1.1181,-1.4148,-1.6901,-1.8749,-2.0272,-2.1849,-2.3573,-2.4045,-2.4896,-2.5176,-2.5356,-2.5591,-2.6068,-2.6616,-2.6945,-2.7049,-2.71,-2.7218,-2.7335,-2.7335,-2.7181,-2.6841,-2.6283,-2.5522,-2.4951,-2.4221,-2.3682,-2.3097,-2.2493,-2.1882,-2.1032,-2.0353,-2.0417,-2.1232,-2.1608,-2.2286,-2.2603,-2.1557,-2.0696,-2.0643,-2.0771,-2.0835,-2.0707,-2.0719,-2.0549,-2.0139,-2.0676,-2.1129,-2.1062,-2.1891,-2.2553,-2.3224,-2.3139,-2.3213,-2.315,-2.2863,-2.2616,-2.2299,-2.248,-2.3008,-2.3598,-2.3939,-2.4093,-2.3912,-2.357,-2.3309,-2.3047,-2.2236,-2.1338,-2.0979,-1.9695,-1.8872,-1.8519,-1.7971,-1.7419,-1.7426,-1.7419,-1.7419,-1.7419,-1.7232,-1.7037,-1.685,-1.6278,-1.6096,-1.5818,-1.6015,-1.6028,-1.4987,-1.4437,-1.4273,-1.3906,-1.3347,-1.2918,-1.2476,-1.1815,-1.1425,-1.0845,-1.0369,-1.0186,-0.9991,-0.9786,-0.9596,2.8144,2.7279,2.684,2.5897,2.4607,2.3458,2.1856,1.9479,1.5943,1.0497,0.4014,-0.2045,-0.8045,-1.4164,-1.7553,-2.0131,-2.1655,-2.3094,-2.4169,-2.5162,-2.5591,-2.6162,-2.6534,-2.6901,-2.7056,-2.7108,-2.7444,-2.771,-2.7745,-2.7745,-2.7695,-2.7488,-2.7488,-2.7423,-2.71,-2.6534,-2.6229,-2.5892,-2.5259,-2.4741,-2.4284,-2.3942,-2.339,-2.2772,-2.2103,-2.2213,-2.2917,-2.3097,-2.3657,-2.3833,-2.3132,-2.2213,-2.1992,-2.2127,-2.2077,-2.1655,-2.1604,-2.1428,-2.1213,-2.1664,-2.2195,-2.2,-2.2905,-2.3682,-2.4215,-2.4204,-2.3998,-2.3852,-2.3434,-2.2875,-2.2303,-2.2428,-2.2801,-2.3132,-2.3629,-2.396,-2.4114,-2.4063,-2.3937,-2.3754,-2.294,-2.2217,-2.1498,-2.0584,-1.9869,-1.9513,-1.933,-1.878,-1.8156,-1.8156,-1.7692,-1.7598,-1.7419,-1.7239,-1.7239,-1.6958,-1.6777,-1.6494,-1.6393,-1.6312,-1.575,-1.5382,-1.5217,-1.4758,-1.4288,-1.3916,-1.35,-1.2766,-1.1968,-1.1388,-1.0822,-1.0505,-1.0151,-1.0066,-0.9889,2.8625,2.7248,2.7013,2.5811,2.3982,2.2774,2.106,1.874,1.4955,0.9005,0.1955,-0.3549,-1.0393,-1.623,-2.0611,-2.2711,-2.4046,-2.5204,-2.6275,-2.6265,-2.699,-2.7188,-2.7357,-2.7745,-2.811,-2.8271,-2.8271,-2.8304,-2.8352,-2.8352,-2.8076,-2.776,-2.7625,-2.7575,-2.7524,-2.7188,-2.6797,-2.6692,-2.6293,-2.5741,-2.5259,-2.512,-2.4854,-2.4182,-2.382,-2.3936,-2.4253,-2.4425,-2.461,-2.4811,-2.498,-2.4697,-2.431,-2.3989,-2.3767,-2.2725,-2.2677,-2.2237,-2.1981,-2.2563,-2.3211,-2.3234,-2.4154,-2.4897,-2.5193,-2.5276,-2.5063,-2.4707,-2.4215,-2.3475,-2.2273,-2.2603,-2.2734,-2.2793,-2.3338,-2.3815,-2.3929,-2.4229,-2.4289,-2.4282,-2.3744,-2.3115,-2.2482,-2.1676,-2.1042,-2.0503,-2.0322,-2.0051,-1.9422,-1.8972,-1.8603,-1.8234,-1.8149,-1.7512,-1.7333,-1.7333,-1.7059,-1.6878,-1.6777,-1.6595,-1.6319,-1.6035,-1.5668,-1.5504,-1.5133,-1.4759,-1.4179,-1.3445,-1.2746,-1.1986,-1.1272,-1.0877,-1.0556,-1.0325,-1.0043,2.7727,2.7062,2.6343,2.5147,2.369,2.2457,2.0362,1.76,1.3064,0.7418,0.0503,-0.6941,-1.3619,-1.9241,-2.355,-2.5948,-2.6931,-2.756,-2.7689,-2.757,-2.8061,-2.8091,-2.776,-2.8367,-2.8795,-2.8889,-2.8966,-2.9012,-2.8889,-2.8654,-2.8496,-2.8207,-2.791,-2.7825,-2.766,-2.724,-2.7071,-2.7159,-2.6886,-2.6467,-2.6162,-2.6,-2.5783,-2.5063,-2.4697,-2.4824,-2.5175,-2.5342,-2.5632,-2.6122,-2.6472,-2.6244,-2.5605,-2.4838,-2.4279,-2.393,-2.359,-2.316,-2.2861,-2.3384,-2.3712,-2.3905,-2.465,-2.5414,-2.5697,-2.5849,-2.5779,-2.5499,-2.4992,-2.4264,-2.3147,-2.3375,-2.3296,-2.3075,-2.3207,-2.3758,-2.3855,-2.3919,-2.4136,-2.4299,-2.4114,-2.4013,-2.3299,-2.2755,-2.2129,-2.1498,-2.1141,-2.0773,-2.024,-1.9968,-1.9778,-1.9422,-1.9063,-1.8241,-1.7419,-1.7419,-1.7333,-1.7066,-1.6972,-1.6784,-1.6595,-1.6312,-1.6042,-1.5872,-1.558,-1.5249,-1.4692,-1.4132,-1.3297,-1.246,-1.1802,-1.1241,-1.0893,-1.0543,-1.0321,2.6811,2.6079,2.5024,2.3929,2.2639,2.0733,1.8334,1.5171,1.0296,0.4205,-0.2836,-0.9932,-1.63,-2.1482,-2.5424,-2.7762,-2.8576,-2.8717,-2.8575,-2.8496,-2.8701,-2.8748,-2.8319,-2.9104,-2.9422,-2.9661,-2.9837,-2.9777,-2.9556,-2.9467,-2.9134,-2.881,-2.8463,-2.8286,-2.8189,-2.7845,-2.7595,-2.7595,-2.7545,-2.7342,-2.693,-2.6826,-2.6229,-2.5797,-2.5563,-2.5673,-2.6028,-2.6204,-2.6418,-2.6788,-2.7026,-2.6907,-2.651,-2.5946,-2.53,-2.4964,-2.4452,-2.4118,-2.3981,-2.4589,-2.4925,-2.4947,-2.5774,-2.6476,-2.6688,-2.6688,-2.6471,-2.5988,-2.5487,-2.4838,-2.4085,-2.4253,-2.3954,-2.366,-2.3666,-2.3742,-2.3758,-2.3675,-2.3815,-2.4136,-2.4268,-2.42,-2.4024,-2.3474,-2.3115,-2.258,-2.2041,-2.1507,-2.1051,-2.0962,-2.0863,-2.0232,-1.9786,-1.9155,-1.8334,-1.8149,-1.7971,-1.7613,-1.7254,-1.7153,-1.6878,-1.669,-1.6407,-1.6035,-1.5832,-1.554,-1.5191,-1.4643,-1.3877,-1.3133,-1.2609,-1.2151,-1.1392,-1.085,-1.0649,2.6,2.491,2.3418,2.2068,2.0493,1.7625,1.4539,1.116,0.5885,-0.0358,-0.7115,-1.3306,-1.8885,-2.3519,-2.6907,-2.9127,-2.9673,-2.9451,-2.939,-2.9196,-2.9438,-2.9438,-2.9332,-2.9793,-3.0113,-3.0011,-3.051,-3.0634,-3.0241,-3.0054,-2.9865,-2.9451,-2.9012,-2.8732,-2.8606,-2.8253,-2.8284,-2.8284,-2.8348,-2.8201,-2.7725,-2.7255,-2.6736,-2.6365,-2.6486,-2.6683,-2.6765,-2.6832,-2.6922,-2.7063,-2.7233,-2.7233,-2.7167,-2.6893,-2.6496,-2.6,-2.5342,-2.5034,-2.5047,-2.5628,-2.5798,-2.5612,-2.6831,-2.7326,-2.7469,-2.7255,-2.7175,-2.6471,-2.6045,-2.5545,-2.511,-2.4969,-2.4707,-2.4284,-2.3981,-2.3754,-2.3666,-2.3577,-2.357,-2.3835,-2.4284,-2.4289,-2.4114,-2.3927,-2.3387,-2.3125,-2.2589,-2.2413,-2.205,-2.1961,-2.1774,-2.0953,-2.0413,-2.0059,-1.9513,-1.9147,-1.8872,-1.8603,-1.8156,-1.7792,-1.7426,-1.7059,-1.6683,-1.6305,-1.6028,-1.5832,-1.554,-1.5248,-1.4539,-1.3934,-1.3543,-1.3012,-1.2159,-1.147,-1.1097,2.5287,2.3554,2.1474,1.9126,1.62,1.2365,0.8599,0.4767,-0.0851,-0.6318,-1.171,-1.7359,-2.2229,-2.5944,-2.9127,-3.0493,-3.0625,-3.0649,-3.0427,-3.0038,-3.0284,-3.0097,-2.9645,-3.0368,-3.041,-3.0368,-3.0757,-3.0895,-3.0733,-3.0452,-3.0251,-2.9951,-2.9422,-2.8904,-2.8951,-2.8542,-2.8284,-2.8348,-2.8396,-2.825,-2.789,-2.7645,-2.7393,-2.724,-2.724,-2.7342,-2.7218,-2.7181,-2.7181,-2.7233,-2.7335,-2.7401,-2.7401,-2.7473,-2.7458,-2.7071,-2.6375,-2.5467,-2.5394,-2.5891,-2.6268,-2.6143,-2.6831,-2.7379,-2.7469,-2.7469,-2.739,-2.739,-2.7108,-2.6676,-2.6114,-2.6208,-2.5627,-2.4992,-2.438,-2.4078,-2.3851,-2.3743,-2.3673,-2.3748,-2.4204,-2.4263,-2.4118,-2.3943,-2.3667,-2.3493,-2.3319,-2.3047,-2.2862,-2.2687,-2.2589,-2.1774,-2.1409,-2.0962,-2.0512,-2.015,-1.9778,-1.9513,-1.9055,-1.8519,-1.8064,-1.7606,-1.6965,-1.6588,-1.6305,-1.6021,-1.573,-1.5445,-1.5057,-1.4808,-1.4407,-1.3602,-1.2775,-1.2246,-1.1827,2.246,2.0965,1.7965,1.4673,1.1175,0.6884,0.2594,-0.1873,-0.703,-1.1898,-1.6321,-2.117,-2.5383,-2.848,-3.0493,-3.0878,-3.0855,-3.1061,-3.0942,-3.0658,-3.0757,-3.0675,-3.0452,-3.0716,-3.0757,-3.0757,-3.0878,-3.1112,-3.0975,-3.0935,-3.0781,-3.0601,-3.0081,-2.9689,-2.9393,-2.8951,-2.8685,-2.8653,-2.8668,-2.8621,-2.8301,-2.8222,-2.811,-2.783,-2.778,-2.773,-2.7695,-2.7509,-2.7423,-2.7488,-2.759,-2.764,-2.759,-2.7625,-2.7675,-2.7625,-2.7188,-2.6616,-2.6141,-2.621,-2.6215,-2.6401,-2.6826,-2.7131,-2.7406,-2.7469,-2.7469,-2.7456,-2.7469,-2.7188,-2.6905,-2.6863,-2.6508,-2.5931,-2.5075,-2.4729,-2.4418,-2.4062,-2.3913,-2.4018,-2.4093,-2.414,-2.42,-2.3972,-2.374,-2.358,-2.3319,-2.3135,-2.3047,-2.296,-2.2872,-2.2599,-2.2325,-2.2148,-2.1516,-2.106,-2.0602,-2.024,-1.996,-1.933,-1.8696,-1.8149,-1.7512,-1.6871,-1.6407,-1.6123,-1.5927,-1.573,-1.5439,-1.5248,-1.5159,-1.4478,-1.38,-1.3539,-1.315,1.7603,1.526,1.2511,0.889,0.468,0.0,-0.4648,-0.9023,-1.352,-1.753,-2.1003,-2.485,-2.8124,-3.0194,-3.0958,-3.1157,-3.1015,-3.1117,-3.1095,-3.1055,-3.1015,-3.0975,-3.0935,-3.1015,-3.1072,-3.1072,-3.1095,-3.119,-3.119,-3.1151,-3.1134,-3.1151,-3.0617,-3.0293,-2.9935,-2.9422,-2.9044,-2.8842,-2.8982,-2.8889,-2.8716,-2.8842,-2.8748,-2.8543,-2.8304,-2.8158,-2.8125,-2.7978,-2.786,-2.769,-2.7855,-2.7855,-2.779,-2.779,-2.7855,-2.784,-2.7575,-2.7423,-2.6948,-2.6761,-2.6572,-2.6816,-2.7113,-2.7498,-2.7696,-2.7656,-2.7469,-2.7469,-2.7469,-2.7469,-2.7469,-2.7214,-2.6943,-2.6508,-2.5943,-2.5594,-2.5241,-2.4813,-2.4376,-2.419,-2.426,-2.4325,-2.4266,-2.3991,-2.377,-2.3617,-2.3406,-2.3144,-2.3144,-2.3144,-2.3047,-2.2872,-2.2872,-2.2687,-2.2413,-2.1872,-2.1418,-2.1051,-2.0782,-2.024,-1.9513,-1.8696,-1.7971,-1.7239,-1.6595,-1.6312,-1.6116,-1.5927,-1.5825,-1.5635,-1.5445,-1.5255,-1.4867,-1.4682,-1.4093,0.9829,0.454,0.4248,0.1029,-0.3956,-0.9484,-1.376,-1.7021,-2.0613,-2.3297,-2.5662,-2.834,-2.9917,-3.0925,-3.1428,-3.1504,-3.1274,-3.1714,-3.1582,-3.1372,-3.1257,-3.1274,-3.1235,-3.1252,-3.123,-3.1207,-3.123,-3.123,-3.119,-3.123,-3.123,-3.1134,-3.0821,-3.0625,-3.0276,-2.9761,-2.9348,-2.9152,-2.9229,-2.9213,-2.9198,-2.9335,-2.9425,-2.9227,-2.9212,-2.9104,-2.8352,-2.8304,-2.814,-2.784,-2.7955,-2.8005,-2.7955,-2.7955,-2.8005,-2.7955,-2.7905,-2.774,-2.752,-2.7321,-2.7469,-2.7673,-2.792,-2.8109,-2.8195,-2.7776,-2.759,-2.7536,-2.7469,-2.7456,-2.7456,-2.7335,-2.7146,-2.6807,-2.6302,-2.5873,-2.5581,-2.5523,-2.5016,-2.4571,-2.4539,-2.4729,-2.4625,-2.4427,-2.3969,-2.375,-2.3299,-2.3144,-2.3144,-2.3144,-2.3144,-2.3047,-2.3047,-2.3047,-2.3047,-2.2687,-2.2325,-2.205,-2.1872,-2.115,-2.0331,-1.9513,-1.8972,-1.7792,-1.7153,-1.6683,-1.6312,-1.6116,-1.5927,-1.5825,-1.573,-1.554,-1.5343,-1.5057,-1.4395,0.3785,-0.7269,-0.9821,-1.1272,-1.2246,-1.6335,-1.9912,-2.2923,-2.5312,-2.7376,-2.9135,-3.0062,-3.0858,-3.1435,-3.1504,-3.1596,-3.1445,-3.1614,-3.1654,-3.1694,-3.1694,-3.1694,-3.1674,-3.16,-3.16,-3.1423,-3.1402,-3.1402,-3.1402,-3.1346,-3.1385,-3.1308,-3.1078,-3.0845,-3.0502,-3.0166,-2.975,-2.9576,-2.9681,-2.9754,-2.9782,-2.9886,-2.9973,-2.9957,-2.9589,-2.9409,-2.8935,-2.8685,-2.8383,-2.8137,-2.8152,-2.8103,-2.8054,-2.8103,-2.8103,-2.8103,-2.8005,-2.7955,-2.7821,-2.7528,-2.7342,-2.7752,-2.8149,-2.8553,-2.8602,-2.8208,-2.7776,-2.7656,-2.7523,-2.7643,-2.7403,-2.7214,-2.7011,-2.6875,-2.6589,-2.6151,-2.5943,-2.5873,-2.5676,-2.5171,-2.5203,-2.5405,-2.5142,-2.4959,-2.442,-2.3959,-2.3448,-2.3135,-2.3222,-2.3222,-2.3222,-2.3135,-2.3144,-2.3144,-2.3144,-2.3144,-2.3135,-2.296,-2.2696,-2.1961,-2.115,-2.115,-2.043,-1.898,-1.7707,-1.7232,-1.6864,-1.6305,-1.6028,-1.5832,-1.5825,-1.573,-1.554,-1.5343,-1.4954,-0.4878,-1.6264,-2.0984,-2.151,-1.9965,-2.2472,-2.5154,-2.7504,-2.8782,-3.0137,-3.1489,-3.1373,-3.1556,-3.1987,-3.2039,-3.1913,-3.1913,-3.1985,-3.202,-3.2074,-3.2144,-3.2109,-3.2003,-3.1913,-3.1785,-3.1576,-3.15,-3.1479,-3.1479,-3.1517,-3.1479,-3.1462,-3.1406,-3.1179,-3.0965,-3.0559,-3.0241,-3.006,-3.0076,-3.0205,-3.0189,-3.0274,-3.0316,-3.0359,-3.0113,-2.9897,-2.9528,-2.9196,-2.8811,-2.851,-2.8332,-2.8299,-2.8201,-2.8201,-2.8235,-2.8186,-2.8103,-2.8005,-2.7871,-2.7786,-2.7603,-2.8049,-2.8566,-2.8788,-2.8782,-2.8779,-2.8583,-2.8208,-2.8143,-2.796,-2.7709,-2.759,-2.7201,-2.6985,-2.6726,-2.6371,-2.6371,-2.6233,-2.6094,-2.5783,-2.5863,-2.5901,-2.5557,-2.5314,-2.5134,-2.4759,-2.4661,-2.4145,-2.382,-2.3734,-2.3474,-2.3309,-2.3144,-2.3144,-2.3144,-2.3135,-2.3135,-2.3047,-2.2872,-2.2422,-2.1961,-2.1882,-2.1329,-1.9786,-1.8603,-1.7963,-1.7318,-1.6763,-1.6298,-1.5832,-1.5825,-1.5825,-1.573,-1.5635,-1.5635,-1.6879,-2.1795,-2.7181,-2.794,-2.597,-2.7873,-2.9689,-3.0908,-3.1426,-3.1984,-3.2588,-3.2674,-3.2674,-3.2737,-3.2787,-3.2645,-3.2533,-3.2695,-3.2727,-3.2568,-3.2648,-3.2451,-3.2265,-3.2127,-3.2074,-3.1651,-3.1614,-3.1651,-3.1576,-3.1614,-3.1576,-3.1596,-3.1654,-3.1562,-3.1487,-3.1157,-3.0797,-3.051,-3.0359,-3.0384,-3.0426,-3.0551,-3.0593,-3.0617,-3.0651,-3.0426,-2.9995,-2.9689,-2.9303,-2.8858,-2.8558,-2.8493,-2.8348,-2.8348,-2.8396,-2.8348,-2.8348,-2.8201,-2.802,-2.8291,-2.833,-2.8438,-2.8851,-2.9131,-2.9389,-2.9387,-2.9289,-2.8848,-2.9079,-2.8839,-2.8583,-2.8143,-2.763,-2.7242,-2.6973,-2.6714,-2.6645,-2.6452,-2.6245,-2.6176,-2.6327,-2.6332,-2.6003,-2.5767,-2.5684,-2.5616,-2.5716,-2.5316,-2.4648,-2.4402,-2.4231,-2.4145,-2.3897,-2.3647,-2.3647,-2.3309,-2.3222,-2.3135,-2.296,-2.2599,-2.2325,-2.2148,-2.1329,-2.0232,-1.9687,-1.9239,-1.8234,-1.7318,-1.6669,-1.6109,-1.5825,-1.5825,-1.5825,-1.5825,-1.5825,-2.097,-2.9562,-3.1673,-3.2144,-3.1556,-3.1497,-3.2012,-3.2588,-3.2835,-3.3151,-3.3451,-3.3385,-3.3395,-3.3451,-3.332,-3.3194,-3.3046,-3.3033,-3.3021,-3.3087,-3.3178,-3.3136,-3.2934,-3.2713,-3.2568,-3.2335,-3.2144,-3.1984,-3.2055,-3.1929,-3.1965,-3.202,-3.1826,-3.1785,-3.1562,-3.1389,-3.1351,-3.11,-3.1123,-3.1206,-3.1244,-3.1123,-3.1004,-3.1067,-3.0998,-3.0716,-3.0335,-3.0123,-2.9733,-2.9212,-2.8904,-2.87,-2.8493,-2.8444,-2.8411,-2.8396,-2.8348,-2.8137,-2.7905,-2.7976,-2.8128,-2.8442,-2.8797,-2.9107,-2.9421,-2.9521,-2.9462,-2.9482,-2.9552,-2.9254,-2.8826,-2.8648,-2.8274,-2.7762,-2.7443,-2.704,-2.685,-2.6589,-2.6383,-2.6383,-2.6465,-2.6621,-2.6457,-2.6115,-2.6005,-2.6081,-2.6097,-2.5975,-2.5335,-2.5294,-2.5231,-2.5231,-2.5062,-2.4563,-2.4317,-2.4069,-2.3647,-2.3396,-2.3222,-2.296,-2.2687,-2.2511,-2.205,-2.123,-2.0872,-2.0421,-1.9099,-1.7887,-1.703,-1.6487,-1.6089,-1.5812,-1.5825,-1.5825,-1.5825,-2.636,-3.3848,-3.4345,-3.4523,-3.4577,-3.3866,-3.3657,-3.3848,-3.392,-3.4093,-3.4218,-3.3987,-3.4,-3.4091,-3.3994,-3.3747,-3.3597,-3.3633,-3.3561,-3.3625,-3.3652,-3.3542,-3.3419,-3.3284,-3.2908,-3.2734,-3.247,-3.2283,-3.2249,-3.2197,-3.2057,-3.1881,-3.1932,-3.1377,-3.1218,-3.132,-3.1748,-3.1582,-3.1603,-3.1623,-3.1585,-3.1528,-3.1411,-3.1355,-3.1218,-3.0918,-3.0683,-3.0418,-3.0166,-2.9673,-2.9287,-2.8997,-2.87,-2.8493,-2.8444,-2.8348,-2.825,-2.8088,-2.792,-2.7755,-2.7976,-2.8158,-2.8412,-2.8768,-2.9251,-2.9591,-2.9828,-2.9822,-2.9793,-2.9662,-2.9414,-2.9254,-2.8967,-2.8468,-2.8143,-2.7749,-2.7297,-2.7095,-2.6782,-2.6714,-2.649,-2.6696,-2.6673,-2.6535,-2.6311,-2.6384,-2.6415,-2.6257,-2.6162,-2.6273,-2.6152,-2.6069,-2.5902,-2.5411,-2.5158,-2.4988,-2.4488,-2.3734,-2.3484,-2.3484,-2.3047,-2.2784,-2.2599,-2.2236,-2.1676,-2.0917,-1.9735,-1.8629,-1.755,-1.6757,-1.6135,-1.5967,-1.5818,-1.5825,-1.5825,-3.3268,-3.5035,-3.531,-3.5273,-3.5195,-3.4761,-3.4781,-3.5056,-3.5004,-3.489,-3.4807,-3.4643,-3.4433,-3.4469,-3.4486,-3.4229,-3.3941,-3.4057,-3.3878,-3.3864,-3.3728,-3.3644,-3.3551,-3.3385,-3.3266,-3.2858,-3.2462,-3.2252,-3.2263,-3.198,-3.1696,-3.1399,-3.1291,-3.0944,-3.0946,-3.118,-3.169,-3.169,-3.1951,-3.2022,-3.2039,-3.1823,-3.1804,-3.175,-3.1565,-3.1393,-3.1145,-3.0925,-3.0666,-3.0234,-2.9733,-2.9348,-2.8997,-2.8653,-2.8541,-2.8348,-2.8299,-2.8152,-2.8005,-2.784,-2.7755,-2.788,-2.8173,-2.8487,-2.8883,-2.9476,-2.9725,-3.0142,-3.0308,-3.0219,-3.0093,-2.9907,-2.9718,-2.9345,-2.903,-2.857,-2.813,-2.7736,-2.7297,-2.6973,-2.6658,-2.6578,-2.6407,-2.6284,-2.6448,-2.6554,-2.6625,-2.6877,-2.6885,-2.7197,-2.6987,-2.6565,-2.64,-2.608,-2.5913,-2.5913,-2.5326,-2.4659,-2.4241,-2.3993,-2.356,-2.3135,-2.2872,-2.2589,-2.211,-2.13,-2.0225,-1.9085,-1.7925,-1.7231,-1.6565,-1.6021,-1.5873,-1.5818,-1.5825,-3.1011,-3.3832,-3.4448,-3.4796,-3.5001,-3.5085,-3.5234,-3.5359,-3.5308,-3.499,-3.4383,-3.4339,-3.3997,-3.3379,-3.329,-3.3197,-3.309,-3.2959,-3.2843,-3.2968,-3.3368,-3.3455,-3.3548,-3.3574,-3.371,-3.3296,-3.277,-3.2182,-3.1972,-3.1678,-3.1133,-3.0782,-3.0825,-3.0672,-3.0737,-3.1011,-3.1306,-3.1656,-3.2062,-3.2393,-3.2515,-3.2366,-3.2384,-3.2334,-3.1986,-3.186,-3.164,-3.1411,-3.1083,-3.0543,-3.0377,-3.0038,-2.9589,-2.9136,-2.8826,-2.8396,-2.8299,-2.8137,-2.802,-2.7905,-2.774,-2.7675,-2.7865,-2.8158,-2.8547,-2.8981,-2.943,-2.9839,-3.041,-3.0352,-3.0426,-3.0366,-3.0257,-3.004,-2.978,-2.9456,-2.8939,-2.8376,-2.7934,-2.7417,-2.7108,-2.6782,-2.6589,-2.6364,-2.6544,-2.6646,-2.6798,-2.7071,-2.7317,-2.7557,-2.781,-2.7313,-2.7244,-2.6999,-2.6835,-2.6753,-2.6257,-2.5663,-2.5253,-2.4669,-2.4069,-2.3647,-2.3309,-2.2882,-2.2398,-2.1705,-2.0911,-1.978,-1.8532,-1.7869,-1.7243,-1.6536,-1.6021,-1.5967,-1.5818,-2.8542,-3.2093,-3.3177,-3.3805,-3.4254,-3.4557,-3.4572,-3.4471,-3.4812,-3.453,-3.3803,-3.3712,-3.3411,-3.3014,-3.2917,-3.2814,-3.2651,-3.2642,-3.2555,-3.2618,-3.2751,-3.2845,-3.3125,-3.3248,-3.3109,-3.2911,-3.2558,-3.1939,-3.1644,-3.1029,-3.0442,-3.0312,-3.0368,-3.0225,-3.0234,-3.0512,-3.0787,-3.1237,-3.1775,-3.2457,-3.2709,-3.276,-3.289,-3.2925,-3.2486,-3.2283,-3.2074,-3.1839,-3.1487,-3.0988,-3.0868,-3.0543,-3.0054,-2.9645,-2.8997,-2.8621,-2.8558,-2.8365,-2.8186,-2.8054,-2.789,-2.7725,-2.769,-2.79,-2.818,-2.8569,-2.8846,-2.9235,-2.9833,-3.033,-3.0567,-3.0732,-3.0705,-3.0732,-3.0524,-3.0269,-2.969,-2.9066,-2.8505,-2.7999,-2.7604,-2.7284,-2.7027,-2.6714,-2.6458,-2.6408,-2.6431,-2.6627,-2.7019,-2.7442,-2.7913,-2.8051,-2.8075,-2.8087,-2.7846,-2.751,-2.7092,-2.6588,-2.6257,-2.5673,-2.4829,-2.4104,-2.3634,-2.313,-2.26,-2.1921,-2.1099,-2.0251,-1.9213,-1.8543,-1.789,-1.7318,-1.6621,-1.6209,-1.6062,-2.6006,-3.0357,-3.1609,-3.2501,-3.3105,-3.3392,-3.3134,-3.2635,-3.358,-3.373,-3.3078,-3.3015,-3.2856,-3.2462,-3.2414,-3.242,-3.2193,-3.21,-3.1996,-3.2349,-3.2283,-3.2307,-3.2255,-3.2204,-3.258,-3.2161,-3.1699,-3.1455,-3.1121,-3.054,-2.9996,-2.9853,-2.981,-2.9635,-2.9423,-3.0075,-3.0269,-3.0223,-3.1084,-3.1906,-3.2311,-3.2589,-3.2885,-3.3081,-3.2894,-3.2636,-3.2403,-3.2214,-3.2038,-3.1582,-3.1201,-3.0828,-3.046,-3.0166,-2.9438,-2.8967,-2.8951,-2.8685,-2.8414,-2.8235,-2.8039,-2.789,-2.7806,-2.7851,-2.8092,-2.815,-2.8382,-2.8674,-2.9241,-2.9844,-3.0116,-3.0607,-3.0834,-3.0969,-3.097,-3.0777,-3.0358,-2.9656,-2.8953,-2.8505,-2.8117,-2.7802,-2.7604,-2.7351,-2.7162,-2.659,-2.6159,-2.6346,-2.6724,-2.7294,-2.7633,-2.8186,-2.8203,-2.8227,-2.8351,-2.8099,-2.7926,-2.7603,-2.7185,-2.6599,-2.5673,-2.4819,-2.3941,-2.3338,-2.2626,-2.1943,-2.1221,-2.0366,-1.9686,-1.9191,-1.8549,-1.804,-1.7481,-1.6846,-1.6469,-2.3479,-2.8156,-3.0272,-3.1342,-3.1642,-3.1961,-3.1844,-3.1431,-3.184,-3.2081,-3.2094,-3.2103,-3.1832,-3.1428,-3.1432,-3.1377,-3.1216,-3.1342,-3.1025,-3.1277,-3.1473,-3.1699,-3.1872,-3.205,-3.2273,-3.2136,-3.1653,-3.0847,-3.032,-2.9864,-2.9574,-2.9425,-2.9414,-2.9245,-2.9085,-2.9722,-2.9612,-2.9531,-3.021,-3.13,-3.2038,-3.2456,-3.2802,-3.3201,-3.3291,-3.3124,-3.2844,-3.2504,-3.23,-3.1985,-3.1637,-3.1201,-3.0747,-3.0642,-3.0192,-2.9657,-2.9332,-2.912,-2.8811,-2.8494,-2.822,-2.8039,-2.7955,-2.7955,-2.7966,-2.787,-2.7985,-2.821,-2.8614,-2.922,-2.9809,-3.0391,-3.0929,-3.1155,-3.1409,-3.1176,-3.094,-3.0237,-2.947,-2.9079,-2.8698,-2.8441,-2.8233,-2.7986,-2.7723,-2.7242,-2.6515,-2.6404,-2.6714,-2.7174,-2.7172,-2.7553,-2.7837,-2.7981,-2.8306,-2.8431,-2.8259,-2.8018,-2.7603,-2.7092,-2.6483,-2.5258,-2.4096,-2.3349,-2.2674,-2.1917,-2.1221,-2.041,-1.9826,-1.9514,-1.9163,-1.86,-1.8267,-1.7644,-1.7289,-2.1215,-2.5695,-2.8628,-2.9915,-3.005,-3.0443,-3.0328,-2.9988,-3.0278,-3.0615,-3.0898,-3.1112,-3.1012,-3.0606,-3.0644,-3.0635,-3.055,-3.0573,-3.0676,-3.0761,-3.0858,-3.1028,-3.138,-3.1672,-3.1514,-3.1397,-3.1073,-3.0399,-2.9832,-2.9763,-2.9713,-2.9495,-2.9439,-2.9379,-2.9334,-2.9291,-2.9246,-2.9344,-2.9761,-3.0535,-3.1696,-3.2217,-3.297,-3.3478,-3.3689,-3.355,-3.3214,-3.2795,-3.2519,-3.2197,-3.1785,-3.1338,-3.1027,-3.1021,-3.0666,-3.0175,-2.9832,-2.9673,-2.9332,-2.8935,-2.8558,-2.8414,-2.8137,-2.8137,-2.8054,-2.7996,-2.7896,-2.8122,-2.8523,-2.9102,-2.9654,-3.0253,-3.0854,-3.1273,-3.1306,-3.1176,-3.0999,-3.0568,-3.0115,-2.9931,-2.9608,-2.9407,-2.9219,-2.8903,-2.8583,-2.792,-2.7242,-2.6714,-2.7018,-2.7005,-2.7003,-2.7039,-2.73,-2.7849,-2.8378,-2.851,-2.8431,-2.8271,-2.7959,-2.7393,-2.6575,-2.5295,-2.4228,-2.345,-2.2574,-2.177,-2.1095,-2.0478,-2.0087,-1.9739,-1.9451,-1.9046,-1.8776,-1.8456,-1.7921,-1.9521,-2.3639,-2.6893,-2.8252,-2.8369,-2.8945,-2.8882,-2.8597,-2.9061,-2.9476,-2.9786,-3.0248,-3.0428,-3.0531,-3.0602,-3.0603,-3.0601,-3.0611,-3.0595,-3.0611,-3.0639,-3.0777,-3.0729,-3.0685,-3.08,-3.0777,-3.0552,-3.04,-3.0131,-3.0089,-3.0013,-2.9874,-2.9794,-2.9729,-2.9696,-2.9626,-2.9551,-2.9531,-2.9772,-3.0071,-3.0934,-3.1936,-3.2865,-3.3524,-3.3943,-3.3831,-3.3514,-3.3118,-3.2795,-3.2419,-3.202,-3.1545,-3.1317,-3.1351,-3.1044,-3.0649,-3.0468,-3.0302,-3.0005,-2.9512,-2.9166,-2.8858,-2.851,-2.8317,-2.8317,-2.8186,-2.8039,-2.8171,-2.8627,-2.8891,-2.9447,-3.0023,-3.0627,-3.1168,-3.1157,-3.1131,-3.0911,-3.0747,-3.0642,-3.0507,-3.0372,-3.0176,-2.9993,-2.9747,-2.9296,-2.8634,-2.8103,-2.7644,-2.731,-2.7067,-2.6922,-2.6906,-2.6978,-2.7593,-2.8198,-2.8426,-2.8402,-2.8179,-2.7834,-2.7408,-2.6688,-2.5509,-2.441,-2.346,-2.2611,-2.1859,-2.1183,-2.0625,-2.0255,-2.002,-1.9631,-1.9272,-1.9282,-1.8962,-1.8397,-1.9346,-2.3625,-2.5567,-2.6428,-2.6708,-2.75,-2.795,-2.8219,-2.8682,-2.9092,-2.9419,-2.9695,-2.998,-3.0267,-3.0459,-3.0541,-3.0604,-3.0639,-3.0661,-3.0674,-3.0669,-3.0672,-3.0661,-3.0613,-3.0618,-3.0576,-3.0511,-3.0462,-3.0378,-3.0344,-3.0302,-3.0183,-3.0171,-3.0065,-2.987,-2.9829,-2.9784,-2.977,-2.9813,-3.0039,-3.0752,-3.164,-3.2396,-3.3134,-3.3826,-3.4,-3.3935,-3.356,-3.3255,-3.289,-3.2403,-3.193,-3.1728,-3.1671,-3.1449,-3.1201,-3.1027,-3.0811,-3.0485,-3.0048,-2.9717,-2.9332,-2.9058,-2.8935,-2.8811,-2.8605,-2.8558,-2.859,-2.8817,-2.8612,-2.9048,-2.9516,-3.0108,-3.0683,-3.0899,-3.0894,-3.0749,-3.0763,-3.0687,-3.0628,-3.0507,-3.0447,-3.0387,-3.0129,-2.9946,-2.9345,-2.8953,-2.8556,-2.8363,-2.7736,-2.6977,-2.6909,-2.6894,-2.7097,-2.7669,-2.8138,-2.8198,-2.8029,-2.7723,-2.7216,-2.6606,-2.5698,-2.4604,-2.3764,-2.2863,-2.1977,-2.1395,-2.0944,-2.0489,-2.0177,-1.9794,-1.9543,-1.9528,-1.937,-1.8801]},{"header":{"parameterUnit":"m.s-1","parameterCategory":1,"la1":31.0,"la2":29.5877,"lo1":-88.7671,"lo2":-86.6584,"dy":0.0162,"dx":0.0185,"nx":115,"ny":88,"refTime":"2024-09-14T12:00:00:Z","depth":0,"parameterNumber":3,"parameterNumberName":"V-component_of_WINDS"},"data":[0.0,0.0,0.0,0.0,0.0,0.0,0.0,0.0,0.0,0.0,0.0,0.0,0.0,0.0,0.0,0.0,0.0,0.0,0.0,0.0,0.0,0.0,0.0,0.0,0.0,0.0,0.0,0.0,0.0,0.0,0.0,0.0,0.0,0.0,0.0,0.0,0.0,0.0,0.0,0.0,0.0,0.0,0.0,0.0,0.0,0.0,0.0,0.0,0.0,0.0,0.0,0.0,0.0,0.0,0.0,0.0,0.0,0.0,0.0,0.0,0.0,0.0,0.0,0.0,0.0,0.0,0.0,0.0,0.0,0.0,0.0,0.0,0.0,0.0,0.0,0.0,0.0,0.0,0.0,0.0,0.0,0.0,0.0,0.0,0.0,0.0,0.0,0.0,0.0,0.0,0.0,0.0,0.0,0.0,0.0,0.0,0.0,0.0,0.0,0.0,0.0,0.0,0.0,0.0,0.0,0.0,0.0,0.0,0.0,0.0,0.0,0.0,0.0,0.0,0.0,0.0,0.0,0.0,0.0,0.0,0.0,0.0,0.0,0.0,0.0,0.0,0.0,0.0,0.0,0.0,0.0,0.0,0.0,0.0,0.0,0.0,0.0,0.0,0.0,0.0,0.0,0.0,0.0,0.0,0.0,0.0,0.0,0.0,0.0,0.0,0.0,0.0,0.0,0.0,0.0,0.0,0.0,0.0,0.0,0.0,0.0,0.0,0.0,0.0,0.0,0.0,0.0,0.0,0.0,0.0,0.0,0.0,0.0,0.0,0.0,0.0,0.0,0.0,0.0,0.0,0.0,0.0,0.0,0.0,0.0,0.0,0.0,0.0,0.0,0.0,0.0,0.0,0.0,0.0,0.0,0.0,0.0,0.0,0.0,0.0,0.0,0.0,0.0,0.0,0.0,0.0,0.0,0.0,0.0,0.0,0.0,0.0,0.0,0.0,0.0,0.0,0.0,0.0,0.0,0.0,0.0,0.0,0.0,0.0,0.0,0.0,0.0,0.0,0.0,0.0,0.0,0.0,0.0,0.0,0.0,0.0,0.0,0.0,0.0,0.0,0.0,0.0,0.0,0.0,0.0,0.0,0.0,0.0,0.0,0.0,0.0,0.0,0.0,0.0,0.0,0.0,0.0,0.0,0.0,0.0,0.0,0.0,0.0,0.0,0.0,0.0,0.0,0.0,0.0,0.0,0.0,0.0,0.0,0.0,0.0,0.0,0.0,0.0,0.0,0.0,0.0,0.0,0.0,0.0,0.0,0.0,0.0,0.0,0.0,0.0,0.0,0.0,0.0,0.0,0.0,0.0,0.0,0.0,0.0,0.0,0.0,0.0,0.0,0.0,0.0,0.0,0.0,0.0,0.0,0.0,0.0,0.0,0.0,0.0,0.0,0.0,0.0,0.0,0.0,0.0,0.0,0.0,0.0,0.0,0.0,0.0,0.0,0.0,0.0,0.0,0.0,0.0,0.0,0.0,0.0,0.0,0.0,0.0,0.0,0.0,0.0,0.0,0.0,0.0,0.0,0.0,0.0,0.0,0.0,0.0,0.0,0.0,0.0,0.0,0.0,0.0,0.0,0.0,0.0,0.0,0.0,0.0,0.0,0.0,0.0,0.0,0.0,0.0,0.0,0.0,0.0,0.0,0.0,0.0,0.0,0.0,0.0,0.0,0.0,0.0,0.0,0.0,0.0,0.0,0.0,0.0,0.0,0.0,0.0,0.0,0.0,0.0,0.0,0.0,0.0,0.0,0.0,0.0,0.0,0.0,0.0,0.0,0.0,0.0,0.0,0.0,0.0,0.0,0.0,0.0,0.0,0.0,0.0,0.0,0.0,0.0,0.0,0.0,0.0,0.0,0.0,0.0,0.0,0.0,0.0,0.0,0.0,0.0,0.0,0.0,0.0,0.0,0.0,0.0,0.0,0.0,0.0,0.0,0.0,0.0,0.0,0.0,0.0,0.0,0.0,0.0,0.0,0.0,0.0,0.0,0.0,0.0,0.0,0.0,0.0,0.0,0.0,0.0,0.0,0.0,0.0,0.0,0.0,0.0,0.0,0.0,0.0,0.0,0.0,0.0,0.0,0.0,0.0,0.0,0.0,0.0,0.0,0.0,0.0,0.0,0.0,0.0,0.0,0.0,0.0,0.0,0.0,0.0,0.0,0.0,0.0,0.0,0.0,0.0,0.0,0.0,0.0,0.0,0.0,0.0,0.0,0.0,0.0,0.0,0.0,0.0,0.0,0.0,0.0,0.0,0.0,0.0,0.0,0.0,0.0,0.0,0.0,0.0,0.0,0.0,0.0,0.0,0.0,0.0,0.0,0.0,0.0,0.0,0.0,0.0,0.0,0.0,0.0,0.0,0.0,0.0,0.0,0.0,0.0,0.0,0.0,0.0,0.0,0.0,0.0,0.0,0.0,0.0,0.0,0.0,0.0,0.0,0.0,0.0,0.0,0.0,0.0,0.0,0.0,0.0,0.0,0.0,0.0,0.0,0.0,0.0,0.0,0.0,0.0,0.0,0.0,0.0,0.0,0.0,0.0,0.0,0.0,0.0,0.0,0.0,0.0,0.0,0.0,0.0,0.0,0.0,0.0,0.0,0.0,0.0,0.0,0.0,0.0,0.0,0.0,0.0,0.0,0.0,0.0,0.0,0.0,0.0,0.0,0.0,0.0,0.0,0.0,0.0,0.0,0.0,0.0,0.0,0.0,0.0,0.0,0.0,0.0,0.0,0.0,0.0,0.0,0.0,0.0,0.0,0.0,0.0,0.0,0.0,0.0,0.0,0.0,0.0,0.0,0.0,0.0,0.0,0.0,0.0,0.0,0.0,0.0,0.0,0.0,0.0,0.0,0.0,0.0,0.0,0.0,0.0,0.0,0.0,0.0,0.0,0.0,0.0,0.0,0.0,0.0,0.0,0.0,0.0,0.0,0.0,0.0,0.0,0.0,0.0,0.0,0.0,0.0,0.0,0.0,0.0,0.0,0.0,0.0,0.0,0.0,0.0,0.0,0.0,0.0,0.0,0.0,0.0,0.0,0.0,0.0,0.0,0.0,0.0,0.0,0.0,0.0,0.0,0.0,0.0,0.0,0.0,0.0,0.0,0.0,0.0,0.0,0.0,0.0,0.0,0.0,0.0,0.0,0.0,0.0,0.0,0.0,0.0,0.0,0.0,0.0,0.0,0.0,0.0,0.0,0.0,0.0,0.0,0.0,0.0,0.0,0.0,0.0,0.0,0.0,0.0,0.0,0.0,0.0,0.0,0.0,0.0,0.0,0.0,0.0,0.0,0.0,0.0,0.0,0.0,0.0,0.0,0.0,0.0,0.0,0.0,0.0,0.0,0.0,0.0,0.0,0.0,0.0,0.0,0.0,0.0,0.0,0.0,0.0,0.0,0.0,0.0,0.0,0.0,0.0,0.0,0.0,0.0,0.0,0.0,0.0,0.0,0.0,0.0,0.0,0.0,0.0,0.0,0.0,0.0,0.0,0.0,0.0,0.0,0.0,0.0,0.0,0.0,0.0,0.0,0.0,0.0,0.0,0.0,0.0,0.0,0.0,0.0,0.0,0.0,0.0,0.0,0.0,0.0,0.0,0.0,0.0,0.0,0.0,0.0,0.0,0.0,0.0,0.0,0.0,0.0,0.0,0.0,0.0,0.0,0.0,0.0,0.0,0.0,0.0,0.0,0.0,0.0,0.0,0.0,0.0,0.0,0.0,0.0,0.0,0.0,0.0,0.0,0.0,0.0,0.0,0.0,0.0,0.0,0.0,0.0,0.0,0.0,0.0,0.0,0.0,0.0,0.0,0.0,0.0,0.0,0.0,0.0,0.0,0.0,0.0,0.0,0.0,0.0,0.0,0.0,0.0,0.0,0.0,0.0,0.0,0.0,0.0,0.0,0.0,0.0,0.0,0.0,0.0,0.0,0.0,0.0,0.0,0.0,0.0,0.0,0.0,0.0,0.0,0.0,0.0,0.0,0.0,0.0,0.0,0.0,0.0,0.0,0.0,0.0,0.0,0.0,0.0,0.0,0.0,0.0,0.0,0.0,0.0,0.0,0.0,0.0,0.0,0.0,0.0,0.0,0.0,0.0,0.0,0.0,0.0,0.0,0.0,0.0,0.0,0.0,0.0,0.0,0.0,0.0,0.0,0.0,0.0,0.0,0.0,0.0,0.0,0.0,0.0,0.0,0.0,0.0,0.0,0.0,0.0,0.0,0.0,0.0,0.0,0.0,0.0,0.0,0.0,0.0,0.0,0.0,0.0,0.0,2.5293,0.0,0.0,0.0,0.0,0.0,0.0,0.0,0.0,0.0,0.0,0.0,0.0,0.0,0.0,0.0,0.0,0.0,0.0,0.0,0.0,0.0,0.0,0.0,0.0,0.0,0.0,0.0,0.0,0.0,0.0,0.0,0.0,0.0,0.0,0.0,0.0,0.0,0.0,0.0,0.0,0.0,0.0,0.0,0.0,0.0,0.0,0.0,0.0,0.0,0.0,0.0,0.0,0.0,0.0,0.0,0.0,0.0,0.0,0.0,0.0,0.0,0.0,0.0,0.0,0.0,0.0,0.0,0.0,0.0,0.0,0.0,0.0,0.0,0.0,0.0,0.0,0.0,0.0,0.0,0.0,0.0,0.0,0.0,0.0,0.0,0.0,0.0,0.0,0.0,0.0,0.0,0.0,0.0,0.0,0.0,0.0,0.0,0.0,0.0,0.0,0.0,0.0,0.0,0.0,0.0,0.0,0.0,0.0,0.0,0.0,2.5313,2.5313,2.5313,2.5313,2.5293,0.0,0.0,0.0,0.0,0.0,0.0,0.0,0.0,0.0,0.0,0.0,0.0,0.0,0.0,0.0,0.0,0.0,0.0,0.0,0.0,0.0,0.0,0.0,0.0,0.0,0.0,0.0,0.0,0.0,0.0,0.0,0.0,0.0,0.0,0.0,0.0,0.0,0.0,0.0,0.0,0.0,0.0,0.0,0.0,0.0,0.0,0.0,0.0,0.0,0.0,0.0,0.0,0.0,0.0,0.0,0.0,0.0,0.0,0.0,0.0,0.0,0.0,0.0,0.0,0.0,0.0,0.0,0.0,0.0,0.0,0.0,0.0,0.0,0.0,0.0,0.0,0.0,0.0,0.0,0.0,0.0,0.0,0.0,0.0,0.0,0.0,0.0,0.0,0.0,0.0,0.0,0.0,0.0,0.0,0.0,0.0,0.0,0.0,0.0,0.0,0.0,0.0,0.0,0.0,0.0,0.0,0.0,0.0,0.0,0.0,0.0,0.0,2.5899,2.589,2.589,0.0,0.0,0.0,0.0,0.0,0.0,0.0,0.0,0.0,0.0,0.0,0.0,0.0,0.0,0.0,0.0,0.0,0.0,0.0,0.0,0.0,0.0,0.0,0.0,0.0,0.0,0.0,0.0,0.0,0.0,0.0,0.0,0.0,0.0,0.0,0.0,0.0,0.0,0.0,0.0,0.0,0.0,0.0,0.0,0.0,0.0,0.0,0.0,0.0,0.0,0.0,0.0,0.0,0.0,0.0,0.0,0.0,0.0,0.0,0.0,0.0,0.0,0.0,0.0,0.0,0.0,0.0,0.0,0.0,0.0,0.0,0.0,0.0,0.0,0.0,0.0,0.0,0.0,0.0,0.0,0.0,0.0,0.0,0.0,0.0,0.0,0.0,0.0,0.0,0.0,0.0,0.0,0.0,0.0,0.0,0.0,0.0,0.0,0.0,0.0,0.0,0.0,0.0,0.0,0.0,0.0,0.0,0.0,0.0,0.0,2.6063,2.7601,2.764,0.0,2.7659,0.0,0.0,0.0,0.0,0.0,0.0,0.0,0.0,0.0,0.0,0.0,0.0,0.0,0.0,0.0,0.0,0.0,0.0,0.0,0.0,0.0,0.0,0.0,0.0,0.0,0.0,0.0,0.0,0.0,0.0,0.0,0.0,0.0,0.0,0.0,0.0,0.0,0.0,0.0,0.0,0.0,0.0,0.0,0.0,0.0,0.0,0.0,0.0,0.0,0.0,0.0,0.0,0.0,0.0,0.0,0.0,0.0,0.0,0.0,0.0,0.0,0.0,0.0,0.0,0.0,0.0,0.0,0.0,0.0,0.0,0.0,0.0,0.0,0.0,0.0,0.0,0.0,0.0,0.0,0.0,0.0,0.0,0.0,0.0,0.0,0.0,0.0,0.0,0.0,0.0,0.0,0.0,0.0,0.0,0.0,0.0,0.0,0.0,0.0,0.0,0.0,0.0,0.0,0.0,0.0,0.0,0.0,0.0,0.0,0.0,2.6659,2.7871,2.7409,2.714,0.0,0.0,0.0,0.0,0.0,0.0,0.0,0.0,0.0,0.0,0.0,0.0,0.0,0.0,0.0,0.0,0.0,0.0,0.0,0.0,0.0,0.0,0.0,0.0,0.0,0.0,0.0,0.0,0.0,0.0,0.0,0.0,0.0,0.0,0.0,0.0,0.0,0.0,0.0,0.0,0.0,0.0,0.0,0.0,0.0,0.0,0.0,0.0,0.0,0.0,0.0,0.0,0.0,0.0,0.0,0.0,0.0,0.0,0.0,0.0,0.0,0.0,0.0,0.0,0.0,0.0,0.0,0.0,0.0,0.0,0.0,0.0,0.0,0.0,0.0,0.0,0.0,0.0,0.0,0.0,0.0,0.0,0.0,0.0,0.0,0.0,0.0,0.0,0.0,0.0,0.0,0.0,0.0,0.0,0.0,0.0,0.0,0.0,0.0,0.0,0.0,0.0,0.0,0.0,0.0,0.0,0.0,0.0,0.0,0.0,2.6217,0.0,2.8121,2.7621,2.6967,2.6255,0.0,0.0,0.0,0.0,0.0,0.0,0.0,0.0,0.0,0.0,0.0,0.0,0.0,0.0,0.0,0.0,0.0,0.0,0.0,0.0,0.0,0.0,0.0,0.0,0.0,0.0,0.0,0.0,0.0,0.0,0.0,0.0,0.0,0.0,0.0,0.0,0.0,0.0,0.0,0.0,0.0,0.0,0.0,0.0,0.0,0.0,0.0,0.0,0.0,0.0,0.0,0.0,0.0,0.0,0.0,0.0,0.0,0.0,0.0,0.0,0.0,0.0,0.0,0.0,0.0,0.0,0.0,0.0,0.0,0.0,0.0,0.0,0.0,0.0,0.0,0.0,0.0,0.0,0.0,0.0,0.0,0.0,0.0,0.0,0.0,0.0,0.0,0.0,0.0,0.0,0.0,0.0,0.0,0.0,0.0,0.0,0.0,0.0,0.0,0.0,0.0,0.0,0.0,0.0,0.0,0.0,0.0,0.0,0.0,2.7332,2.7371,2.8986,2.8986,2.7832,0.0,0.0,0.0,0.0,0.0,0.0,0.0,0.0,0.0,0.0,0.0,0.0,0.0,0.0,0.0,0.0,0.0,0.0,0.0,0.0,0.0,0.0,0.0,0.0,0.0,0.0,0.0,0.0,0.0,0.0,0.0,0.0,0.0,0.0,0.0,0.0,0.0,0.0,0.0,0.0,0.0,0.0,0.0,0.0,0.0,0.0,0.0,0.0,0.0,0.0,0.0,0.0,0.0,0.0,0.0,0.0,0.0,0.0,0.0,0.0,0.0,0.0,0.0,0.0,0.0,0.0,0.0,0.0,0.0,0.0,0.0,0.0,0.0,0.0,0.0,0.0,0.0,0.0,0.0,0.0,0.0,0.0,0.0,0.0,0.0,0.0,0.0,0.0,0.0,0.0,0.0,0.0,0.0,0.0,0.0,0.0,0.0,0.0,0.0,0.0,0.0,0.0,0.0,0.0,0.0,0.0,0.0,0.0,0.0,2.4197,2.5236,2.7371,3.0487,2.7621,2.6227,0.0,0.0,0.0,0.0,0.0,0.0,0.0,0.0,0.0,0.0,0.0,0.0,0.0,0.0,0.0,0.0,0.0,0.0,0.0,0.0,0.0,0.0,0.0,0.0,0.0,0.0,0.0,0.0,0.0,0.0,0.0,0.0,0.0,0.0,0.0,0.0,0.0,0.0,0.0,0.0,0.0,0.0,0.0,0.0,0.0,0.0,0.0,0.0,0.0,0.0,0.0,0.0,0.0,0.0,0.0,0.0,0.0,0.0,0.0,0.0,0.0,0.0,0.0,0.0,0.0,0.0,0.0,0.0,0.0,0.0,0.0,0.0,0.0,0.0,0.0,0.0,0.0,0.0,0.0,0.0,0.0,0.0,0.0,0.0,0.0,0.0,0.0,0.0,0.0,0.0,0.0,0.0,0.0,0.0,0.0,0.0,0.0,0.0,0.0,0.0,0.0,0.0,0.0,0.0,0.0,0.0,0.0,0.0,0.0,2.3571,0.0,2.8401,0.0,2.714,2.537,0.0,0.0,0.0,0.0,0.0,0.0,0.0,0.0,0.0,0.0,0.0,0.0,0.0,0.0,0.0,0.0,0.0,0.0,0.0,0.0,0.0,0.0,0.0,0.0,0.0,0.0,0.0,0.0,0.0,0.0,0.0,0.0,0.0,0.0,0.0,0.0,0.0,0.0,0.0,0.0,0.0,0.0,0.0,0.0,0.0,0.0,0.0,0.0,0.0,0.0,0.0,0.0,0.0,0.0,0.0,0.0,0.0,0.0,0.0,0.0,0.0,0.0,0.0,0.0,0.0,0.0,0.0,0.0,0.0,0.0,0.0,0.0,0.0,0.0,0.0,0.0,0.0,0.0,0.0,0.0,0.0,0.0,0.0,0.0,0.0,0.0,0.0,0.0,0.0,0.0,0.0,0.0,0.0,0.0,0.0,0.0,0.0,0.0,0.0,0.0,0.0,0.0,0.0,0.0,0.0,0.0,0.0,0.0,2.2827,2.7585,3.0128,3.0271,2.8082,2.7832,2.5505,0.0,0.0,0.0,0.0,0.0,0.0,0.0,0.0,0.0,0.0,0.0,0.0,0.0,0.0,0.0,0.0,0.0,0.0,0.0,0.0,0.0,0.0,0.0,0.0,0.0,0.0,0.0,0.0,0.0,0.0,0.0,0.0,0.0,0.0,0.0,0.0,0.0,0.0,0.0,0.0,0.0,0.0,0.0,0.0,0.0,0.0,0.0,0.0,0.0,0.0,0.0,0.0,0.0,0.0,0.0,0.0,0.0,0.0,0.0,0.0,0.0,0.0,0.0,0.0,0.0,0.0,0.0,0.0,0.0,0.0,0.0,0.0,0.0,0.0,0.0,0.0,0.0,0.0,0.0,0.0,0.0,0.0,0.0,0.0,0.0,0.0,0.0,0.0,0.0,0.0,0.0,0.0,0.0,0.0,0.0,0.0,0.0,0.0,0.0,0.0,0.0,0.0,0.0,0.0,0.0,0.0,0.0,0.0,0.0,2.5301,2.7171,2.9193,3.1102,2.74,2.5909,0.0,0.0,0.0,0.0,0.0,0.0,0.0,0.0,0.0,0.0,0.0,0.0,0.0,0.0,0.0,0.0,0.0,0.0,0.0,0.0,0.0,0.0,0.0,0.0,0.0,0.0,0.0,0.0,0.0,0.0,0.0,0.0,0.0,0.0,0.0,0.0,0.0,0.0,0.0,0.0,0.0,0.0,0.0,0.0,0.0,0.0,0.0,0.0,0.0,0.0,0.0,0.0,0.0,0.0,0.0,0.0,0.0,0.0,0.0,0.0,0.0,0.0,0.0,0.0,0.0,0.0,0.0,0.0,0.0,0.0,0.0,0.0,0.0,0.0,0.0,0.0,0.0,0.0,0.0,0.0,0.0,0.0,0.0,0.0,0.0,0.0,0.0,0.0,0.0,0.0,0.0,0.0,0.0,0.0,0.0,0.0,0.0,0.0,0.0,0.0,0.0,0.0,0.0,0.0,0.0,0.0,0.0,0.0,0.0,2.7585,2.937,3.1187,3.2872,2.8698,2.6928,2.789,0.0,0.0,0.0,0.0,0.0,0.0,0.0,0.0,0.0,0.0,0.0,0.0,0.0,0.0,0.0,0.0,0.0,0.0,0.0,0.0,0.0,0.0,0.0,0.0,0.0,0.0,0.0,0.0,0.0,0.0,0.0,0.0,0.0,0.0,0.0,0.0,0.0,0.0,0.0,0.0,0.0,0.0,0.0,0.0,0.0,0.0,0.0,0.0,0.0,0.0,0.0,0.0,0.0,0.0,0.0,0.0,0.0,0.0,0.0,0.0,0.0,0.0,0.0,0.0,0.0,0.0,0.0,0.0,0.0,0.0,0.0,0.0,0.0,0.0,0.0,0.0,0.0,0.0,0.0,0.0,0.0,0.0,0.0,0.0,0.0,0.0,0.0,0.0,0.0,0.0,0.0,0.0,0.0,0.0,0.0,0.0,0.0,0.0,0.0,0.0,0.0,0.0,0.0,0.0,0.0,0.0,0.0,0.0,3.3235,3.5739,3.5843,3.3372,3.1448,2.8602,0.0,0.0,0.0,0.0,0.0,0.0,0.0,0.0,0.0,0.0,0.0,0.0,0.0,0.0,0.0,0.0,0.0,0.0,0.0,0.0,0.0,0.0,0.0,0.0,0.0,0.0,0.0,0.0,0.0,0.0,0.0,0.0,0.0,0.0,0.0,0.0,0.0,0.0,0.0,0.0,0.0,0.0,0.0,0.0,0.0,0.0,0.0,0.0,0.0,0.0,0.0,0.0,0.0,0.0,0.0,0.0,0.0,0.0,0.0,0.0,0.0,0.0,0.0,0.0,0.0,0.0,0.0,0.0,0.0,0.0,0.0,0.0,0.0,0.0,0.0,0.0,0.0,0.0,0.0,0.0,0.0,0.0,0.0,0.0,0.0,0.0,0.0,0.0,0.0,0.0,0.0,0.0,0.0,0.0,0.0,0.0,0.0,0.0,0.0,0.0,0.0,0.0,0.0,0.0,0.0,0.0,0.0,0.0,0.0,3.4952,3.8614,3.9615,3.7621,3.3558,3.0852,0.0,0.0,0.0,0.0,0.0,0.0,0.0,0.0,0.0,0.0,0.0,0.0,0.0,0.0,0.0,0.0,0.0,0.0,0.0,0.0,0.0,0.0,0.0,0.0,0.0,0.0,0.0,0.0,0.0,0.0,0.0,0.0,0.0,0.0,0.0,0.0,0.0,0.0,0.0,0.0,0.0,0.0,0.0,0.0,0.0,0.0,0.0,0.0,0.0,0.0,0.0,0.0,0.0,0.0,0.0,0.0,0.0,0.0,0.0,0.0,0.0,0.0,0.0,0.0,0.0,0.0,0.0,0.0,0.0,0.0,0.0,0.0,0.0,0.0,0.0,0.0,0.0,0.0,0.0,0.0,0.0,0.0,0.0,0.0,0.0,0.0,0.0,0.0,0.0,0.0,0.0,0.0,0.0,0.0,0.0,0.0,0.0,0.0,0.0,0.0,0.0,0.0,0.0,0.0,0.0,0.0,0.0,0.0,3.4276,3.7208,4.0968,4.229,4.0945,3.7016,3.3699,0.0,0.0,0.0,0.0,0.0,0.0,0.0,0.0,0.0,0.0,0.0,0.0,0.0,0.0,0.0,0.0,0.0,0.0,0.0,0.0,0.0,0.0,0.0,0.0,0.0,0.0,0.0,0.0,0.0,0.0,0.0,0.0,0.0,0.0,0.0,0.0,0.0,0.0,0.0,0.0,0.0,0.0,0.0,0.0,0.0,0.0,0.0,0.0,0.0,0.0,0.0,0.0,0.0,0.0,0.0,0.0,0.0,0.0,0.0,0.0,0.0,0.0,0.0,0.0,0.0,0.0,0.0,0.0,0.0,0.0,0.0,0.0,0.0,0.0,0.0,0.0,0.0,0.0,0.0,0.0,0.0,0.0,0.0,0.0,0.0,0.0,0.0,0.0,0.0,0.0,0.0,0.0,0.0,0.0,0.0,0.0,0.0,0.0,0.0,0.0,0.0,0.0,0.0,0.0,0.0,0.0,0.0,0.0,3.6122,3.9301,4.2753,4.4157,4.3308,4.0611,3.6507,0.0,0.0,0.0,0.0,0.0,0.0,0.0,0.0,0.0,0.0,0.0,0.0,0.0,0.0,0.0,0.0,0.0,0.0,0.0,0.0,0.0,0.0,0.0,0.0,0.0,0.0,0.0,0.0,0.0,0.0,0.0,0.0,0.0,0.0,0.0,0.0,0.0,0.0,0.0,0.0,0.0,0.0,0.0,0.0,0.0,0.0,0.0,0.0,0.0,0.0,0.0,0.0,0.0,0.0,0.0,0.0,0.0,0.0,0.0,0.0,0.0,0.0,0.0,0.0,0.0,0.0,0.0,0.0,0.0,0.0,0.0,0.0,0.0,0.0,0.0,0.0,0.0,0.0,0.0,0.0,0.0,0.0,0.0,0.0,0.0,0.0,0.0,0.0,0.0,0.0,0.0,0.0,0.0,0.0,0.0,0.0,0.0,0.0,0.0,0.0,0.0,0.0,0.0,0.0,0.0,0.0,0.0,0.0,3.7035,3.8508,4.3071,4.5094,4.4249,4.0361,3.643,0.0,0.0,0.0,0.0,0.0,0.0,0.0,0.0,0.0,0.0,0.0,0.0,0.0,0.0,0.0,0.0,0.0,0.0,0.0,0.0,0.0,0.0,0.0,0.0,0.0,0.0,0.0,0.0,0.0,0.0,0.0,0.0,0.0,0.0,0.0,0.0,0.0,0.0,0.0,0.0,0.0,0.0,0.0,0.0,0.0,0.0,0.0,0.0,2.8044,0.0,0.0,0.0,0.0,0.0,0.0,0.0,0.0,0.0,0.0,0.0,0.0,0.0,0.0,0.0,0.0,0.0,0.0,0.0,0.0,0.0,0.0,0.0,0.0,0.0,0.0,0.0,0.0,0.0,0.0,0.0,0.0,0.0,0.0,0.0,0.0,0.0,0.0,0.0,0.0,0.0,0.0,0.0,0.0,0.0,0.0,0.0,0.0,0.0,0.0,0.0,0.0,0.0,0.0,0.0,0.0,0.0,0.0,0.0,3.7885,3.9997,4.378,4.5379,4.4407,4.1065,3.742,0.0,0.0,0.0,0.0,0.0,0.0,0.0,0.0,0.0,0.0,0.0,0.0,0.0,0.0,0.0,0.0,0.0,0.0,0.0,0.0,0.0,0.0,0.0,0.0,0.0,0.0,0.0,0.0,0.0,0.0,0.0,0.0,0.0,0.0,0.0,0.0,0.0,0.0,0.0,0.0,0.0,0.0,0.0,0.0,0.0,0.0,0.0,0.0,0.0,0.0,0.0,0.0,0.0,0.0,0.0,0.0,0.0,0.0,0.0,0.0,0.0,0.0,0.0,0.0,0.0,0.0,0.0,0.0,0.0,0.0,0.0,0.0,0.0,0.0,0.0,0.0,0.0,0.0,0.0,0.0,0.0,0.0,0.0,0.0,0.0,0.0,0.0,0.0,0.0,0.0,0.0,0.0,0.0,0.0,0.0,0.0,0.0,0.0,0.0,0.0,0.0,0.0,0.0,0.0,0.0,0.0,0.0,3.4925,3.8542,4.1912,4.438,4.5201,4.4307,4.1654,3.8257,3.4173,0.0,0.0,0.0,0.0,0.0,0.0,0.0,0.0,0.0,0.0,0.0,0.0,0.0,0.0,0.0,0.0,0.0,0.0,0.0,0.0,0.0,0.0,0.0,0.0,0.0,0.0,0.0,0.0,0.0,0.0,0.0,0.0,0.0,0.0,0.0,0.0,0.0,0.0,2.6197,2.8005,0.0,0.0,0.0,0.0,0.0,0.0,0.0,0.0,2.9717,0.0,0.0,0.0,0.0,0.0,0.0,0.0,0.0,0.0,0.0,0.0,0.0,0.0,0.0,0.0,0.0,0.0,0.0,0.0,0.0,0.0,0.0,0.0,0.0,0.0,0.0,0.0,0.0,0.0,0.0,0.0,0.0,0.0,0.0,0.0,0.0,0.0,0.0,0.0,0.0,0.0,0.0,0.0,0.0,0.0,0.0,0.0,0.0,0.0,0.0,0.0,0.0,0.0,0.0,0.0,0.0,3.3572,3.5758,3.8505,4.1932,4.3833,4.4341,4.3371,4.0229,3.6832,3.3306,0.0,0.0,0.0,0.0,0.0,0.0,0.0,0.0,0.0,0.0,0.0,0.0,0.0,0.0,0.0,0.0,0.0,0.0,0.0,0.0,0.0,0.0,0.0,0.0,0.0,0.0,0.0,0.0,0.0,0.0,0.0,0.0,0.0,0.0,0.0,0.0,0.0,0.0,0.0,3.3314,3.4853,0.0,0.0,0.0,0.0,0.0,0.0,0.0,0.0,3.0544,0.0,0.0,0.0,0.0,0.0,0.0,0.0,0.0,0.0,0.0,0.0,0.0,0.0,0.0,0.0,0.0,0.0,0.0,0.0,0.0,0.0,0.0,0.0,0.0,0.0,0.0,0.0,0.0,0.0,0.0,0.0,0.0,0.0,0.0,0.0,0.0,0.0,0.0,0.0,0.0,0.0,0.0,0.0,0.0,0.0,0.0,0.0,0.0,0.0,0.0,0.0,0.0,0.0,0.0,0.0,3.2703,3.5495,3.828,4.1293,4.3034,4.3278,4.1879,3.8601,3.5186,0.0,0.0,0.0,0.0,0.0,0.0,0.0,0.0,0.0,0.0,0.0,0.0,0.0,0.0,0.0,0.0,0.0,0.0,0.0,0.0,0.0,0.0,0.0,0.0,0.0,0.0,0.0,0.0,0.0,0.0,0.0,0.0,0.0,0.0,0.0,0.0,0.0,0.0,0.0,0.0,3.3853,3.5584,3.6084,0.0,0.0,0.0,0.0,0.0,0.0,3.241,3.1621,0.0,0.0,0.0,0.0,0.0,0.0,0.0,0.0,0.0,0.0,0.0,0.0,0.0,0.0,0.0,0.0,0.0,0.0,0.0,0.0,0.0,0.0,0.0,0.0,0.0,0.0,0.0,0.0,0.0,0.0,0.0,0.0,0.0,0.0,0.0,0.0,0.0,0.0,0.0,0.0,0.0,0.0,0.0,0.0,0.0,0.0,0.0,0.0,0.0,0.0,0.0,0.0,0.0,0.0,0.0,3.162,3.4738,3.7636,4.0398,4.1822,4.1803,4.0211,3.7037,3.3712,0.0,0.0,0.0,0.0,0.0,0.0,0.0,0.0,0.0,0.0,0.0,0.0,0.0,0.0,0.0,0.0,0.0,0.0,0.0,0.0,0.0,0.0,0.0,0.0,0.0,0.0,0.0,0.0,0.0,0.0,0.0,0.0,0.0,0.0,0.0,0.0,0.0,0.0,0.0,0.0,0.0,3.6502,3.7833,3.6285,0.0,0.0,0.0,0.0,3.4603,3.4699,0.0,0.0,0.0,0.0,0.0,0.0,0.0,0.0,0.0,0.0,0.0,0.0,0.0,0.0,0.0,0.0,0.0,0.0,0.0,0.0,0.0,0.0,0.0,0.0,0.0,0.0,0.0,0.0,0.0,0.0,0.0,0.0,0.0,0.0,0.0,0.0,0.0,0.0,0.0,0.0,0.0,0.0,0.0,0.0,0.0,0.0,0.0,0.0,0.0,0.0,0.0,0.0,0.0,0.0,0.0,0.0,3.1465,3.3506,3.6065,3.9287,3.9786,3.9475,3.8477,3.5863,3.2847,0.0,0.0,0.0,0.0,0.0,0.0,0.0,0.0,0.0,0.0,0.0,0.0,0.0,0.0,0.0,0.0,0.0,0.0,0.0,0.0,0.0,0.0,0.0,0.0,0.0,0.0,0.0,0.0,0.0,0.0,0.0,0.0,0.0,0.0,0.0,0.0,0.0,0.0,0.0,0.0,0.0,4.1127,3.8535,3.7816,3.7852,0.0,0.0,3.7334,4.0315,4.0777,0.0,0.0,0.0,0.0,0.0,0.0,0.0,0.0,0.0,0.0,0.0,0.0,0.0,0.0,0.0,0.0,0.0,0.0,0.0,0.0,0.0,0.0,0.0,0.0,0.0,0.0,0.0,0.0,0.0,0.0,0.0,0.0,0.0,0.0,0.0,0.0,0.0,0.0,0.0,0.0,0.0,0.0,0.0,0.0,0.0,0.0,0.0,0.0,0.0,0.0,0.0,0.0,0.0,0.0,0.0,2.4996,3.0779,3.2952,3.5249,3.7775,3.8369,3.8054,3.6806,3.4251,3.1274,0.0,0.0,0.0,0.0,0.0,0.0,0.0,0.0,0.0,0.0,0.0,0.0,0.0,0.0,0.0,0.0,0.0,0.0,0.0,0.0,0.0,0.0,0.0,0.0,0.0,0.0,0.0,0.0,0.0,0.0,0.0,0.0,0.0,0.0,0.0,0.0,0.0,0.0,0.0,0.0,0.0,0.0,4.1635,4.0494,0.0,0.0,0.0,4.0223,4.1672,0.0,0.0,0.0,0.0,0.0,0.0,0.0,0.0,0.0,0.0,0.0,0.0,0.0,0.0,0.0,0.0,0.0,0.0,0.0,0.0,0.0,0.0,0.0,0.0,0.0,0.0,0.0,0.0,0.0,0.0,0.0,0.0,0.0,0.0,0.0,0.0,0.0,0.0,0.0,0.0,0.0,0.0,0.0,0.0,0.0,0.0,0.0,0.0,0.0,0.0,0.0,0.0,0.0,0.0,0.0,0.0,0.0,2.992,3.2369,3.4504,3.6367,3.7043,3.673,3.5375,3.3265,0.0,0.0,0.0,0.0,0.0,0.0,0.0,0.0,0.0,0.0,0.0,0.0,0.0,0.0,0.0,0.0,0.0,0.0,0.0,0.0,0.0,0.0,0.0,0.0,0.0,0.0,0.0,1.5696,0.0,0.0,0.0,0.0,0.0,0.0,0.0,0.0,0.0,0.0,0.0,0.0,0.0,0.0,4.0156,4.3784,4.2803,4.2643,0.0,0.0,4.2831,4.3238,4.3478,4.1943,0.0,0.0,0.0,0.0,0.0,0.0,0.0,0.0,0.0,0.0,0.0,0.0,0.0,0.0,0.0,0.0,0.0,0.0,0.0,0.0,0.0,0.0,0.0,0.0,0.0,0.0,0.0,0.0,0.0,0.0,0.0,0.0,0.0,0.0,0.0,0.0,0.0,0.0,0.0,0.0,0.0,0.0,0.0,0.0,0.0,0.0,0.0,0.0,0.0,0.0,0.0,0.0,0.0,0.0,0.0,2.8812,3.1386,3.3582,3.5335,3.5578,3.5283,3.4505,3.3538,3.1004,0.0,0.0,0.0,0.0,0.0,0.0,0.0,0.0,0.0,0.0,0.0,0.0,0.0,0.0,0.0,0.0,0.0,0.0,0.0,0.0,0.0,0.0,0.0,0.0,0.0,0.0,0.0,0.0,0.0,0.0,0.0,0.0,0.0,0.0,0.0,0.0,0.0,0.0,0.0,0.0,0.0,4.1371,4.3397,4.4117,4.5356,0.0,0.0,4.5064,4.6599,4.7481,4.582,3.9199,0.0,0.0,0.0,0.0,0.0,0.0,0.0,0.0,0.0,0.0,0.0,0.0,0.0,0.0,0.0,0.0,0.0,0.0,0.0,0.0,0.0,0.0,0.0,0.0,0.0,0.0,0.0,0.0,0.0,0.0,0.0,0.0,0.0,0.0,0.0,0.0,0.0,0.0,0.0,0.0,0.0,0.0,0.0,0.0,0.0,0.0,0.0,0.0,0.0,0.0,0.0,0.0,0.0,2.4471,2.8083,3.1077,3.3242,3.451,3.4573,3.4263,3.3615,3.2734,3.055,0.0,0.0,0.0,0.0,0.0,0.0,0.0,0.0,0.0,0.0,0.0,0.0,0.0,0.0,0.0,0.0,0.0,0.0,0.0,0.0,0.0,0.0,0.0,0.0,0.0,0.0,0.0,0.0,2.0577,2.1559,2.1684,0.0,0.0,0.0,0.0,0.0,0.0,0.0,0.0,0.0,0.0,4.3344,4.5616,4.5735,0.0,0.0,4.6989,4.5959,4.7151,4.6286,4.4022,3.9799,3.7462,0.0,0.0,0.0,0.0,0.0,0.0,0.0,0.0,0.0,0.0,0.0,0.0,0.0,0.0,0.0,0.0,0.0,0.0,0.0,0.0,0.0,0.0,0.0,0.0,0.0,0.0,0.0,0.0,0.0,0.0,0.0,0.0,0.0,0.0,0.0,0.0,0.0,0.0,0.0,0.0,0.0,0.0,0.0,0.0,0.0,0.0,0.0,0.0,0.0,0.0,0.0,0.0,2.436,2.7656,3.072,3.2752,3.3709,3.3709,3.3365,3.2734,3.2126,3.0318,0.0,0.0,0.0,0.0,0.0,0.0,0.0,0.0,0.0,0.0,0.0,0.0,0.0,0.0,0.0,0.0,0.0,0.0,0.0,0.0,0.0,0.0,0.0,0.0,0.0,0.0,0.0,0.0,2.1475,2.2132,2.199,0.0,0.0,0.0,0.0,0.0,0.0,0.0,0.0,0.0,0.0,4.4555,4.7069,4.6936,4.71,4.8675,4.7139,4.608,4.6942,4.5557,4.3401,4.0513,0.0,0.0,0.0,0.0,0.0,0.0,0.0,0.0,0.0,0.0,0.0,0.0,0.0,0.0,0.0,0.0,0.0,0.0,0.0,0.0,0.0,0.0,0.0,0.0,0.0,0.0,0.0,0.0,0.0,0.0,0.9258,0.0,0.0,0.0,0.0,0.0,0.0,0.0,0.0,0.0,0.0,0.0,0.0,0.0,0.0,0.0,0.0,0.0,0.0,0.0,0.0,0.0,0.0,2.4418,2.7666,3.0222,3.2,3.2877,3.2916,3.2579,3.1884,3.1816,3.0569,2.8008,0.0,0.0,0.0,0.0,0.0,0.0,0.0,0.0,0.0,0.0,0.0,0.0,0.0,0.0,0.0,0.0,0.0,0.0,0.0,0.0,0.0,0.0,0.0,0.0,0.0,0.0,1.8935,2.0429,2.1262,0.0,0.0,0.0,0.0,0.0,0.0,0.0,0.0,0.0,0.0,4.2036,4.4661,4.7217,4.7588,4.7901,4.8762,4.6749,4.5382,4.6278,4.6261,4.5071,0.0,0.0,0.0,0.0,0.0,0.0,0.0,0.0,0.0,0.0,0.0,0.0,0.0,0.0,0.0,0.0,0.0,0.0,0.0,0.0,0.0,0.0,0.0,0.0,0.0,0.0,0.0,1.44,1.3372,0.0,0.0,0.0,0.0,0.0,0.0,0.0,0.0,0.0,0.0,0.0,2.3594,2.4342,0.0,0.0,0.0,0.0,0.0,0.0,0.0,0.0,0.0,0.0,0.0,0.0,2.4791,2.6995,3.0052,3.1775,3.2081,3.21,3.2011,3.1806,3.1275,2.9776,2.7207,0.0,0.0,0.0,0.0,0.0,0.0,0.0,0.0,0.0,0.0,0.0,0.0,0.0,0.0,0.0,0.0,0.0,0.0,0.0,0.0,0.0,0.0,0.0,0.0,0.0,2.0161,0.0,0.0,0.0,0.0,0.0,0.0,0.0,0.0,0.0,0.0,0.0,3.859,4.1183,4.4273,4.6619,4.7499,4.8104,4.8573,0.0,0.0,0.0,0.0,0.0,0.0,0.0,0.0,0.0,0.0,0.0,0.0,0.0,0.0,4.5206,3.9455,3.7669,3.7491,3.8883,0.0,0.0,0.0,0.0,0.0,0.0,0.0,0.0,0.0,0.0,0.0,0.0,0.0,0.0,1.7178,0.0,1.6072,0.0,0.0,0.0,0.0,0.0,0.0,0.0,0.0,2.4265,2.5987,2.6507,2.7336,2.7396,0.0,2.6365,2.4293,0.0,0.0,0.0,0.0,0.0,0.0,0.0,0.0,2.5622,2.7538,3.0025,3.1317,3.1309,3.1317,3.133,3.1371,3.0888,2.9669,2.766,2.5683,2.3967,0.0,0.0,0.0,0.0,0.0,0.0,0.0,0.0,0.0,0.0,0.0,0.0,0.0,0.0,0.0,0.0,0.0,0.0,0.0,0.0,0.0,0.0,0.0,2.0853,0.0,0.0,0.0,0.0,0.0,0.0,0.0,0.0,0.0,3.5003,3.8368,4.1578,4.3906,4.5918,4.7246,4.7558,0.0,0.0,0.0,0.0,0.0,0.0,0.0,4.6442,4.783,4.6658,4.5623,4.5857,4.7825,4.9062,4.8074,0.0,0.0,4.407,4.2403,4.2403,4.3805,4.4771,4.5776,4.7139,4.8591,4.9623,0.0,0.0,0.0,0.0,0.0,0.0,0.0,0.0,1.9429,1.9418,0.0,1.8706,0.0,0.0,0.0,0.0,0.0,2.1403,0.0,0.0,2.8565,2.972,2.8423,3.0168,3.0267,2.8843,2.987,2.914,2.6582,2.2677,0.0,0.0,0.0,0.0,0.0,0.0,2.6807,2.9205,3.0172,3.0617,3.0636,3.0617,3.0617,3.0617,3.0617,3.0201,2.9369,2.8442,2.6867,2.444,2.1775,0.0,0.0,0.0,0.0,0.0,0.0,0.0,0.0,0.0,0.0,0.0,0.0,0.0,0.0,0.0,0.0,0.0,0.0,0.0,0.0,2.0653,0.0,0.0,0.0,0.0,0.0,0.0,0.0,0.0,0.0,0.0,3.8847,4.0976,4.3766,4.7102,0.0,0.0,0.0,0.0,4.7695,4.7793,4.8476,4.9062,4.9062,4.9648,4.9883,4.916,0.0,0.0,4.8182,5.0445,5.1767,4.9419,5.1662,5.3416,5.1629,4.9747,4.9049,4.9965,5.0693,5.1629,5.2616,5.4325,5.6035,2.4431,0.0,0.0,0.0,0.0,2.2268,2.2959,2.3955,2.3891,2.3306,2.2417,2.241,0.0,0.0,0.0,0.0,0.0,0.0,2.5538,2.7038,2.9434,3.059,3.0764,3.1619,3.1764,3.1362,3.196,3.158,3.0232,2.9079,2.6082,2.1459,0.0,0.0,0.0,0.0,2.7948,2.9263,3.0153,3.0617,3.0617,3.0617,3.0617,3.0617,3.061,3.0467,3.0234,2.9438,2.839,2.7006,2.4474,0.0,0.0,0.0,0.0,0.0,0.0,0.0,0.0,0.0,0.0,0.0,0.0,0.0,0.0,0.0,0.0,0.0,0.0,0.0,2.1737,2.2337,2.3047,0.0,0.0,0.0,0.0,0.0,0.0,0.0,0.0,0.0,4.3514,4.4562,4.5774,0.0,0.0,4.8023,4.7654,4.8651,4.9667,5.0215,5.1055,0.0,0.0,5.082,5.0527,5.1445,5.2012,5.207,5.1366,5.1541,5.1734,5.1533,5.2387,5.3087,5.324,5.2878,5.2982,5.4304,5.4426,5.4894,5.6743,5.7406,5.7607,2.7979,2.5659,2.4787,2.4619,2.494,2.5221,2.5836,2.6655,2.6638,2.6392,2.6006,2.5611,2.5156,2.4667,2.3732,0.0,0.0,0.0,2.8162,2.9518,3.0861,3.166,3.1958,3.2562,3.2745,3.2526,3.2845,3.2709,3.2208,3.2293,3.0316,2.6487,0.0,0.0,2.6249,2.7755,2.8954,2.9805,3.0327,3.0616,3.0613,3.0634,3.063,3.0637,3.0639,3.0645,3.0637,3.0169,2.9513,2.8632,2.6435,2.4197,0.0,0.0,0.0,0.0,0.0,0.0,0.0,0.0,0.0,0.0,0.0,1.5167,1.2512,0.0,0.0,0.0,1.9656,2.2535,2.4783,2.5549,0.0,0.0,0.0,0.0,0.0,0.0,0.0,3.9289,4.2257,4.4796,4.6581,4.7317,4.7963,4.8833,4.8839,4.8669,4.8504,0.0,5.0215,5.0695,5.2116,5.3138,5.3159,5.2343,5.1836,5.2109,5.2187,5.2187,5.2187,5.2011,5.2108,5.2613,5.3253,5.3896,5.4421,5.4783,5.5166,5.5962,5.6528,5.7348,5.8851,5.9222,5.9514,3.0625,2.9711,2.808,2.7263,2.7063,2.7759,2.7996,2.7909,2.8013,2.8665,2.9486,2.8195,2.7484,2.721,2.6826,0.0,2.9251,3.0175,3.1043,3.1825,3.2706,3.2832,3.2371,3.3261,3.3424,3.2913,3.3128,3.3203,3.3222,3.328,3.2877,3.1976,3.0462,2.9631,2.9515,2.9553,2.9969,3.0684,3.0704,3.0679,3.0607,3.0667,3.0696,3.0708,3.0693,3.0661,3.0593,3.0593,3.0186,2.9291,2.7702,2.6058,2.4386,0.0,0.0,0.0,0.0,0.0,0.0,0.0,0.0,0.0,0.0,0.0,0.0,0.0,0.0,0.0,2.3767,0.0,2.8007,2.959,0.0,0.0,0.0,3.3678,3.4826,3.8402,4.1176,4.216,0.0,0.0,4.8321,4.9239,5.0067,5.0862,4.9648,4.8971,4.9701,4.9868,4.9926,5.0138,5.2175,5.3762,5.3771,5.3779,5.3281,5.1933,5.1504,5.1562,5.1504,5.1992,5.2519,5.2694,5.4002,5.5114,5.5245,5.5826,5.627,5.5576,5.7289,5.8948,5.9261,6.0334,6.131,3.1202,3.0885,3.0452,2.9632,2.8592,2.8779,2.8793,2.8687,2.8757,2.9074,2.9606,2.9516,2.975,3.0272,3.0396,3.0618,3.0973,3.2042,3.2642,3.2892,3.3599,3.4005,3.4245,3.449,3.4615,3.4691,3.4886,3.499,3.499,3.5044,3.4629,3.3817,3.3372,3.2522,3.1294,3.1864,3.199,3.1592,3.1592,3.1287,3.0701,3.0696,3.0661,3.0613,3.0662,3.0371,2.9661,2.9686,2.9277,2.8354,2.7342,2.6302,2.5176,2.1698,0.0,0.0,0.0,0.0,0.0,0.0,0.0,0.0,0.0,2.1676,1.6629,0.0,2.453,0.0,2.7025,2.932,3.0379,3.1168,0.0,0.0,3.6045,3.7623,4.0969,4.1991,4.319,4.5189,4.6857,4.8123,4.8837,4.9779,5.0432,5.0663,5.054,5.0262,4.9915,5.0333,5.0977,5.1619,5.2775,5.3716,5.3752,5.385,5.36,5.2558,5.2383,5.2168,5.1504,5.1543,5.1914,5.2539,5.3007,5.3787,5.5036,5.5482,5.5809,5.6217,5.7301,5.8538,5.9788,6.0451,6.09,3.1368,3.1235,3.1235,3.076,3.0031,3.0048,2.9993,2.9993,3.0125,3.0437,3.0851,3.1075,3.14,3.1858,3.2173,3.2493,3.2799,3.3577,3.3932,3.3973,3.4323,3.4696,3.503,3.5066,3.52,3.5435,3.5553,3.562,3.562,3.5673,3.5454,3.4982,3.4982,3.4516,3.3619,3.3294,3.2915,3.2497,3.2149,3.1586,3.0747,3.0697,3.0488,3.0103,3.0384,2.999,2.8816,2.9109,2.8894,2.808,2.7237,2.6564,2.6002,2.3157,2.1305,0.0,0.0,0.0,0.0,0.0,0.0,0.0,0.0,0.0,0.0,0.0,2.6834,2.7287,3.0551,3.29,3.3601,3.488,3.6601,3.8852,3.9532,4.0839,4.3336,4.3716,4.4513,4.629,4.7352,4.8255,4.8996,4.9901,5.054,5.0582,5.0717,5.067,5.0332,5.0618,5.1039,5.1527,5.2382,5.3183,5.3594,5.4103,5.4105,5.3346,5.3188,5.2941,5.2082,5.1952,5.2051,5.2129,5.2441,5.3105,5.4433,5.5075,5.5581,5.638,5.6939,5.7731,5.8976,5.9874,6.0573,3.1336,3.119,3.119,3.119,3.119,3.119,3.119,3.123,3.1562,3.2003,3.2517,3.2596,3.2655,3.269,3.304,3.3598,3.4315,3.4694,3.487,3.4926,3.4925,3.5049,3.5262,3.5277,3.5402,3.5604,3.562,3.5612,3.5612,3.5673,3.5698,3.5713,3.5713,3.5741,3.5727,3.4309,3.3446,3.3213,3.2361,3.154,3.0719,3.0679,3.0302,2.9577,2.9954,2.9522,2.8097,2.8584,2.8576,2.7865,2.7219,2.6812,2.6663,2.46,2.3276,0.0,2.1538,0.0,0.0,0.0,0.0,0.0,0.0,0.0,0.0,2.8338,2.9543,3.048,3.4165,3.6625,3.6972,3.912,4.0867,4.1679,4.2567,4.3258,4.3649,4.4335,4.5214,4.632,4.7147,4.7993,4.8974,4.9759,5.0303,5.0523,5.0603,5.0625,5.0664,5.0683,5.074,5.0702,5.1498,5.2535,5.3494,5.4392,5.4616,5.3922,5.3897,5.3718,5.2884,5.2794,5.2558,5.1875,5.2225,5.2949,5.3711,5.4531,5.5369,5.6189,5.652,5.6944,5.7815,5.8964,6.0038,3.1755,3.119,3.119,3.119,3.119,3.119,3.119,3.123,3.1562,3.2179,3.2988,3.3281,3.3451,3.3595,3.4083,3.4292,3.4315,3.4832,3.5064,3.5152,3.5032,3.5181,3.5489,3.5359,3.5418,3.5662,3.5673,3.5673,3.5673,3.5704,3.5698,3.5713,3.5713,3.5741,3.5791,0.0,0.0,0.0,3.1836,3.0925,3.0713,3.0534,3.0319,3.0055,2.9425,0.0,2.7618,2.7701,2.7414,2.6556,2.7,0.0,0.0,0.0,0.0,0.0,0.0,0.0,0.0,0.0,0.0,0.0,2.9979,2.9672,2.9709,3.3364,3.5456,3.4757,3.7611,3.9454,3.9316,4.0726,4.1797,4.2099,4.3024,4.3739,4.3927,4.4444,4.5166,4.6049,4.6523,4.7341,4.8777,4.928,4.9628,5.0281,5.0478,5.0562,5.0603,5.0663,5.0683,5.0741,5.1433,5.2384,5.3391,5.4239,5.4492,5.3984,5.4353,5.4398,5.3685,5.3486,5.3273,5.2526,5.2514,5.266,5.2967,5.3652,5.4512,5.539,5.6074,5.6874,5.7706,5.8133,5.856,3.2611,0.0,3.1884,3.1732,0.0,3.1343,3.1329,3.149,3.186,3.2502,3.3339,3.3587,3.3726,3.3815,3.4398,3.4574,3.4534,3.5062,3.5321,3.5402,3.5321,3.5411,3.5581,3.5534,3.5577,3.5704,3.5704,3.5716,3.5708,3.5708,3.5741,3.5805,3.5805,3.5806,3.5834,3.5429,3.4607,3.3398,3.2081,3.1098,3.0522,3.0391,3.0042,2.9434,0.0,0.0,0.0,0.0,0.0,0.0,0.0,0.0,0.0,0.0,0.0,2.6575,2.6883,2.7497,2.8404,2.9202,3.0445,3.2233,3.3393,3.3601,3.2654,3.6235,3.8215,3.748,3.9779,4.1175,4.0873,4.1795,4.2505,4.2667,4.3188,4.3612,4.3955,4.4221,4.4662,4.5382,4.5965,4.671,4.7662,4.8624,4.9242,4.9723,5.0167,5.0478,5.0542,5.0603,5.0663,5.0721,5.1395,5.2126,5.2694,5.35,5.4172,5.4178,5.4569,5.4665,5.4288,5.4255,5.4061,5.3311,5.2818,5.2623,5.3123,5.3288,5.3526,5.4346,5.4912,5.5482,5.6331,5.7226,5.8001,3.3525,3.3355,3.2747,3.2449,3.2263,3.171,3.1682,3.1986,0.0,0.0,0.0,3.3726,3.3788,3.3868,3.4439,3.4695,3.4737,3.5262,3.5534,3.5584,3.5577,3.5581,3.5612,3.5673,3.5715,3.5697,3.5716,3.5708,3.5718,3.5718,3.5788,3.589,3.5893,3.5895,3.5837,3.4949,3.4174,3.3528,3.2467,3.1391,3.0304,3.0163,2.9693,2.8747,2.9026,2.8596,2.7372,2.7866,2.7941,2.7405,2.7665,2.7778,2.7671,2.8536,2.9232,2.9701,3.0486,3.1289,3.2133,3.2916,3.3571,3.4001,3.5992,3.6662,3.5503,3.8005,3.9541,3.9349,4.1143,4.2166,4.1941,4.2484,4.2975,4.316,4.3196,4.341,4.3814,4.3974,4.4229,4.47,4.5401,4.6036,4.6533,4.7704,4.8796,4.9127,4.9701,5.0278,5.044,5.0562,5.0584,5.0701,5.1202,5.1664,5.1838,5.2493,5.3302,5.3859,5.4387,5.4723,5.4719,5.4885,5.4723,5.4011,5.3263,5.3195,5.3583,5.3276,5.3003,5.3666,5.3802,5.3978,5.4746,5.6157,5.7324,3.3981,3.3389,3.3288,3.2865,3.2313,3.2552,3.2666,3.2666,3.2876,3.3262,3.3689,3.3698,3.378,3.3939,3.4461,3.4714,3.4812,3.5239,3.5482,3.5591,3.556,3.5565,3.5684,3.5704,3.5718,3.5715,3.5696,3.5725,3.5774,3.578,3.5831,3.589,3.5893,3.5896,3.5818,3.4847,3.4248,3.4071,3.2474,3.1167,3.0164,2.9685,2.9345,2.9096,2.8158,2.7541,2.7333,2.764,2.7705,2.761,2.9151,2.9718,2.9042,3.032,3.0868,3.03,3.0946,3.1811,3.279,3.3613,3.4971,3.7024,3.8133,3.8311,3.7564,3.9063,4.0237,4.0602,4.1562,4.232,4.2648,4.281,4.2938,4.3086,4.3178,4.3286,4.3516,4.3781,4.4091,4.4438,4.4751,4.5409,4.6304,4.6768,4.751,4.87,4.9197,4.9583,5.024,5.0478,5.0521,5.0521,5.0659,5.0776,5.0989,5.1528,5.2165,5.2319,5.361,5.4399,5.4513,5.5072,5.5255,5.4687,5.4342,5.4194,5.3896,5.3699,5.3593,5.3769,5.3738,5.3805,5.4,5.4878,5.5697,3.4912,3.4573,3.4167,3.3795,3.349,3.3329,3.3003,3.2669,3.3142,3.3455,3.3643,3.3689,3.378,3.3921,3.4307,3.4572,3.4773,3.5088,3.53,3.5435,3.5489,3.5546,3.5648,3.5669,3.5704,3.5742,3.5742,3.578,3.5849,3.5849,3.589,3.5951,3.5897,3.5812,3.5702,3.5146,3.4424,3.3598,3.2185,3.1076,3.0364,2.9645,2.9116,2.8828,2.8221,2.796,2.796,2.8058,2.83,2.8656,2.9698,3.0257,3.0204,3.1452,3.198,3.1611,3.2291,3.293,3.3349,3.4062,3.5321,3.7298,3.7734,3.7979,3.8022,3.9595,4.0648,4.0909,4.1902,4.2614,4.2884,4.29,4.2975,4.316,4.3178,4.3286,4.3428,4.3582,4.3923,4.4318,4.4393,4.4761,4.5729,4.6104,4.6538,4.7624,4.8391,4.9389,5.0191,5.0371,5.0416,5.05,5.0502,5.0562,5.0602,5.0911,5.1375,5.1838,5.2589,5.3243,5.3745,5.4554,5.4882,5.4706,5.4624,5.4503,5.4188,5.3843,5.3657,5.354,5.3159,5.3113,5.3514,5.3988,5.4694,3.5515,3.5357,3.4802,3.4553,3.438,3.3817,3.3248,3.282,3.3381,3.3608,3.3595,3.3671,3.3762,3.3947,3.4171,3.4445,3.4714,3.4944,3.5155,3.5326,3.5416,3.5507,3.5611,3.5674,3.573,3.5807,3.5821,3.5841,3.5921,3.5923,3.5932,3.5976,3.5857,3.5717,3.5596,3.5264,3.4542,3.3339,3.2053,3.1073,3.0411,2.9643,2.8983,2.8453,2.835,2.8396,2.8576,2.8647,2.9017,2.9709,3.0196,3.0727,3.1247,3.2255,3.2845,3.29,3.3413,3.3826,3.3981,3.4586,3.5581,3.6962,3.7225,3.754,3.8225,3.9631,4.0659,4.0935,4.205,4.2864,4.29,4.29,4.2975,4.3123,4.3178,4.3251,4.341,4.3463,4.3697,4.4173,4.414,4.4298,4.4971,4.5504,4.5984,4.6666,4.7857,4.9079,4.9843,5.0034,5.0119,5.0377,5.0459,5.05,5.0562,5.0602,5.0911,5.1548,5.1817,5.2279,5.2895,5.3626,5.4281,5.4419,5.4515,5.4651,5.4747,5.4263,5.3836,5.3737,5.3227,5.2875,5.3704,5.395,5.4186,3.5316,3.4911,3.4781,3.458,3.4276,3.3949,3.3706,3.3632,3.3768,3.3683,3.3538,3.3643,3.3834,3.4023,3.4195,3.4423,3.4694,3.4851,3.5086,3.535,3.534,3.5451,3.5685,3.5697,3.5773,3.5854,3.5815,3.5859,3.5976,3.5996,3.5976,3.5993,3.5864,3.5689,3.5476,3.4901,3.4406,3.4064,3.2499,3.1066,2.9944,2.9503,2.8917,2.8156,2.7915,2.8123,2.8858,2.9094,2.9508,3.0153,3.1082,3.173,3.2025,3.2788,3.3367,3.3633,3.3716,3.3963,3.4655,3.5357,3.6144,3.7017,3.7697,3.8065,3.821,3.9041,3.9839,4.0564,4.194,4.2792,4.29,4.29,4.2938,4.2975,4.3087,4.3214,4.3251,4.3393,4.3649,4.3986,4.4005,4.414,4.4503,4.4827,4.539,4.638,4.7283,4.8239,4.9022,4.9194,4.9423,5.0019,5.0333,5.0393,5.0435,5.0521,5.0659,5.0814,5.1393,5.1798,5.2144,5.2721,5.3491,5.3877,5.4379,5.4612,5.5113,5.5056,5.4496,5.4381,5.3954,5.3563,5.439,5.452,5.4498,3.4529,3.4317,3.4333,3.4133,3.3872,3.427,3.4051,3.3441,3.3704,3.3768,3.3698,3.3815,3.3921,3.3998,3.4087,3.4321,3.4628,3.471,3.4908,3.5216,3.5325,3.5454,3.5626,3.5731,3.58,3.5849,3.5867,3.5886,3.5947,3.5972,3.6013,3.597,3.5747,3.5523,3.5292,3.4623,3.3998,3.3396,3.2583,3.1473,3.0229,2.9636,2.9173,2.8769,2.8737,2.8878,2.9223,2.9467,2.9881,3.0519,3.1161,3.1818,3.2481,3.3021,3.3437,3.3726,3.3643,3.3923,3.4714,3.5423,3.6177,3.6989,3.7754,3.8192,3.8228,3.8916,3.9571,4.0071,4.1339,4.2357,4.281,4.29,4.2956,4.2994,4.3086,4.316,4.3214,4.3322,4.3566,4.3809,4.3763,4.3873,4.4318,4.4624,4.5295,4.6225,4.6863,4.736,4.8162,4.8334,4.8468,4.8793,4.9255,4.9851,5.0237,5.0435,5.0519,5.0619,5.0872,5.1123,5.1297,5.1875,5.2587,5.2953,5.3415,5.4032,5.4802,5.4881,5.4632,5.4805,5.467,5.4147,5.4027,5.3986,5.3804,3.3818,3.3732,3.3818,3.3761,3.3629,3.4583,3.4374,3.3494,3.374,3.3866,3.3805,3.3928,3.4055,3.416,3.4184,3.4394,3.4711,3.4733,3.4889,3.52,3.5374,3.5512,3.563,3.5722,3.5796,3.5802,3.5797,3.5827,3.5841,3.5903,3.5913,3.5857,3.5519,3.5198,3.4947,3.4145,3.3323,3.2567,3.2091,3.1313,3.037,2.9776,2.9321,2.9068,2.9211,2.9436,2.9712,2.9868,3.03,3.108,3.1358,3.1804,3.2598,3.297,3.3321,3.3615,3.3473,3.3767,3.4594,3.5268,3.5948,3.6757,3.7448,3.7863,3.8006,3.8384,3.8938,3.954,4.036,4.1271,4.2393,4.2673,4.2786,4.286,4.2936,4.3031,4.305,4.3214,4.341,4.3579,4.3495,4.3631,4.4143,4.4484,4.4997,4.5769,4.6094,4.6481,4.7226,4.7455,4.7532,4.7761,4.8372,4.9045,4.9851,5.0298,5.0377,5.0457,5.0579,5.0659,5.0603,5.1239,5.1778,5.2259,5.2587,5.3126,5.3973,5.4225,5.4727,5.5324,5.5268,5.4689,5.4589,5.4222,5.4201,3.3443,3.2933,3.3391,3.3617,3.3687,3.4622,3.4675,3.3969,3.4033,3.3912,3.3753,3.3935,3.4255,3.4634,3.4676,3.4813,3.5034,3.5047,3.5193,3.5451,3.5557,3.5628,3.5698,3.5717,3.5724,3.5762,3.5655,3.5635,3.5703,3.5691,3.5703,3.5648,3.5027,3.468,3.4339,3.3276,3.2385,3.1689,3.0892,3.0369,3.0227,2.9718,2.9255,2.8942,2.8887,2.9386,3.015,3.0289,3.0741,3.1808,3.1826,3.2021,3.2352,3.2651,3.3081,3.3473,3.3256,3.3494,3.4465,3.4978,3.5543,3.6257,3.6783,3.7055,3.7264,3.7143,3.7659,3.9112,3.9115,3.9841,4.1357,4.2056,4.2351,4.2409,4.2573,4.2711,4.275,4.2995,4.3178,4.3232,4.3232,4.3408,4.3823,4.4095,4.4484,4.4908,4.5205,4.5679,4.6347,4.6557,4.6863,4.7398,4.7799,4.8162,4.9006,4.9717,5.0199,5.0298,5.0265,5.0521,5.0582,5.0718,5.1161,5.1508,5.1778,5.2298,5.3106,5.3896,5.4648,5.5188,5.5498,5.5249,5.5152,5.5672,5.5593,3.2492,3.2398,3.3235,3.3495,3.3411,3.4021,3.4112,3.3819,3.3543,3.3633,3.3913,3.4171,3.4593,3.5089,3.5119,3.5119,3.5105,3.5081,3.5283,3.5557,3.5582,3.5594,3.5567,3.5541,3.5514,3.5527,3.5465,3.5452,3.5456,3.5164,3.4905,3.4596,3.3802,3.3356,3.3132,3.1969,3.1148,3.0968,3.0186,2.9772,2.9761,2.9821,2.9802,2.9707,2.9961,3.0369,3.1073,3.1185,3.1453,3.1802,3.1819,3.2001,3.2283,3.2555,3.2702,3.2834,3.308,3.365,3.4499,3.5154,3.5823,3.6564,3.6745,3.6746,3.6825,3.6724,3.6922,3.7603,3.8338,3.9081,3.9807,4.1041,4.2044,4.2269,4.2391,4.2432,4.2454,4.2595,4.275,4.2882,4.3032,4.3356,4.3609,4.398,4.4318,4.4695,4.4976,4.5322,4.56,4.5736,4.5927,4.6194,4.6653,4.7092,4.7322,4.872,4.9602,4.9755,4.9915,5.0262,5.044,5.0521,5.0888,5.0966,5.1141,5.1547,5.2373,5.3106,5.3973,5.4647,5.4975,5.5209,5.575,5.5635,5.5769,3.1754,3.1966,3.2879,3.3108,3.2835,3.3532,3.3621,3.3379,3.3349,3.3589,3.4012,3.443,3.487,3.5273,3.543,3.5405,3.5268,3.5257,3.5372,3.5628,3.5623,3.5583,3.5451,3.5306,3.5182,3.5073,3.4909,3.4882,3.4837,3.4282,3.3917,3.3655,3.2345,3.184,3.1838,3.0607,2.988,2.9936,2.9604,2.9284,2.9271,2.9717,3.014,3.041,3.0723,3.1044,3.1368,3.1521,3.1671,3.1763,3.18,3.1965,3.2266,3.2249,3.2318,3.2422,3.2651,3.3385,3.4403,3.4903,3.5523,3.6499,3.6416,3.6274,3.6316,3.6172,3.6266,3.6786,3.7488,3.8221,3.8967,4.0212,4.1293,4.1788,4.1977,4.2061,4.2145,4.231,4.2454,4.2573,4.2824,4.3105,4.3336,4.3675,4.4035,4.4438,4.4758,4.4953,4.5173,4.5235,4.5275,4.5335,4.5774,4.6061,4.6366,4.736,4.8414,4.8681,4.9331,4.9794,5.0164,5.0284,5.044,5.0481,5.0696,5.1064,5.1603,5.2336,5.3067,5.3876,5.4108,5.4244,5.4746,5.5191,5.5249,3.1351,3.1495,3.2407,3.2382,3.2008,3.3172,3.3354,3.2857,3.3406,3.3762,3.4056,3.464,3.5047,3.533,3.5577,3.5631,3.5563,3.5521,3.5558,3.5681,3.5661,3.5534,3.5329,3.4993,3.4674,3.4427,3.4087,3.3887,3.3812,3.3101,3.2692,3.2283,3.0765,3.0179,3.0725,2.9297,2.8669,2.8809,2.8934,2.8919,2.8826,2.9467,3.0166,3.0707,3.0988,3.1162,3.1179,3.1162,3.1411,3.1746,3.18,3.1929,3.2038,3.1802,3.1783,3.2162,3.2001,3.273,3.4134,3.4155,3.4706,3.5642,3.5571,3.5487,3.5605,3.5396,3.5509,3.6223,3.685,3.7503,3.8522,3.9379,4.0235,4.0931,4.1346,4.1569,4.1892,4.2145,4.2287,4.231,4.2472,4.2631,4.2808,4.3177,4.3656,4.4023,4.4327,4.4617,4.4905,4.5019,4.5148,4.5213,4.539,4.5564,4.5736,4.6003,4.6825,4.7589,4.8468,4.914,4.9507,4.9743,5.0186,5.0303,5.0481,5.0849,5.1161,5.1835,5.2259,5.2855,5.3029,5.3358,5.3859,5.4303,5.4497,3.1292,3.1334,3.1844,3.1856,3.1618,3.2256,3.2454,3.2522,3.3029,3.3559,3.412,3.4756,3.5209,3.5425,3.5581,3.5644,3.5639,3.5423,3.5386,3.5537,3.5377,3.5145,3.4845,3.4433,3.3999,3.3607,3.3259,3.2886,3.2529,3.1943,3.1215,3.0197,2.9108,2.8509,2.8372,2.7652,2.739,2.7724,2.8125,2.8479,2.8779,2.9597,3.0302,3.0948,3.1372,3.1596,3.1579,3.1579,3.1634,3.18,3.18,3.18,3.1671,3.1483,3.1428,3.1593,3.1961,3.2219,3.2821,3.3709,3.4269,3.4756,3.5002,3.5148,3.5228,3.5088,3.5094,3.5471,3.5958,3.6688,3.7519,3.8302,3.9362,4.0814,4.1071,4.1237,4.1675,4.1874,4.2019,4.2061,4.2228,4.2432,4.2631,4.2995,4.3283,4.3656,4.3924,4.4194,4.4392,4.4669,4.4814,4.4887,4.5065,4.5216,4.5385,4.5478,4.5878,4.6644,4.7491,4.8258,4.8681,4.9182,4.9663,5.0144,5.0323,5.0596,5.0949,5.1238,5.1643,5.1951,5.2221,5.2645,5.3127,5.3417,5.361,3.0969,3.0819,3.1086,3.0975,3.0742,3.1183,3.1675,3.2132,3.2784,3.3469,3.4211,3.4928,3.5316,3.5495,3.5621,3.5618,3.5493,3.5103,3.4902,3.4953,3.4809,3.4556,3.4167,3.3331,3.2585,3.2084,3.1777,3.1445,3.0925,3.0249,2.9389,2.8357,2.7345,2.6792,2.6651,2.6438,2.652,2.7063,2.7845,2.8479,2.9102,2.9903,3.0608,3.1067,3.1542,3.18,3.18,3.1763,3.1726,3.1709,3.1726,3.1614,3.1445,3.1334,3.1274,3.1314,3.1556,3.1871,3.216,3.316,3.3946,3.4158,3.4655,3.5024,3.4994,3.4899,3.4804,3.4998,3.5497,3.6092,3.6721,3.7665,3.8807,4.0021,4.0521,4.099,4.1453,4.1736,4.1762,4.1831,4.2019,4.2246,4.2472,4.2691,4.2977,4.3353,4.3557,4.3786,4.3986,4.4233,4.4364,4.4474,4.4624,4.4795,4.5023,4.5084,4.5106,4.5742,4.6473,4.7166,4.7704,4.828,4.8777,4.9606,4.9994,5.0399,5.0732,5.0715,5.0947,5.1198,5.1489,5.1644,5.1991,5.2511,5.2762,3.0353,2.9943,3.0081,2.9801,2.9438,3.0164,3.0846,3.1548,3.2599,3.3493,3.4275,3.5026,3.5405,3.5499,3.5605,3.5513,3.5159,3.4557,3.4093,3.3834,3.3613,3.3379,3.3029,3.181,3.0862,3.0187,2.991,2.9518,2.8994,2.8327,2.7474,2.6791,2.5779,2.5203,2.555,2.5563,2.6054,2.6834,2.7879,2.8685,2.93,3.0234,3.0868,3.1083,3.1524,3.18,3.1746,3.1596,3.1542,3.1579,3.1521,3.1462,3.1351,3.1312,3.1235,3.1151,3.1072,3.1385,3.1942,3.2653,3.3223,3.3789,3.4462,3.4899,3.4851,3.4756,3.4691,3.4837,3.5268,3.5663,3.6224,3.7235,3.8287,3.8942,3.9946,4.072,4.1363,4.1515,4.1542,4.1587,4.1762,4.2019,4.2287,4.2512,4.2806,4.3124,4.3303,4.3458,4.3656,4.3831,4.3924,4.4058,4.4204,4.4401,4.465,4.4739,4.4764,4.5003,4.5607,4.6117,4.6862,4.7476,4.8185,4.8999,4.9641,5.0106,5.0457,5.0478,5.0521,5.0774,5.0833,5.0662,5.099,5.1606,5.1914,2.9564,2.9551,2.8592,2.8321,2.8634,2.9265,2.9897,3.07,3.2178,3.325,3.4074,3.493,3.533,3.5337,3.532,3.5029,3.4375,3.3627,3.3012,3.2396,3.1481,3.1246,3.1025,3.0128,2.9323,2.8867,2.8248,2.7622,2.7255,2.6901,2.6256,2.5301,2.498,2.4738,2.4838,2.5231,2.5742,2.6404,2.7645,2.8479,2.8965,2.9962,3.0747,3.1123,3.1504,3.1709,3.1579,3.1123,3.11,3.1483,3.1389,3.1334,3.1218,3.11,3.0998,3.1015,3.0935,3.0905,3.1258,3.225,3.2912,3.315,3.425,3.4787,3.4643,3.4756,3.4691,3.4724,3.4922,3.5332,3.5992,3.6854,3.7969,3.9362,4.0001,4.0449,4.0737,4.096,4.1163,4.1209,4.1569,4.1959,4.2228,4.249,4.2727,4.2975,4.3032,4.3069,4.332,4.3456,4.3605,4.3749,4.3887,4.4069,4.4261,4.4355,4.443,4.4476,4.4812,4.5168,4.5999,4.6821,4.7694,4.8587,4.9082,4.9576,5.0103,5.0393,5.0459,5.0521,5.0562,5.0582,5.0623,5.0989,5.1106,2.8643,2.845,2.7655,2.7489,2.7914,2.8317,2.9173,3.0392,3.1807,3.3025,3.3922,3.4797,3.5116,3.5009,3.4616,3.4055,3.3371,3.2445,3.1602,3.0734,2.9372,2.8939,2.8971,2.8529,2.7977,2.7305,2.6777,2.6232,2.5793,2.563,2.5051,2.4425,2.4234,2.4189,2.4118,2.4908,2.5508,2.604,2.7174,2.814,2.8856,2.9508,3.0133,3.0649,3.0988,3.1027,3.0851,3.051,3.0485,3.0707,3.0649,3.0608,3.0567,3.0418,3.0435,3.0576,3.0551,3.0568,3.0958,3.2014,3.2735,3.2989,3.4054,3.4607,3.4546,3.4562,3.4497,3.4562,3.4546,3.4905,3.5546,3.6473,3.7668,3.8838,3.9614,4.0053,4.0351,4.0611,4.0724,4.0913,4.1283,4.1788,4.2044,4.2351,4.267,4.2862,4.2938,4.2938,4.2995,4.3142,4.3283,4.3403,4.3471,4.3619,4.3762,4.3924,4.4053,4.4084,4.4158,4.4461,4.5106,4.6045,4.6655,4.747,4.8283,4.9001,4.943,4.9958,5.0371,5.0435,5.0478,5.054,5.0582,5.0623,5.0643,2.7485,2.6919,2.685,2.6919,2.7144,2.7535,2.8607,3.0195,3.1516,3.2741,3.3777,3.4549,3.4561,3.4419,3.3377,3.2684,3.1994,3.0857,2.993,2.8812,2.764,2.7047,2.7214,2.7128,2.6591,2.5781,2.5494,2.505,2.4667,2.4496,2.4176,2.3793,2.3675,2.3628,2.3839,2.4667,2.5259,2.5741,2.6759,2.778,2.8481,2.8841,2.9252,2.9903,3.0218,3.0058,2.9843,2.9669,2.9625,2.9476,2.9569,2.9701,2.9673,2.9496,2.9629,2.9892,2.9968,3.0113,3.0683,3.1748,3.2635,3.2821,3.4008,3.4675,3.4399,3.425,3.425,3.43,3.425,3.4611,3.5233,3.629,3.7284,3.8249,3.893,3.9476,4.0053,4.0302,4.0351,4.04,4.0943,4.1356,4.1709,4.2133,4.2573,4.2634,4.2768,4.29,4.29,4.2995,4.305,4.305,4.3069,4.3087,4.3283,4.3471,4.3609,4.3744,4.3697,4.3892,4.4277,4.4961,4.5386,4.6055,4.6992,4.7813,4.8466,4.9105,4.9797,5.0237,5.0205,5.0363,5.054,5.0562,5.0603,2.5546,2.5555,2.5231,2.5408,2.6068,2.6916,2.8146,2.9654,3.1148,3.2502,3.3448,3.3846,3.3564,3.2939,3.1778,3.0649,2.9716,2.8818,2.7841,2.6762,2.6471,2.5781,2.5508,2.5356,2.5148,2.4738,2.4176,2.3839,2.3721,2.3662,2.3556,2.345,2.345,2.3628,2.3956,2.4509,2.53,2.5837,2.6549,2.7004,2.7405,2.7777,2.8261,2.8948,2.9476,2.9432,2.8825,2.8545,2.8018,2.7788,2.8607,2.9284,2.9345,2.9255,2.921,2.93,2.9316,2.9483,3.0141,3.1238,3.2226,3.2433,3.3548,3.4399,3.3949,3.3984,3.3933,3.4,3.4217,3.466,3.5513,3.5976,3.682,3.7765,3.8311,3.8745,3.9406,3.9816,3.9969,4.0121,4.0531,4.099,4.1174,4.176,4.2139,4.2338,4.2595,4.2844,4.2862,4.2844,4.2844,4.2844,4.292,4.2976,4.305,4.3249,4.3338,4.3461,4.341,4.3446,4.3837,4.4103,4.4588,4.5133,4.579,4.6582,4.7389,4.8282,4.8998,4.943,4.9851,5.0068,5.0227,5.0347,5.0542,2.49,2.5216,2.5029,2.5449,2.6272,2.7225,2.8355,2.9711,3.129,3.2548,3.3294,3.3434,3.2878,3.1813,3.0099,2.875,2.7967,2.692,2.6146,2.5494,2.5148,2.461,2.4208,2.38,2.3623,2.3564,2.3233,2.2944,2.2871,2.2871,2.2932,2.3271,2.3271,2.3318,2.3662,2.4208,2.4567,2.4894,2.5481,2.5957,2.6385,2.6591,2.7026,2.7625,2.8163,2.8051,2.7555,2.7405,2.6975,2.682,2.7324,2.8051,2.8275,2.8194,2.8258,2.8607,2.867,2.8826,2.9467,3.0513,3.1406,3.1566,3.2864,3.3201,3.3177,3.3161,3.3335,3.3439,3.3781,3.4397,3.5349,3.5893,3.6489,3.7019,3.7814,3.8344,3.8778,3.9268,3.9642,3.9729,4.0137,4.0497,4.0861,4.1286,4.1656,4.1846,4.1931,4.218,4.2516,4.2516,4.2711,4.275,4.2844,4.2938,4.2938,4.305,4.3142,4.3251,4.3268,4.334,4.3569,4.3741,4.3882,4.4429,4.4972,4.5518,4.6315,4.7231,4.8003,4.8365,4.8815,4.9423,4.9896,5.0033,5.0287,2.4556,2.5077,2.5301,2.5924,2.687,2.775,2.8854,3.0137,3.1709,3.2749,3.3145,3.3072,3.1987,3.0524,2.8239,2.7066,2.6127,2.5204,2.4288,2.4385,2.3669,2.3531,2.3365,2.2871,2.2359,2.2187,2.2187,2.2113,2.2051,2.2051,2.2433,2.2884,2.3078,2.3138,2.3198,2.3531,2.3917,2.4034,2.4412,2.4966,2.5481,2.5563,2.5849,2.6505,2.6805,2.6701,2.6467,2.6308,2.6162,2.5918,2.5755,2.6026,2.6414,2.6759,2.6982,2.7815,2.7879,2.8207,2.8776,2.9806,3.0663,3.0694,3.1908,3.2447,3.2391,3.2351,3.2516,3.2788,3.3177,3.3681,3.4627,3.4972,3.5515,3.6125,3.7167,3.7744,3.8295,3.8775,3.906,3.9432,3.9713,4.0037,4.0351,4.0767,4.1076,4.1348,4.1437,4.1569,4.1888,4.2115,4.2279,4.244,4.2498,4.2806,4.29,4.29,4.3031,4.3123,4.3142,4.3233,4.3359,4.3465,4.364,4.3781,4.4262,4.4758,4.5314,4.6127,4.6751,4.7193,4.787,4.8562,4.9133,4.9641,4.9918,2.3472,2.3942,2.4673,2.5701,2.6894,2.7981,2.9351,3.0794,3.2133,3.2784,3.2906,3.197,3.041,2.8391,2.6155,2.441,2.341,2.282,2.2724,2.293,2.2421,2.2445,2.2884,2.2063,2.1502,2.1376,2.1239,2.1175,2.1376,2.169,2.1865,2.2237,2.2702,2.2836,2.3005,2.3471,2.3636,2.3505,2.3787,2.4253,2.461,2.4781,2.5007,2.5728,2.6026,2.5932,2.5618,2.5453,2.5189,2.4681,2.4363,2.458,2.5161,2.5946,2.6496,2.6811,2.7137,2.7479,2.7981,2.9266,3.0078,3.0597,3.1551,3.2093,3.2018,3.1921,3.1977,3.2201,3.2571,3.3093,3.3836,3.4011,3.4538,3.5364,3.5907,3.6411,3.7626,3.8278,3.8626,3.9076,3.9351,3.9573,3.9952,4.022,4.0546,4.0861,4.1047,4.1213,4.1499,4.163,4.17,4.1888,4.2074,4.2458,4.2844,4.2844,4.29,4.3049,4.3086,4.316,4.3233,4.334,4.3483,4.3608,4.3692,4.3974,4.4554,4.5165,4.5621,4.61,4.6897,4.7737,4.8138,4.8556,4.9083,2.393,2.4641,2.5576,2.6576,2.7709,2.9066,3.0363,3.1628,3.2654,3.3054,3.2415,3.1027,2.9106,2.6886,2.4338,2.2481,2.1631,2.1542,2.1729,2.1865,2.1628,2.1565,2.2125,2.1049,2.0602,2.0291,2.0031,2.0085,2.0409,2.0537,2.0974,2.1416,2.1939,2.2199,2.2322,2.275,2.3053,2.3053,2.3113,2.3352,2.3826,2.3943,2.4567,2.5021,2.5231,2.5119,2.4808,2.465,2.4421,2.4015,2.3806,2.391,2.4292,2.4838,2.5522,2.5851,2.6336,2.6669,2.7106,2.8287,2.9312,2.96,3.0717,3.1275,3.1248,3.1248,3.1407,3.1807,3.2185,3.2664,3.3151,3.3077,3.3582,3.4266,3.4759,3.5532,3.6411,3.7162,3.7928,3.8626,3.9027,3.9299,3.959,3.985,4.0037,4.0319,4.0594,4.0879,4.1094,4.1139,4.1168,4.1481,4.1717,4.2032,4.2418,4.2498,4.2595,4.2786,4.2974,4.2994,4.3123,4.3196,4.3305,4.3465,4.3497,4.3582,4.3808,4.4406,4.4692,4.5058,4.5856,4.6566,4.6998,4.7467,4.8033,2.4781,2.5795,2.6821,2.7867,2.8997,3.0374,3.1537,3.241,3.2955,3.283,3.2092,2.9886,2.7736,2.5443,2.2778,2.0681,2.0204,2.0526,2.0579,2.0921,2.0613,2.0613,2.073,2.0096,1.9649,1.977,1.9065,1.8865,1.9452,1.9704,1.9955,2.0526,2.1175,2.1553,2.1753,2.2273,2.2297,2.2297,2.2247,2.2432,2.2957,2.3484,2.4073,2.4478,2.4376,2.4131,2.4099,2.4054,2.3923,2.3734,2.3569,2.3569,2.3616,2.3897,2.4279,2.4781,2.5453,2.5811,2.6394,2.7483,2.8652,2.8949,2.9929,3.0482,3.0642,3.0807,3.0851,3.1407,3.1736,3.2114,3.2431,3.254,3.2788,3.3272,3.409,3.4888,3.5419,3.6133,3.6997,3.7777,3.8487,3.906,3.9351,3.9625,3.9901,4.0054,4.0336,4.0434,4.0611,4.0659,4.0737,4.1122,4.1393,4.1587,4.1846,4.2015,4.2139,4.2279,4.2516,4.2691,4.2862,4.3031,4.3178,4.3322,4.3446,4.3497,4.3582,4.3664,4.409,4.4531,4.4998,4.5378,4.5776,4.6436,4.7129,2.5398,2.6858,2.786,2.9172,3.0628,3.1592,3.2374,3.2879,3.2508,3.1761,3.0505,2.8189,2.5912,2.3463,2.0206,1.887,1.8767,1.869,1.9013,1.9694,1.9386,1.9639,2.0279,1.9253,1.9187,1.9253,1.8664,1.8472,1.8741,1.9121,1.9365,1.9824,2.0602,2.1388,2.1325,2.1901,2.2297,2.2247,2.2185,2.2371,2.2787,2.2992,2.3292,2.3471,2.3471,2.3352,2.3556,2.3628,2.3628,2.3569,2.345,2.3403,2.3403,2.3258,2.3245,2.3636,2.4381,2.5356,2.5841,2.7046,2.8168,2.8655,2.9798,3.0408,3.0642,3.0642,3.0687,3.0687,3.0911,3.1233,3.1679,3.1652,3.2074,3.2571,3.325,3.4069,3.4703,3.4872,3.5766,3.6744,3.7449,3.8454,3.9166,3.9456,3.9781,3.9884,3.9986,4.0121,4.0204,4.0303,4.0336,4.0737,4.0908,4.1139,4.1366,4.1543,4.17,4.1846,4.2056,4.2338,4.2555,4.2768,4.3068,4.3214,4.3322,4.3428,4.3513,4.3615,4.373,4.3939,4.4339,4.449,4.4552,4.5308,4.6145,2.6767,2.8075,2.9605,3.0762,3.1556,3.2042,3.2063,3.1761,3.107,3.0013,2.8556,2.626,2.367,2.1074,1.887,1.8462,1.8539,1.8114,1.8317,1.8787,1.8664,1.8798,1.9121,1.8731,1.8664,1.8664,1.8462,1.8144,1.8337,1.8405,1.8586,1.8844,1.9628,2.0215,2.0677,2.1325,2.1714,2.1788,2.18,2.1862,2.2211,2.2249,2.2359,2.2738,2.2798,2.2859,2.2932,2.3185,2.3318,2.3271,2.315,2.309,2.315,2.3078,2.3017,2.3078,2.3531,2.4176,2.4916,2.6325,2.7385,2.8311,2.9275,3.0132,3.0437,3.0642,3.0642,3.0628,3.0642,3.0866,3.1087,3.1176,3.1452,3.1879,3.2532,3.2966,3.3609,3.3889,3.4471,3.5441,3.6401,3.7351,3.8355,3.9118,3.951,3.9833,3.9986,4.007,4.0121,4.0171,4.0221,4.0353,4.0483,4.058,4.0896,4.1111,4.1321,4.1499,4.1613,4.1931,4.2239,4.2498,4.2806,4.3105,4.3305,4.3411,4.3463,4.3513,4.3597,4.3664,4.3716,4.3905,4.4102,4.4285,4.5115,2.7899,2.9158,3.0966,3.1788,3.1786,3.1797,3.11,2.998,2.8995,2.7783,2.6169,2.3893,2.1289,1.9236,1.8327,1.7988,1.8269,1.8056,1.8134,1.8202,1.8269,1.8337,1.8405,1.8269,1.8212,1.8212,1.8134,1.8008,1.8008,1.8076,1.8066,1.8076,1.8854,1.9299,1.9814,2.0602,2.1198,2.1537,2.1348,2.1474,2.1639,2.1439,2.1565,2.1803,2.2113,2.2298,2.2372,2.2555,2.2763,2.303,2.286,2.286,2.2909,2.2909,2.286,2.2848,2.3138,2.3318,2.4158,2.5284,2.6572,2.7647,2.8822,2.9878,3.0225,3.0447,3.0642,3.0642,3.0642,3.0642,3.0642,3.0895,3.1132,3.1452,3.1894,3.2176,3.2453,3.2928,3.3398,3.4229,3.5133,3.5893,3.7012,3.8394,3.9172,3.9697,3.9935,4.0087,4.0087,4.0087,4.0121,4.0221,4.0221,4.0303,4.0434,4.0707,4.0926,4.1094,4.123,4.1499,4.1846,4.2239,4.2595,4.2938,4.3233,4.334,4.3393,4.3463,4.3479,4.3548,4.3615,4.3682,4.3795,4.3878,4.4358,2.8344,2.9931,3.1216,3.1448,3.1097,3.0779,2.9508,2.764,2.6502,2.4983,2.3106,2.1067,1.9521,1.8307,1.751,1.7373,1.7784,1.6862,1.7148,1.7569,1.7774,1.7784,1.7852,1.7862,1.794,1.8018,1.794,1.794,1.8008,1.794,1.794,1.8066,1.8519,1.8767,1.9288,2.0074,2.0741,2.1083,2.1042,2.1031,2.1019,2.0828,2.07,2.0944,2.0933,2.1049,2.2051,2.2113,2.2384,2.2848,2.2739,2.2678,2.2739,2.2739,2.2678,2.2739,2.28,2.2969,2.3504,2.4385,2.5615,2.6958,2.8288,2.9492,2.9842,3.0312,3.0507,3.0582,3.0642,3.0628,3.0628,3.0762,3.0955,3.1249,3.1625,3.1951,3.216,3.2231,3.2749,3.3206,3.3931,3.4829,3.583,3.7257,3.8546,3.9139,3.9952,4.0087,4.0087,4.0087,4.0087,4.0121,4.0121,4.0121,4.0121,4.0303,4.0483,4.0611,4.0707,4.1065,4.1455,4.1846,4.2115,4.2691,4.2994,4.3178,4.334,4.3393,4.3463,4.3479,4.3513,4.3582,4.3631,4.373,4.4302,2.3565,2.7129,2.7353,2.8076,2.9026,2.787,2.6424,2.4798,2.3603,2.1776,1.9745,1.9152,1.8267,1.7335,1.7373,1.7245,1.752,1.7254,1.7097,1.6941,1.6941,1.6941,1.7019,1.7157,1.7157,1.7598,1.7676,1.7676,1.7676,1.7735,1.7666,1.7803,1.8124,1.8442,1.8967,1.9497,2.0161,2.0518,2.0399,2.0259,2.0183,2.0064,1.9933,1.9922,2.0431,2.0688,2.1313,2.1616,2.2075,2.2482,2.2494,2.2555,2.2616,2.2555,2.2555,2.2555,2.2678,2.2739,2.2934,2.3825,2.4945,2.6566,2.7783,2.8678,2.9233,2.9856,3.0312,3.0447,3.0568,3.0433,3.0702,3.0895,3.1073,3.119,3.1409,3.1724,3.1894,3.1951,3.2135,3.2655,3.3294,3.4022,3.5086,3.6146,3.7425,3.8529,3.9412,4.007,4.002,4.002,4.002,4.007,4.0087,4.0087,4.0087,4.0087,4.007,4.0171,4.032,4.0659,4.1065,4.1065,4.1428,4.2133,4.2747,4.292,4.3087,4.3322,4.3446,4.3497,4.3479,4.3513,4.3582,4.3631,4.4054,1.8529,2.2489,2.2306,2.3681,2.5669,2.431,2.2648,2.1104,2.0154,1.874,1.6743,1.7123,1.6867,1.6123,1.6149,1.6524,1.6524,1.6385,1.6315,1.6167,1.6026,1.6097,1.6306,1.6524,1.6811,1.7323,1.7461,1.7539,1.7539,1.747,1.7539,1.7529,1.7588,1.791,1.824,1.8911,1.9452,1.9802,1.9813,1.9615,1.9605,1.9473,1.9407,1.9341,1.9649,1.9977,2.0484,2.0921,2.1514,2.1975,2.2235,2.2309,2.2432,2.2432,2.2359,2.242,2.2555,2.2678,2.2873,2.3523,2.4421,2.559,2.6872,2.78,2.8532,2.9032,2.947,2.9856,2.9917,3.0115,3.0372,3.0507,3.0881,3.1043,3.1292,3.1567,3.1567,3.1682,3.1796,3.2124,3.266,3.3003,3.3761,3.4841,3.6571,3.7763,3.871,3.9401,3.9644,3.9696,3.985,3.9969,4.0087,4.0087,4.0087,4.007,4.007,4.0121,4.0221,4.0451,4.0659,4.0724,4.0972,4.1717,4.2279,4.2577,4.2864,4.3105,4.3304,4.3497,4.3479,4.3479,4.3513,4.3548,4.3548,1.3853,1.635,1.6575,1.8581,2.1124,2.0251,1.8462,1.6957,1.636,1.56,1.468,1.4633,1.4633,1.449,1.4426,1.4791,1.5084,1.4728,1.4657,1.51,1.4879,1.5305,1.5737,1.6018,1.6167,1.7185,1.7254,1.7185,1.7323,1.7254,1.7323,1.7245,1.7097,1.7226,1.7364,1.7988,1.8596,1.9065,1.9341,1.9264,1.9198,1.8998,1.8931,1.8854,1.8875,1.9198,1.9759,2.0215,2.0805,2.1451,2.1913,2.2061,2.2247,2.2247,2.2185,2.2247,2.2247,2.2432,2.269,2.3529,2.409,2.4504,2.5751,2.6694,2.7048,2.7766,2.8657,2.9101,2.8953,2.9219,2.947,2.9917,3.0418,3.0792,3.1029,3.1278,3.1336,3.1524,3.1697,3.1754,3.1655,3.1802,3.2399,3.3429,3.5514,3.6926,3.7947,3.8613,3.9065,3.9242,3.9348,3.9401,3.9575,3.9747,3.9747,3.9969,4.002,4.007,4.0171,4.0353,4.0483,4.058,4.0972,4.1481,4.1743,4.1973,4.244,4.2864,4.3142,4.3375,4.3479,4.3479,4.3479,4.3479,4.3479,0.6361,1.0833,1.1138,1.162,1.251,1.4437,1.4673,1.4001,1.3769,1.331,1.2757,1.2983,1.2903,1.2757,1.3041,1.3411,1.3772,1.3852,1.3932,1.3875,1.3658,1.381,1.4235,1.4736,1.51,1.5683,1.6114,1.6473,1.6333,1.6621,1.6551,1.6403,1.648,1.6811,1.7226,1.7579,1.7647,1.8046,1.7969,1.7745,1.7677,1.7969,1.8172,1.8027,1.8259,1.8731,1.9233,1.9562,2.015,2.0933,2.1388,2.1726,2.2061,2.2123,2.2197,2.2185,2.2247,2.2482,2.28,2.3267,2.3602,2.4078,2.4595,2.5639,2.6491,2.6933,2.7715,2.8346,2.8414,2.8748,2.9205,2.9407,2.9794,3.0297,3.0613,3.097,3.1161,3.1409,3.1582,3.1582,3.1539,3.1867,3.2382,3.2684,3.4353,3.5733,3.6756,3.7794,3.846,3.858,3.8668,3.8668,3.8778,3.9119,3.9295,3.947,3.9747,3.9918,4.002,4.0171,4.0303,4.0402,4.0611,4.1001,4.1185,4.141,4.1908,4.2397,4.2958,4.3232,4.332,4.3442,4.3479,4.3479,4.3479,-0.0633,0.4306,0.5517,0.5391,0.5168,0.868,1.029,1.0268,1.0695,1.0668,1.0461,1.1125,1.1211,1.0995,1.1292,1.1951,1.2311,1.2325,1.2631,1.2572,1.2498,1.2792,1.3164,1.3448,1.4394,1.4832,1.5401,1.5833,1.5903,1.6053,1.5896,1.5722,1.5574,1.5901,1.6338,1.6478,1.6881,1.7148,1.707,1.6991,1.706,1.7207,1.7501,1.756,1.7842,1.8395,1.871,1.91,1.9497,2.0204,2.0794,2.1262,2.1726,2.2061,2.2123,2.2247,2.2371,2.2543,2.2812,2.2982,2.3267,2.3627,2.3841,2.457,2.5653,2.6065,2.6622,2.7327,2.7904,2.8271,2.8529,2.8748,2.9093,2.9608,2.9917,3.0283,3.0718,3.0896,3.1219,3.1278,3.1569,3.1957,3.2357,3.2622,3.3227,3.4384,3.5535,3.6642,3.7712,3.7873,3.8051,3.8108,3.8222,3.8574,3.8739,3.8849,3.9189,3.9696,3.9867,3.9867,4.0121,4.0271,4.0353,4.0531,4.0767,4.1052,4.1374,4.1841,4.2368,4.2814,4.3156,4.3281,4.3461,4.3479,4.3479,-0.6844,-0.2911,-0.0385,0.0,-0.0154,0.3347,0.5121,0.5396,0.6725,0.7575,0.8036,0.8637,0.8905,0.9155,0.9241,0.9734,1.0296,1.025,1.0763,1.1249,1.1285,1.1832,1.2378,1.2983,1.344,1.4458,1.5051,1.5039,1.5562,1.5339,1.5118,1.5061,1.4925,1.4926,1.501,1.5376,1.5887,1.6147,1.628,1.614,1.6149,1.6655,1.6733,1.6793,1.7139,1.7491,1.7891,1.8307,1.87,1.9354,2.015,2.0741,2.1262,2.1788,2.1999,2.2247,2.2309,2.2494,2.2678,2.2848,2.2982,2.329,2.364,2.3904,2.4343,2.5064,2.5613,2.6087,2.658,2.721,2.7696,2.8011,2.8325,2.8712,2.903,2.9456,2.9903,3.0269,3.0718,3.1029,3.1351,3.1674,3.1892,3.217,3.2516,3.3383,3.4543,3.5506,3.6499,3.7263,3.7488,3.7764,3.7879,3.8124,3.8238,3.8238,3.8629,3.9082,3.9365,3.954,3.9799,4.007,4.0221,4.0336,4.0511,4.0701,4.0788,4.1162,4.1722,4.2119,4.2323,4.3137,4.3316,4.3461,4.3479,-1.1364,-0.7655,-0.561,-0.4736,-0.4375,-0.253,0.0,0.2783,0.3945,0.4762,0.5523,0.6132,0.6685,0.6791,0.7304,0.797,0.8404,0.8677,0.9031,0.9453,0.9963,1.0149,1.0578,1.1315,1.1937,1.2615,1.3157,1.366,1.3902,1.3939,1.4106,1.4028,1.3886,1.3656,1.3605,1.3807,1.4432,1.493,1.5121,1.5105,1.5076,1.5438,1.5446,1.5596,1.6298,1.6585,1.7001,1.7501,1.8037,1.89,1.9166,1.9694,2.0431,2.1071,2.1526,2.2185,2.2309,2.2482,2.269,2.28,2.2969,2.3017,2.3278,2.3627,2.3954,2.4318,2.4695,2.5149,2.5744,2.6501,2.6919,2.7222,2.7604,2.8012,2.826,2.857,2.9066,2.9642,3.0086,3.0584,3.0911,3.1219,3.1409,3.17,3.2058,3.2758,3.3539,3.4493,3.544,3.624,3.6906,3.7251,3.7326,3.7504,3.7621,3.7679,3.8026,3.8407,3.8701,3.9098,3.947,3.9747,3.9969,4.0035,3.9995,3.9976,3.9956,4.0332,4.0664,4.0853,4.1121,4.225,4.3137,4.3281,4.3461,-1.5256,-1.176,-0.9435,-0.8116,-0.7281,-0.6249,-0.4015,-0.1204,0.0912,0.2339,0.3106,0.4139,0.477,0.5303,0.5878,0.6527,0.7388,0.7686,0.7966,0.836,0.8623,0.8878,0.9186,0.9612,1.028,1.0773,1.121,1.1783,1.2068,1.2301,1.2454,1.2867,1.2734,1.2519,1.2446,1.2795,1.3148,1.3582,1.3816,1.3861,1.3968,1.4244,1.4386,1.4402,1.5321,1.5745,1.6167,1.6751,1.7364,1.8162,1.8365,1.89,1.9704,2.0279,2.1262,2.1862,2.1913,2.2161,2.242,2.2616,2.2787,2.2957,2.303,2.3205,2.3541,2.3866,2.4205,2.4531,2.5367,2.6019,2.6222,2.648,2.6928,2.731,2.7484,2.7736,2.8298,2.8939,2.9518,3.0025,3.0389,3.0703,3.0955,3.1278,3.1672,3.2322,3.2932,3.3625,3.4583,3.5442,3.6213,3.6723,3.6754,3.6769,3.6952,3.7178,3.746,3.7796,3.8026,3.8423,3.8974,3.9335,3.9528,3.9463,3.9342,3.9143,3.886,3.9111,3.9392,3.954,3.9946,4.1047,4.2196,4.3066,4.3246,-1.8465,-1.497,-1.2213,-1.0325,-0.9259,-0.8325,-0.7194,-0.5901,-0.2201,-0.0074,0.0722,0.2164,0.3164,0.3555,0.4124,0.5062,0.5821,0.6312,0.6728,0.7394,0.7676,0.7831,0.8042,0.8554,0.8882,0.9222,0.9616,1.0069,1.0337,1.059,1.1066,1.1609,1.1667,1.1524,1.1368,1.1847,1.2153,1.2058,1.2638,1.3053,1.3301,1.3749,1.4299,1.4042,1.4474,1.5046,1.5542,1.5974,1.6324,1.7148,1.7833,1.8432,1.9034,1.9497,2.0613,2.1336,2.1325,2.1714,2.2099,2.2359,2.2604,2.2787,2.2921,2.2958,2.3157,2.3516,2.3816,2.3954,2.4645,2.5264,2.5608,2.6025,2.6451,2.6803,2.704,2.7229,2.7696,2.839,2.9079,2.9518,2.9889,3.0208,3.0389,3.0644,3.0837,3.1689,3.2448,3.2974,3.3597,3.4467,3.5368,3.6076,3.6261,3.6292,3.6616,3.6785,3.6892,3.7134,3.7417,3.7812,3.8423,3.8772,3.9068,3.884,3.8604,3.8007,3.7699,3.7902,3.8018,3.8074,3.8672,3.9815,4.0935,4.1959,4.2904,-2.0682,-1.7339,-1.3876,-1.1874,-1.105,-1.0154,-0.8981,-0.7546,-0.5686,-0.3797,-0.2174,-0.063,0.0486,0.1029,0.2129,0.3229,0.4248,0.4614,0.5122,0.5726,0.626,0.6521,0.6557,0.7032,0.7377,0.7789,0.8112,0.8482,0.8909,0.9202,0.9538,0.9988,1.02,1.0213,1.0371,1.0965,1.0924,1.0748,1.122,1.2093,1.262,1.2622,1.2756,1.3078,1.3535,1.389,1.4537,1.533,1.5754,1.6385,1.7088,1.7833,1.8566,1.8777,1.942,2.0193,2.073,2.106,2.1514,2.1963,2.2347,2.2604,2.2739,2.2739,2.2849,2.318,2.3378,2.3566,2.3904,2.4519,2.5124,2.5615,2.6068,2.6375,2.6589,2.6863,2.7134,2.7829,2.8583,2.8953,2.9331,2.958,2.9752,3.0011,3.0254,3.0792,3.1599,3.2173,3.2551,3.3259,3.4314,3.5108,3.563,3.5814,3.623,3.6554,3.6662,3.6846,3.7134,3.746,3.7822,3.816,3.8375,3.8102,3.7735,3.7208,3.6755,3.6631,3.6706,3.6895,3.7408,3.8561,3.9173,4.0098,4.1483,-2.2356,-1.945,-1.6114,-1.395,-1.2833,-1.1762,-1.0665,-0.9527,-0.8042,-0.6647,-0.5171,-0.3133,-0.1625,-0.1069,0.0067,0.1338,0.2404,0.2608,0.336,0.4118,0.4681,0.4984,0.5251,0.5513,0.5841,0.6245,0.6463,0.6809,0.7507,0.7697,0.7962,0.8527,0.872,0.9052,0.939,0.9588,0.9786,0.9676,1.003,1.0663,1.1536,1.1647,1.1919,1.2351,1.2512,1.2879,1.3673,1.4601,1.5251,1.5965,1.6811,1.755,1.8094,1.8182,1.87,1.941,1.9933,2.0204,2.073,2.1313,2.1913,2.2099,2.2482,2.2482,2.2616,2.2874,2.2996,2.3182,2.3617,2.4204,2.4883,2.5385,2.6005,2.6357,2.662,2.6863,2.7066,2.7523,2.796,2.8157,2.8468,2.8648,2.8839,2.9156,2.947,3.0072,3.0792,3.1278,3.1634,3.2183,3.3197,3.4145,3.4785,3.5645,3.6322,3.6492,3.6554,3.6677,3.6768,3.6852,3.7086,3.7501,3.7666,3.7166,3.6837,3.6592,3.6173,3.601,3.6051,3.6354,3.6774,3.738,3.7866,3.8478,3.9783,-2.3368,-2.0914,-1.7969,-1.5984,-1.4533,-1.3115,-1.2185,-1.1337,-0.9724,-0.8661,-0.7842,-0.5266,-0.3467,-0.2403,-0.1604,-0.0401,0.0534,0.0935,0.1737,0.2611,0.3153,0.3507,0.3909,0.4381,0.4672,0.4944,0.5113,0.5634,0.6199,0.6396,0.6654,0.7172,0.7497,0.7827,0.8027,0.8355,0.8683,0.8888,0.9102,0.9194,0.9902,1.0608,1.1156,1.1462,1.1687,1.2063,1.2865,1.3803,1.4601,1.5463,1.6315,1.7217,1.7628,1.7647,1.8104,1.869,1.8946,1.9212,1.9672,2.0473,2.0996,2.1451,2.1975,2.2223,2.2223,2.242,2.2604,2.2813,2.3182,2.3816,2.4491,2.5081,2.5699,2.6269,2.6493,2.6824,2.7108,2.7323,2.7469,2.759,2.7709,2.7894,2.8091,2.8352,2.8789,2.9393,2.9875,3.03,3.0732,3.1412,3.2227,3.3226,3.4069,3.5002,3.6091,3.6384,3.6353,3.623,3.6274,3.6206,3.6232,3.6262,3.6189,3.5953,3.5663,3.5671,3.5782,3.5723,3.58,3.5932,3.6346,3.6824,3.704,3.762,3.8355,-2.3056,-1.9823,-1.749,-1.6195,-1.5498,-1.4088,-1.3033,-1.2197,-1.101,-0.9875,-0.8854,-0.7957,-0.6441,-0.4794,-0.3538,-0.227,-0.1136,-0.0602,0.0401,0.1339,0.1809,0.2078,0.248,0.3218,0.3692,0.4025,0.4356,0.4688,0.5084,0.5282,0.5411,0.5731,0.5796,0.6322,0.7102,0.7437,0.7772,0.7977,0.8338,0.8614,0.8963,0.9673,1.0137,1.0527,1.0991,1.1211,1.1768,1.2799,1.352,1.4386,1.5542,1.6533,1.6959,1.7107,1.7432,1.7833,1.8094,1.8422,1.8957,1.9607,2.0139,2.073,2.1112,2.1313,2.1514,2.1851,2.1913,2.1839,2.2312,2.3169,2.3839,2.4439,2.504,2.5632,2.6043,2.662,2.7085,2.7217,2.739,2.7456,2.759,2.7656,2.7723,2.7973,2.817,2.8712,2.9079,2.9442,2.9628,3.0401,3.1309,3.2212,3.3211,3.4373,3.5414,3.6014,3.6091,3.5876,3.5644,3.5468,3.5147,3.4729,3.4654,3.4739,3.4872,3.5,3.5085,3.5379,3.5667,3.5844,3.6079,3.6371,3.6534,3.6817,3.7504]}]]